GFSSW_500_spd_000.txt.gz
Wind_Speed
27 28 28 25 20 19 16 13 11 10 9 6 2 4 7 10 9 7 7 8 12 9 11 12 19 16 16 12 13 16 15 9 10 9 12 13 13 13 14 12 10 11 12 12 12
28 30 30 29 24 22 21 17 13 12 12 8 6 2 5 9 9 7 6 10 10 9 9 11 16 19 18 12 12 15 8 8 11 9 9 10 11 12 12 13 10 10 11 11 10
26 31 33 30 29 24 24 21 16 13 14 11 7 5 3 7 9 6 6 10 9 10 9 9 12 16 18 12 10 9 5 5 9 7 6 7 10 9 9 10 11 10 11 10 8
24 29 33 35 32 28 24 24 20 16 14 14 11 7 4 4 7 6 4 9 7 10 11 10 10 12 16 12 9 4 3 3 7 7 6 9 9 7 8 9 9 12 9 9 10
24 25 30 35 36 33 28 26 24 20 16 15 14 10 7 1 4 6 3 6 8 11 13 13 12 10 13 14 10 2 4 5 6 7 8 8 8 9 8 9 8 9 9 7 7
27 24 26 33 36 37 32 29 27 23 19 18 18 14 10 4 1 4 1 4 7 11 12 14 12 10 13 13 9 6 6 7 4 7 7 7 7 8 8 7 7 8 8 5 4
29 28 25 28 34 38 36 32 31 26 24 20 21 18 13 7 6 0 2 4 7 11 13 14 14 13 14 16 15 11 11 6 2 3 5 7 6 7 8 9 6 7 9 8 7
28 29 26 27 30 36 37 34 33 30 27 23 23 21 16 12 8 4 1 5 8 11 11 13 14 14 15 18 18 16 15 12 4 2 3 8 4 3 7 9 7 7 7 9 10
29 27 28 28 28 33 37 35 34 32 30 26 26 24 20 16 12 8 3 5 9 12 11 12 13 11 14 19 18 16 11 11 10 4 3 7 3 6 7 8 6 5 5 8 8
30 29 28 28 28 31 35 37 36 34 32 28 28 26 24 20 16 10 7 6 10 13 13 13 13 11 12 15 13 14 15 14 10 7 4 4 2 4 7 7 6 2 2 3 4
27 32 30 29 28 31 33 38 38 36 34 31 30 29 26 23 19 13 10 8 11 15 16 15 16 13 9 15 16 14 16 12 11 9 9 5 1 3 3 1 4 2 1 0 1
23 30 31 31 29 31 35 37 37 37 36 34 32 32 29 27 22 16 12 9 10 13 15 15 13 14 13 14 15 15 17 14 12 9 10 6 4 3 5 3 5 4 2 4 4
23 26 31 33 30 32 36 38 37 37 36 36 34 34 31 28 26 21 16 14 13 13 13 12 14 11 11 11 12 17 16 14 11 10 11 10 8 4 5 7 9 8 7 8 6
23 25 27 33 33 32 36 38 39 35 35 35 34 35 35 34 31 27 22 17 14 15 17 18 14 12 10 9 11 11 14 14 13 11 13 11 7 8 9 12 16 16 13 11 8
23 22 25 31 33 31 34 37 38 37 33 35 37 37 36 35 32 28 24 20 17 12 12 12 12 13 13 13 14 19 16 15 19 16 19 17 15 13 14 17 19 19 16 14 12
23 23 25 27 32 31 32 35 37 38 36 35 37 36 36 37 34 32 29 24 22 21 18 19 16 18 18 18 19 17 15 14 15 14 16 15 17 12 20 15 21 19 19 16 16
24 24 27 27 30 31 31 33 37 40 39 36 37 37 34 35 36 33 28 25 23 22 20 16 17 19 19 19 20 18 14 7 10 12 11 22 19 13 17 12 11 18 21 21 21
25 26 28 28 29 32 32 34 40 38 37 39 38 37 35 36 34 33 31 26 27 24 19 20 23 23 23 18 16 14 12 11 11 12 12 20 16 13 15 18 18 17 20 22 25
26 27 29 30 30 30 33 36 34 35 43 39 35 38 38 37 36 34 31 27 23 26 22 20 16 23 24 25 15 14 13 15 14 17 14 13 14 14 15 15 19 20 23 24 26
24 26 29 32 31 28 32 37 36 37 40 37 35 41 41 41 39 35 32 30 29 28 28 21 22 20 25 21 21 18 13 10 10 13 12 16 14 12 18 18 19 19 19 23 27
24 25 28 33 32 31 30 34 33 34 38 41 38 41 41 39 39 37 33 32 30 29 28 25 27 24 26 28 20 24 22 18 15 15 11 10 10 14 19 19 20 19 19 22 24
25 24 27 33 31 29 28 31 35 34 36 39 38 38 42 37 41 34 34 33 32 32 30 28 27 29 25 28 27 21 18 19 12 14 14 16 13 17 15 16 18 21 21 22 25
26 23 26 31 31 30 30 27 40 37 37 37 39 37 39 39 37 37 34 36 34 31 30 30 30 28 29 32 33 27 25 21 16 16 17 13 10 20 18 17 20 20 23 25 27
27 26 26 31 32 30 34 35 42 41 38 37 39 39 40 39 37 36 34 34 35 35 33 31 27 32 28 24 21 23 26 19 21 19 17 19 18 17 21 21 23 25 26 27 28
29 28 27 29 32 31 32 37 40 46 42 39 38 41 43 41 40 36 33 33 32 35 36 37 35 32 27 25 24 25 24 23 22 22 24 20 27 24 27 25 25 27 27 27 28
32 29 29 28 29 28 29 36 42 46 47 42 42 41 42 41 42 36 41 38 35 35 38 39 36 34 30 32 30 29 28 29 28 27 30 34 34 28 25 27 27 28 29 28 30
35 33 31 31 30 30 32 33 38 44 50 48 43 43 42 47 44 40 38 38 38 34 35 34 41 37 28 34 32 34 35 33 34 33 35 38 41 36 29 28 28 29 30 30 30

GFSSW_500_spd_006.txt.gz
Wind_Speed
27 30 31 29 25 21 17 14 12 12 9 6 1 3 5 1 4 8 10 13 13 17 20 24 26 26 28 20 26 23 12 2 10 4 9 6 7 3 10 12 12 10 12 11 13
27 29 31 32 30 26 22 18 15 14 12 9 5 2 3 4 3 6 10 17 15 15 20 27 31 29 30 25 10 6 7 2 7 5 7 11 4 6 5 9 9 8 8 8 9
29 28 31 33 33 31 26 22 19 16 14 13 8 7 1 3 4 5 8 17 17 15 18 28 42 35 25 9 4 5 8 4 3 8 6 4 6 14 13 9 6 6 6 7 7
33 31 30 32 35 34 32 27 24 21 17 15 13 10 6 1 2 4 10 18 20 17 15 18 34 30 21 6 5 3 9 12 17 15 18 17 15 6 9 6 8 4 6 5 7
28 34 32 32 33 37 36 33 29 26 21 18 17 14 11 6 1 4 8 14 20 19 17 18 24 27 16 3 8 5 12 11 7 7 10 8 6 2 6 6 3 2 3 3 4
21 29 35 34 33 34 37 37 33 30 26 22 19 18 14 10 6 3 8 10 20 21 18 18 23 26 14 10 7 13 4 14 12 7 7 2 0 3 4 3 2 1 1 2 3
23 22 31 37 35 35 35 39 37 33 31 27 22 21 18 14 10 5 8 12 18 22 18 17 20 15 21 12 4 10 13 14 4 2 9 2 1 2 1 3 4 2 1 1 1
27 24 24 35 38 37 35 36 40 38 34 31 27 23 22 19 14 11 6 11 13 23 23 20 14 26 20 17 11 10 9 7 3 8 3 3 3 4 3 3 4 3 4 3 3
28 27 23 27 38 40 36 34 39 41 38 35 31 27 25 23 18 16 10 13 15 19 24 20 19 14 27 15 12 16 8 13 8 18 14 1 3 5 6 4 3 5 4 4 5
29 28 26 24 31 40 39 34 34 43 42 39 36 31 30 30 24 18 16 12 17 19 21 19 19 18 18 23 19 9 15 20 15 16 18 8 7 12 7 7 2 2 3 3 5
29 30 29 25 25 36 40 38 35 41 46 43 41 38 33 32 28 23 19 17 17 21 22 23 22 17 18 18 15 13 13 15 10 13 25 18 17 12 16 11 9 5 1 1 4
30 30 30 27 25 28 40 38 39 39 40 45 42 41 36 36 32 28 25 21 18 18 24 25 22 18 16 18 19 14 16 14 14 17 12 20 20 10 10 17 17 10 6 4 2
32 31 30 30 26 25 34 39 39 39 40 47 45 43 39 36 35 33 27 22 20 21 22 20 20 21 19 20 22 22 20 16 13 18 22 16 31 18 12 14 19 15 12 7 6
33 32 31 30 27 26 29 37 36 38 38 40 45 41 43 40 39 37 31 27 25 23 21 22 20 23 23 21 19 19 20 20 19 19 16 18 14 24 14 24 25 33 17 10 8
35 33 32 29 28 26 28 28 34 35 29 24 36 36 40 40 37 39 35 33 29 26 27 21 23 24 26 24 24 21 13 17 20 21 19 18 20 26 24 26 26 20 27 14 10
36 34 33 27 29 27 25 30 32 31 24 6 25 37 39 42 43 42 42 38 34 31 28 23 21 23 23 20 22 18 18 19 22 19 22 22 19 30 29 19 20 24 12 12 17
36 34 32 27 30 25 24 27 32 35 25 18 21 25 34 37 41 43 45 44 39 33 30 26 18 24 25 22 19 19 17 15 15 16 16 16 23 18 23 14 16 18 25 24 26
36 35 32 30 28 27 28 31 37 31 38 17 12 16 28 33 35 41 44 44 40 35 28 29 26 26 25 23 21 25 18 15 10 6 11 14 17 11 18 17 25 11 16 29 25
36 35 31 32 29 28 31 35 33 25 31 14 12 20 25 28 30 34 44 43 40 37 25 27 22 25 22 23 26 23 24 18 16 14 13 15 14 16 21 21 28 38 38 34 33
35 35 30 33 31 30 33 31 25 24 25 24 24 22 25 28 30 29 39 41 41 38 34 21 18 24 26 25 27 21 11 18 19 19 17 15 19 20 24 25 29 23 28 23 25
34 33 34 32 32 32 31 25 20 38 24 19 31 26 24 27 31 31 33 36 39 36 34 23 16 20 24 30 26 23 23 21 15 13 13 13 25 23 23 27 25 26 27 24 24
32 33 35 30 34 30 27 23 23 30 26 20 41 27 32 32 31 33 28 30 33 33 35 33 27 25 30 25 23 22 26 20 20 22 23 17 13 15 23 27 28 33 33 28 20
31 34 36 31 33 29 25 26 30 37 27 20 30 40 33 28 32 34 31 29 27 33 34 35 32 30 27 27 28 30 28 23 19 16 21 18 22 33 29 28 26 32 33 35 37
31 33 33 32 30 30 27 26 32 32 30 24 20 35 25 25 34 34 34 29 32 29 35 32 34 34 29 26 24 27 25 26 27 30 25 26 26 20 19 22 36 40 32 26 30
34 31 39 37 31 30 33 29 24 29 33 29 38 29 31 22 30 30 32 32 30 36 38 43 37 33 32 33 28 29 25 28 26 34 30 25 36 31 39 26 29 41 31 29 37
34 31 43 38 39 39 36 33 27 27 34 28 45 30 31 30 31 37 36 34 38 42 42 43 43 37 30 25 31 28 28 33 26 24 25 33 29 34 34 43 34 43 31 39 41
30 31 41 34 35 34 36 33 37 23 32 31 41 35 34 42 40 46 42 41 45 42 47 49 47 38 33 30 28 30 28 29 29 31 33 31 28 36 45 44 45 48 44 40 39

GFSSW_500_spd_009.txt.gz
Wind_Speed
25 27 28 27 24 21 17 15 13 10 7 5 3 4 5 3 2 7 12 9 14 20 28 31 23 17 16 22 16 23 10 7 14 13 12 4 11 12 10 11 12 11 12 13 15
26 27 30 32 31 27 23 20 17 14 11 8 6 3 3 5 3 6 11 14 15 20 30 35 34 26 22 22 24 24 16 9 6 9 7 4 9 13 10 8 9 10 9 11 11
26 29 29 32 34 33 29 25 21 18 15 12 9 6 2 3 3 3 8 13 16 17 26 38 37 27 27 26 13 19 18 6 5 6 3 2 9 7 3 6 8 7 7 9 9
16 24 31 31 33 34 34 30 26 22 19 16 13 10 6 1 4 6 7 15 17 14 19 35 29 28 31 25 5 15 16 12 19 14 6 11 5 5 1 4 5 5 7 5 7
20 18 22 33 32 34 35 35 31 27 24 20 17 14 10 7 3 5 7 10 18 16 18 38 26 24 29 18 4 14 10 11 22 18 7 10 5 4 2 3 4 5 5 5 4
24 22 20 22 34 34 34 36 35 32 29 25 21 18 15 12 8 5 8 9 18 19 20 30 29 22 25 18 12 13 7 15 12 15 9 3 3 1 1 2 5 6 4 3 4
26 25 24 21 23 36 35 35 36 37 34 31 26 21 20 15 13 8 11 13 18 21 22 28 29 23 29 17 18 8 10 16 11 11 6 5 3 4 2 2 5 8 7 6 7
27 27 25 24 23 25 37 35 35 37 38 35 31 26 24 20 18 14 9 12 15 21 26 27 26 24 28 22 15 12 14 11 2 15 20 18 14 4 5 5 4 8 9 9 8
26 27 28 26 25 24 27 39 36 35 41 40 36 31 27 25 21 18 13 17 17 21 24 24 26 21 28 27 21 18 9 10 9 8 12 15 16 7 5 4 4 3 6 8 9
28 28 28 28 26 25 25 31 40 37 39 44 40 37 33 33 28 21 19 18 20 23 23 24 24 22 21 28 15 19 18 20 19 14 10 13 17 13 8 8 6 4 3 6 6
30 30 30 29 27 26 26 25 37 42 37 43 46 42 39 37 32 28 24 21 23 24 22 23 25 20 16 18 18 8 8 14 20 19 13 16 16 16 18 8 5 9 11 4 3
32 33 33 32 29 26 26 27 30 42 42 39 46 46 43 40 37 33 30 26 24 21 25 27 26 21 21 26 21 14 20 20 13 18 22 11 16 23 32 5 5 10 12 14 7
36 34 36 35 31 28 28 30 29 35 49 39 43 49 46 43 40 37 33 28 25 25 27 22 21 26 25 31 24 23 20 14 17 20 24 13 19 27 17 21 15 13 17 18 12
38 37 36 36 33 30 32 28 27 29 39 31 35 42 49 47 44 41 37 32 30 27 28 27 27 30 25 23 27 29 20 26 15 28 18 24 23 22 19 23 18 22 6 10 13
39 38 37 35 35 32 34 27 30 30 28 27 33 33 41 43 43 43 40 37 32 30 33 27 32 32 29 28 23 28 27 27 28 19 24 22 25 26 26 25 23 19 18 16 11
40 38 37 37 34 34 30 26 28 29 16 17 26 30 40 43 42 43 43 43 37 36 34 32 30 33 25 29 28 22 27 22 32 28 33 35 30 28 31 23 24 30 20 23 18
37 38 35 38 36 33 31 30 30 28 20 17 15 17 26 35 40 44 48 48 47 44 39 35 34 29 27 26 31 31 27 24 24 29 17 9 25 25 28 26 26 22 26 26 17
36 36 34 36 38 33 33 35 35 16 27 25 16 11 11 24 32 37 44 48 47 45 39 37 37 30 22 25 26 28 29 28 29 14 4 11 17 23 25 28 28 29 27 30 33
35 35 32 37 39 36 35 38 32 13 35 32 20 10 24 21 27 31 40 43 44 45 42 35 32 25 23 29 28 21 28 20 19 13 19 19 22 17 21 22 26 26 24 29 27
34 32 33 38 40 38 37 35 27 18 42 36 34 22 23 28 26 27 33 41 41 43 40 30 16 26 22 19 25 22 27 25 30 29 22 16 15 22 21 21 24 26 28 27 26
33 29 35 38 39 40 36 31 22 25 46 38 37 29 23 24 27 30 29 33 35 41 38 31 26 23 28 34 32 29 34 25 20 27 16 12 24 24 24 29 26 29 24 20 24
31 27 36 36 38 39 33 27 23 34 49 43 34 27 29 26 34 24 31 27 28 33 43 34 30 27 30 22 20 30 39 25 21 25 23 24 23 28 24 18 23 29 29 23 20
31 27 33 34 37 38 33 29 29 35 45 36 34 39 33 32 36 35 32 30 28 25 38 39 38 35 30 30 29 28 27 22 28 26 31 26 24 26 20 22 24 26 33 28 27
32 30 33 36 35 36 34 30 32 35 45 39 21 31 42 38 32 33 36 35 31 25 26 46 41 37 35 28 38 31 25 28 34 34 26 22 24 30 33 34 32 36 24 28 31
33 34 38 39 38 43 38 31 34 38 39 37 28 35 39 39 35 35 34 39 38 30 26 47 41 38 37 37 36 31 34 32 36 36 30 27 29 42 38 44 43 41 28 30 26
34 32 40 36 30 43 40 33 34 37 43 43 32 33 40 45 29 34 42 39 41 35 34 34 39 36 42 40 39 34 21 23 27 25 32 35 40 46 37 34 46 36 34 29 25
36 36 39 36 31 37 41 39 32 38 46 46 37 29 32 37 35 47 43 39 41 50 42 41 39 47 45 46 47 40 35 29 26 28 30 31 27 35 40 44 50 51 45 33 38

GFSSW_500_spd_012.txt.gz
Wind_Speed
25 26 27 27 25 22 19 15 13 10 10 6 3 1 4 2 3 7 13 17 22 25 26 25 25 18 20 22 20 19 11 8 13 15 16 13 12 17 9 8 10 10 13 11 11
21 26 28 30 30 28 25 21 17 15 12 10 7 3 2 2 3 5 11 14 20 27 27 27 23 18 19 21 18 15 9 18 12 13 16 13 7 7 8 10 8 8 10 10 12
12 17 26 31 33 33 30 28 23 20 16 14 10 8 3 1 3 5 13 17 19 28 26 32 20 22 18 14 11 12 17 6 7 6 18 10 8 12 6 7 7 8 9 9 10
17 16 15 25 31 35 36 34 30 24 22 18 14 11 8 4 6 7 9 16 18 26 26 31 23 25 18 11 10 12 8 8 10 14 17 13 19 11 6 6 8 8 9 9 9
20 20 18 17 22 32 36 37 35 29 27 23 19 16 13 10 3 6 8 14 16 25 29 34 26 27 24 11 6 10 6 9 15 18 12 8 13 8 7 7 7 8 9 9 9
23 22 22 21 20 20 33 36 37 34 31 29 24 20 18 14 12 8 9 14 19 31 34 34 27 29 24 14 15 5 4 10 11 8 7 3 2 5 7 7 5 7 10 11 11
25 24 23 24 24 22 20 34 36 38 35 33 29 25 23 17 15 10 11 15 23 29 37 36 28 28 26 17 10 13 15 9 14 10 16 7 8 5 8 7 5 6 7 10 13
25 26 27 25 25 25 24 21 36 38 39 38 35 31 27 23 18 17 14 13 22 27 35 41 34 31 30 28 22 19 18 5 13 13 12 9 10 4 4 5 4 3 7 8 9
24 24 25 28 28 27 27 25 24 38 40 40 39 37 32 29 27 23 19 18 20 29 31 38 38 33 31 26 28 29 20 12 6 1 6 3 12 8 6 2 4 2 5 7 6
22 23 24 26 27 30 29 28 29 28 42 39 41 41 39 36 35 29 23 25 23 31 33 31 34 32 30 27 24 20 15 13 3 13 13 5 6 4 5 14 5 3 1 1 3
26 25 26 27 26 28 34 32 35 31 33 42 42 44 44 41 37 33 30 29 32 32 30 31 32 27 19 21 19 19 13 3 5 14 16 10 11 12 5 13 2 5 3 1 3
30 28 29 29 29 28 33 37 35 34 23 30 39 43 48 46 44 41 38 35 34 28 30 32 30 23 18 26 29 26 23 17 7 12 20 21 15 9 13 4 4 3 5 5 5
34 30 30 29 30 31 33 34 37 35 30 24 40 41 45 49 46 45 41 36 32 32 27 27 24 28 25 31 29 27 26 23 6 14 21 23 23 17 13 12 4 7 9 11 2
35 33 33 34 32 33 35 33 36 37 32 19 31 35 44 47 48 48 45 40 37 34 29 29 32 37 33 31 31 31 21 8 14 20 26 23 25 20 17 16 8 12 16 13 11
35 34 34 32 32 34 34 32 34 37 28 22 26 37 37 44 42 45 47 46 40 35 36 29 37 37 38 30 36 29 21 16 20 23 23 26 27 19 19 18 10 15 8 6 9
39 39 36 34 29 34 35 33 34 35 21 20 18 25 33 34 45 46 50 51 43 41 40 35 36 38 34 34 41 34 24 26 27 27 31 26 23 25 28 19 19 21 15 9 12
39 43 37 32 32 31 33 36 35 34 19 19 14 8 15 21 36 45 47 54 53 50 48 42 42 41 37 42 45 41 32 35 36 40 40 29 31 24 29 29 22 24 16 16 13
39 42 37 31 37 32 35 38 39 27 16 20 26 25 19 8 21 33 43 50 53 50 49 46 47 46 44 44 39 37 34 37 41 41 37 22 30 16 14 21 19 27 20 17 10
40 41 36 36 38 35 34 40 33 20 22 32 26 28 23 15 7 13 36 44 50 54 52 49 47 43 45 43 37 40 42 35 34 25 29 26 21 9 16 19 18 17 19 22 20
40 39 40 38 35 37 35 35 29 20 32 40 34 32 30 27 23 21 14 37 43 50 48 45 46 43 39 35 33 33 33 36 35 31 30 26 18 21 16 22 15 18 18 22 22
40 37 44 37 36 38 33 30 27 25 35 49 43 40 30 33 32 35 24 16 34 44 47 41 41 40 38 39 33 28 31 30 26 30 35 24 19 21 18 23 17 19 23 24 22
39 36 37 39 36 36 34 31 30 30 35 51 51 44 33 36 34 36 34 23 25 33 45 43 41 44 43 35 29 23 34 32 34 32 33 31 28 27 23 24 18 24 16 18 25
38 33 40 38 36 33 34 36 37 34 39 54 53 47 39 35 34 25 23 35 27 27 38 41 45 43 43 39 28 34 34 32 31 33 31 29 31 29 27 30 26 22 20 22 24
38 35 43 41 35 36 38 39 38 36 43 48 57 45 44 43 23 27 30 39 41 32 24 24 47 46 46 38 33 28 28 30 34 36 34 34 33 32 33 29 33 36 36 30 26
39 39 36 41 37 36 40 41 40 39 45 42 61 49 51 37 34 38 33 36 41 33 22 20 49 47 45 37 36 40 40 30 30 35 33 27 29 36 38 34 33 34 37 36 31
41 39 38 39 40 37 37 41 44 42 47 42 56 62 38 36 37 37 40 40 33 34 39 31 33 49 50 40 33 29 37 41 29 35 30 31 34 32 32 33 33 34 36 43 43
47 45 42 40 42 41 39 40 43 45 45 46 52 64 59 43 42 42 44 41 42 34 38 43 38 49 51 40 34 35 38 46 44 50 42 38 40 34 38 35 37 43 45 50 43

GFSSW_500_spd_015.txt.gz
Wind_Speed
20 24 26 27 26 24 22 19 15 12 11 9 6 3 3 3 5 10 14 18 19 23 23 22 20 13 11 12 10 6 4 17 23 23 15 16 19 17 11 11 6 8 10 7 5
13 19 24 28 29 29 27 23 20 17 15 13 9 6 2 4 7 12 11 9 19 25 27 22 16 18 22 19 17 14 12 13 18 22 17 15 19 13 9 11 8 7 7 6 5
15 14 16 23 28 32 32 30 27 22 19 17 13 11 7 5 6 5 12 15 21 24 28 26 26 21 18 14 14 14 10 13 13 18 8 7 14 12 10 10 9 6 8 8 8
19 19 17 17 20 29 33 34 32 29 24 21 18 15 12 9 9 9 12 17 21 29 27 26 22 20 16 21 21 11 3 7 14 11 9 10 12 8 7 8 9 7 9 9 9
21 21 21 21 19 20 27 34 36 36 34 27 23 19 17 14 7 9 6 15 17 27 26 26 25 20 14 13 11 12 4 6 13 7 9 12 14 9 9 8 7 7 8 9 9
23 22 23 23 24 22 22 24 35 37 37 32 29 24 22 18 14 8 7 12 19 26 31 29 24 20 14 11 7 10 8 12 16 12 16 15 13 9 10 8 6 6 7 9 10
23 24 24 23 23 25 26 24 24 36 38 36 33 31 26 23 17 12 11 17 25 29 33 33 27 25 20 14 17 11 13 14 19 15 14 11 9 6 9 10 7 6 7 9 10
23 23 24 25 24 25 26 28 27 24 37 39 36 36 33 25 23 21 16 17 26 29 38 42 34 31 27 23 19 15 19 15 13 12 7 7 9 6 5 8 8 4 5 7 9
28 25 23 22 22 26 28 27 30 28 24 36 38 39 38 33 33 28 23 25 28 30 34 37 39 32 31 24 20 16 18 19 12 7 5 6 9 7 10 7 6 5 1 4 6
29 28 27 25 24 25 29 30 29 27 24 24 37 39 41 39 38 35 32 31 31 35 39 35 39 37 36 28 17 12 22 22 10 6 6 3 3 7 2 11 1 2 1 4 2
32 33 31 31 28 28 32 31 29 28 26 27 26 42 43 43 42 40 36 36 37 38 38 36 34 32 30 28 23 18 20 13 7 4 5 7 6 7 11 5 3 4 3 1 3
31 32 35 36 31 31 33 35 30 31 25 29 28 34 47 47 45 44 42 39 40 36 35 38 31 29 33 31 29 25 20 18 12 5 6 7 7 3 7 1 4 4 1 3 6
34 35 35 35 35 35 36 37 34 33 30 20 33 26 46 51 47 47 46 45 40 38 36 31 28 37 34 30 31 28 21 18 8 8 15 17 12 2 3 3 2 3 3 6 5
32 38 37 35 35 35 38 37 36 35 32 24 32 30 34 47 51 51 49 48 45 40 39 34 37 42 38 31 28 34 24 20 20 17 16 18 18 12 6 9 9 2 3 11 7
33 32 39 38 36 39 36 36 37 36 33 23 27 28 32 43 35 49 47 50 48 45 44 38 35 41 40 31 30 32 27 26 21 18 20 23 26 14 17 11 1 4 4 8 5
36 35 37 40 35 41 38 35 37 36 28 21 22 26 28 37 37 45 49 50 47 50 47 43 39 44 43 33 37 32 35 33 28 24 30 27 27 21 15 7 5 5 2 3 10
37 38 37 40 39 41 40 37 37 37 21 21 21 26 28 30 32 42 49 54 56 58 56 49 47 48 46 44 45 41 40 38 36 36 37 29 32 15 6 6 6 9 10 5 8
37 40 40 42 46 43 40 40 41 29 18 20 19 24 25 32 26 31 42 49 52 54 55 52 53 50 52 50 49 46 46 44 41 30 32 36 40 7 13 17 12 9 11 5 0
38 40 41 43 44 43 41 45 40 26 20 22 24 26 25 32 27 26 31 37 45 51 56 55 52 53 56 50 47 52 55 45 44 37 39 38 38 23 23 20 19 13 17 6 4
39 42 43 45 46 43 46 45 38 26 24 27 35 37 31 29 32 32 31 29 31 40 48 53 53 53 54 56 53 58 55 51 51 45 47 43 41 39 26 22 16 15 15 9 10
43 42 45 45 47 48 48 43 34 28 31 33 39 47 42 36 35 38 37 32 25 22 33 48 53 50 55 58 57 60 57 57 51 46 42 33 35 34 31 27 18 15 19 12 16
45 43 43 47 47 47 44 40 35 34 36 39 41 51 47 44 40 39 38 32 23 25 33 39 49 48 54 56 56 63 60 53 51 48 44 38 37 26 24 21 17 20 15 12 10
47 43 45 48 49 46 44 45 43 41 44 48 41 52 52 49 48 42 36 36 37 37 32 33 45 50 50 55 57 59 54 47 38 35 37 33 35 36 31 27 24 25 24 22 22
45 46 47 48 48 46 45 46 42 41 47 48 42 46 59 57 50 50 43 43 39 32 25 24 37 50 52 49 53 52 46 35 35 37 37 36 30 27 31 33 32 30 27 23 24
46 46 48 50 47 46 46 44 40 45 49 46 45 44 57 62 57 53 42 44 39 36 34 34 33 37 48 47 53 47 39 35 37 30 34 29 28 29 32 30 32 31 29 24 21
50 47 45 49 51 46 46 45 42 45 48 44 46 47 49 66 60 46 50 50 36 29 36 40 35 25 43 46 55 48 42 37 39 32 29 27 29 27 28 28 30 30 28 28 23
51 48 47 46 50 48 46 46 42 45 44 45 46 46 46 51 64 54 42 50 33 37 37 39 38 34 36 47 54 56 45 42 41 38 35 38 33 35 32 33 30 29 31 32 29

GFSSW_500_spd_018.txt.gz
Wind_Speed
13 16 21 24 25 25 22 20 18 14 12 11 8 5 6 3 5 9 9 14 12 18 20 19 16 12 11 5 5 14 19 22 20 18 19 19 15 16 16 16 12 12 10 10 4
15 14 15 18 23 27 27 25 22 20 16 15 12 10 6 5 6 12 4 2 10 17 21 20 18 12 12 14 9 11 13 13 13 13 13 16 13 13 13 15 11 10 9 8 4
16 18 18 17 17 20 26 29 28 25 22 19 17 13 11 8 7 7 8 11 16 18 23 20 18 14 16 15 13 12 12 6 9 9 11 12 12 12 12 14 11 8 8 7 6
20 18 18 20 20 19 20 25 29 31 29 25 21 18 15 12 11 9 10 14 17 21 24 22 21 18 15 13 15 11 6 3 8 13 12 12 10 13 12 11 11 7 10 8 7
21 22 21 21 21 22 22 21 23 29 32 31 28 23 19 17 12 10 11 13 16 21 27 24 25 21 20 23 18 14 6 6 11 13 14 13 13 12 11 9 9 8 8 10 11
22 23 23 21 23 23 23 24 23 23 29 33 34 29 24 24 16 14 11 12 18 22 30 27 28 26 24 24 16 13 9 13 15 17 18 16 15 12 11 8 8 8 7 10 11
25 23 25 25 23 23 26 24 25 26 23 26 33 33 29 30 23 20 14 16 21 24 29 32 31 29 26 20 18 14 14 14 19 17 18 16 17 15 11 8 7 6 6 7 10
24 28 28 25 25 24 25 24 25 24 24 24 25 33 32 30 29 27 21 21 25 28 37 39 36 33 30 25 18 17 19 14 16 16 15 15 17 16 9 8 6 4 3 4 6
27 28 29 28 27 27 29 24 23 25 23 24 25 29 36 33 35 32 28 26 27 31 38 37 33 35 31 25 16 17 17 18 14 12 14 16 13 10 7 5 7 4 2 1 2
27 26 28 30 30 30 33 31 25 23 25 26 24 25 33 35 39 36 34 33 32 33 37 38 34 33 31 24 13 16 19 19 15 13 10 9 9 8 1 4 8 4 3 2 1
29 30 30 31 29 31 35 37 31 27 26 27 25 27 26 37 42 41 40 39 37 35 34 33 33 24 24 18 21 17 20 18 16 18 13 8 5 4 6 2 6 6 4 3 1
30 29 30 31 33 35 35 36 36 33 25 29 29 25 34 31 41 45 46 44 42 38 35 35 29 30 32 30 21 19 24 25 18 15 11 9 6 4 2 3 3 3 6 4 2
32 31 31 32 33 35 35 36 36 36 32 20 34 28 30 36 35 44 48 46 46 43 39 35 29 38 39 32 25 21 25 27 17 13 14 11 12 8 2 4 4 2 2 3 2
36 34 33 34 32 33 36 37 37 36 35 22 30 34 33 35 30 41 50 49 50 48 43 40 40 44 42 37 30 21 15 26 25 22 16 14 12 10 6 6 6 2 2 6 3
38 36 34 34 37 36 35 36 40 40 34 24 29 30 33 36 29 39 45 52 52 51 49 44 44 48 45 37 31 23 16 25 25 22 21 21 22 14 14 12 6 6 3 7 3
41 39 35 35 39 39 36 37 37 41 38 27 27 30 27 32 28 38 46 50 52 56 56 52 50 52 47 40 38 26 29 29 32 33 36 22 23 16 15 5 10 6 2 6 9
46 45 43 38 40 40 40 38 39 42 36 30 26 30 29 30 27 35 47 52 57 60 63 58 54 54 55 50 48 40 39 42 41 42 43 28 26 9 9 10 7 2 5 10 12
47 46 45 42 40 42 42 42 40 38 39 28 30 32 30 30 26 33 44 49 54 56 59 62 63 57 57 56 51 43 40 45 46 43 40 36 28 13 9 12 11 10 10 13 11
49 46 44 43 40 45 45 46 40 39 37 28 31 31 30 30 26 34 44 44 51 53 58 62 63 61 59 56 54 51 49 46 48 47 45 43 40 27 17 16 18 18 18 19 14
52 50 48 47 44 45 46 40 45 41 39 30 33 35 33 35 34 38 45 45 46 47 50 54 57 62 64 61 59 57 51 51 54 53 52 50 44 30 22 21 21 17 16 19 17
55 50 52 49 47 48 48 45 46 44 40 36 36 40 39 39 41 44 45 48 46 43 41 48 55 57 65 69 61 65 63 58 56 56 54 51 48 38 26 26 22 20 22 17 16
60 56 54 50 51 50 47 51 50 45 42 42 43 46 44 44 46 46 44 48 45 43 44 47 48 57 57 60 63 64 67 61 61 59 58 54 47 40 25 19 24 28 25 23 14
64 61 57 50 50 50 49 50 52 49 46 48 50 50 49 53 54 51 48 44 42 41 45 44 52 54 54 54 60 68 69 67 64 60 63 57 52 41 30 26 29 32 30 23 18
60 53 53 48 49 51 52 52 53 50 48 51 53 49 54 53 58 56 52 45 41 43 42 43 53 54 62 59 57 66 70 71 64 64 62 57 50 38 29 31 33 31 27 24 21
53 50 47 47 49 53 56 54 53 50 50 51 54 50 51 52 56 59 54 47 41 43 44 44 47 52 52 52 51 57 63 67 63 62 64 50 48 37 28 27 31 21 23 24 25
49 47 46 47 50 52 56 54 51 52 49 49 54 48 50 54 52 57 56 50 46 44 43 44 45 44 48 47 48 55 60 68 64 65 64 54 45 25 24 24 22 23 26 27 28
49 50 51 48 51 55 55 56 51 50 50 47 51 47 48 50 51 52 60 56 50 52 47 44 43 40 43 42 47 55 56 61 60 61 52 46 36 27 23 24 25 28 28 24 24

GFSSW_500_spd_021.txt.gz
Wind_Speed
12 13 13 15 17 20 21 20 18 17 13 10 8 6 5 5 4 5 10 10 11 17 18 17 14 11 14 19 17 16 17 15 14 15 13 14 14 15 16 17 12 11 7 14 9
16 15 15 15 15 15 19 21 22 21 19 15 12 9 8 7 6 7 2 7 9 16 18 18 16 13 11 13 12 11 13 13 9 11 12 12 12 13 14 16 12 11 11 11 8
18 18 19 18 18 17 16 17 20 23 23 20 16 14 12 11 10 6 6 9 12 15 21 19 16 14 8 12 15 15 9 9 8 7 12 12 11 11 12 14 13 8 9 9 8
19 18 17 18 20 20 19 18 18 18 24 25 23 19 15 16 15 10 7 12 14 16 21 20 17 15 12 17 17 12 7 6 8 10 11 13 13 12 12 13 13 9 8 11 9
19 19 21 21 19 19 21 20 20 19 18 23 26 25 21 19 21 11 13 14 16 18 21 23 21 16 18 22 18 10 7 6 11 11 11 13 14 13 12 12 12 9 6 12 13
18 17 19 21 24 22 20 19 21 21 20 19 21 27 24 27 21 20 15 12 17 21 24 26 22 23 21 18 19 15 8 9 12 15 14 14 14 14 12 9 10 9 8 10 14
19 19 21 20 22 24 22 19 18 21 21 21 21 20 28 32 26 27 20 16 17 21 27 29 28 25 20 22 20 16 14 14 14 17 15 14 16 15 13 9 8 8 9 9 12
21 22 25 23 21 21 23 24 22 19 20 22 22 22 23 31 31 31 25 21 21 25 30 35 32 30 27 23 23 19 15 16 17 18 17 14 15 13 12 11 8 6 7 7 8
22 22 24 24 23 24 25 24 24 23 22 21 22 22 24 23 32 33 32 28 26 31 32 34 33 34 33 29 25 19 17 20 18 18 17 14 11 12 10 9 9 8 7 5 5
24 24 26 26 26 27 27 25 24 23 25 24 23 24 25 23 33 35 37 34 32 33 34 34 35 30 31 34 28 17 17 19 18 18 17 15 10 9 9 9 8 7 6 5 5
28 28 28 29 26 28 28 28 28 25 25 26 26 24 28 24 27 35 41 39 37 37 34 32 31 25 21 21 24 20 19 19 21 21 21 18 15 11 8 9 8 8 7 4 3
34 32 32 31 30 29 28 30 30 27 25 27 28 26 30 29 26 31 40 44 42 40 37 37 30 30 31 28 27 23 26 23 23 21 20 20 17 14 10 8 7 5 7 6 2
38 36 35 35 33 33 32 29 29 28 27 25 30 31 28 31 26 31 37 45 45 44 42 40 33 37 36 29 28 28 24 29 23 23 22 19 17 15 11 13 10 8 5 3 4
41 39 40 40 37 36 37 34 33 30 29 24 30 31 33 30 26 33 33 42 48 47 46 45 40 41 39 36 28 24 22 30 31 29 20 22 17 18 16 15 11 8 7 5 7
43 44 40 40 41 39 37 38 38 34 34 28 30 31 29 32 27 31 35 40 47 50 51 49 43 44 45 38 30 25 25 26 31 30 30 26 26 20 20 18 16 11 5 3 6
46 46 44 44 44 42 40 39 40 39 36 34 28 30 30 30 30 29 38 38 45 48 53 53 49 51 46 42 40 34 29 28 33 38 42 32 29 23 18 13 17 18 8 5 7
53 53 51 47 47 46 44 41 42 43 37 37 33 33 33 33 34 29 33 40 42 53 57 57 55 54 50 53 50 44 41 40 38 43 45 33 32 17 16 16 18 19 13 12 14
54 55 55 52 49 48 48 47 46 43 40 41 40 35 34 33 37 33 32 39 41 52 55 57 60 56 60 57 54 48 45 47 45 41 35 33 28 16 13 23 23 19 14 18 14
57 57 57 57 52 51 54 53 47 42 43 44 37 36 36 36 36 35 31 36 40 46 58 59 61 61 64 59 56 56 54 45 44 43 39 39 30 24 19 23 24 18 17 14 16
60 61 61 59 57 53 55 54 50 44 44 46 41 40 39 40 37 36 31 33 40 42 52 58 58 64 65 65 62 60 52 53 52 53 52 48 40 27 25 19 23 25 23 18 19
67 63 64 63 60 57 59 57 50 48 48 51 47 41 42 43 41 38 37 34 38 40 48 54 59 60 74 73 69 67 66 63 58 55 52 51 47 32 25 19 22 22 28 25 24
65 64 62 60 58 58 54 54 53 51 52 54 54 45 45 47 47 44 41 38 38 43 46 52 54 60 65 77 74 71 68 63 61 59 58 56 52 40 30 26 21 18 32 29 21
59 60 61 61 60 59 58 57 55 53 54 55 55 50 45 50 51 49 43 41 42 44 46 46 52 55 60 65 78 79 75 70 70 65 64 61 55 47 37 34 15 16 28 28 25
56 54 54 56 58 57 57 57 56 55 55 56 55 52 49 52 54 52 46 42 42 43 43 46 51 54 59 64 63 73 78 78 75 76 70 67 58 52 41 38 27 21 29 26 29
54 55 56 55 54 55 56 55 56 56 57 57 55 53 50 51 52 54 52 46 45 40 42 48 52 52 55 56 59 61 66 75 79 74 74 66 60 50 43 43 42 34 33 26 29
55 54 50 50 51 51 52 54 57 59 58 59 56 53 52 52 53 55 55 50 44 41 38 44 47 48 51 51 54 59 62 63 71 71 72 64 61 52 48 45 40 33 30 21 24
51 55 54 49 47 49 51 53 55 58 59 57 55 54 51 51 52 53 55 54 52 48 44 46 46 46 49 41 44 56 55 58 61 65 66 66 56 54 50 38 32 34 31 24 23

GFSSW_500_spd_024.txt.gz
Wind_Speed
15 15 15 15 14 13 13 14 15 16 14 11 9 7 6 3 4 4 7 7 16 21 22 20 14 18 17 18 15 13 12 5 10 12 12 11 11 13 13 14 12 6 8 15 11
14 14 14 15 16 16 15 13 14 16 17 15 14 11 9 8 6 4 4 9 12 22 22 20 23 20 19 16 11 10 11 6 6 7 10 11 11 11 12 12 13 11 9 13 13
13 13 13 14 14 15 16 16 16 13 15 18 18 15 12 13 10 6 6 9 15 19 25 27 22 20 18 14 10 10 10 7 5 6 7 9 11 9 9 11 10 10 13 13 12
13 12 13 15 16 17 16 16 16 17 14 14 19 20 18 16 17 11 9 8 13 17 22 24 20 15 13 17 16 15 9 9 8 9 7 8 10 9 8 10 11 8 8 13 13
13 13 14 14 15 16 15 16 16 16 17 15 15 18 22 21 22 13 12 12 13 18 19 22 20 18 15 19 22 16 11 7 9 10 10 9 9 9 8 8 11 10 7 14 15
14 14 13 15 17 17 16 13 15 17 17 18 16 15 19 27 22 20 17 14 12 18 22 24 20 20 21 24 24 16 11 7 9 12 12 12 10 11 10 9 9 12 9 11 15
16 16 17 17 18 17 15 15 17 17 18 18 18 15 19 20 26 25 22 18 15 19 22 28 27 23 21 24 25 19 12 9 12 14 14 13 11 10 11 9 10 10 10 9 11
14 15 17 17 18 19 18 18 17 17 17 18 18 18 20 18 20 26 28 24 21 21 26 31 31 27 27 26 22 20 15 11 14 17 14 14 11 11 11 12 11 9 9 9 10
19 19 19 17 18 19 20 20 20 19 18 18 19 19 20 21 18 25 30 30 27 25 28 31 34 31 29 25 24 20 14 14 17 19 18 15 15 12 12 13 13 11 10 9 11
24 25 26 23 23 23 22 21 21 20 20 20 19 20 21 19 20 20 28 33 32 30 31 33 36 30 31 31 27 19 15 17 19 20 18 16 14 13 13 14 13 13 12 10 9
30 30 31 28 28 27 26 25 23 21 21 23 23 23 21 20 20 21 22 32 36 36 34 34 33 29 26 29 24 21 18 18 20 22 21 19 16 15 14 13 12 12 13 10 9
34 33 35 34 34 32 30 29 27 26 22 24 24 21 25 22 19 20 23 27 36 38 39 38 33 33 33 33 32 28 23 22 23 25 24 21 19 17 15 14 14 10 8 8 7
39 39 37 36 36 36 35 33 31 30 29 27 26 25 25 24 23 22 22 26 31 41 42 38 35 39 39 35 35 33 30 26 24 27 27 26 24 20 16 16 15 13 11 11 8
39 39 38 40 40 38 35 37 37 35 34 30 33 31 28 27 25 26 24 25 30 36 42 44 44 45 39 37 34 34 29 31 28 31 29 26 20 19 19 19 17 14 12 11 9
42 45 44 43 44 43 40 39 39 37 38 35 34 32 31 30 28 26 26 27 27 31 44 47 45 42 45 40 37 32 36 37 30 32 28 29 29 23 25 22 19 17 15 13 11
44 45 47 48 48 47 47 45 42 42 46 39 34 35 32 30 30 31 28 26 28 34 37 45 49 50 47 46 41 36 39 42 35 33 38 32 31 25 23 19 21 21 20 17 16
51 49 48 51 52 51 51 50 48 48 44 42 37 37 37 36 36 35 33 33 28 29 36 42 51 51 52 52 50 46 42 39 38 39 37 33 40 34 25 20 20 23 20 19 19
53 50 50 52 53 54 54 55 54 52 44 46 44 40 39 38 37 37 37 36 34 31 36 39 49 53 55 56 52 50 45 41 40 35 34 39 38 33 27 25 28 30 25 23 22
56 55 53 56 58 57 58 60 57 53 52 47 46 47 46 44 41 41 41 40 37 34 35 39 43 47 57 58 57 54 58 45 33 33 34 31 35 36 31 28 30 32 30 23 19
60 60 60 61 62 62 63 60 60 57 53 51 51 51 49 47 46 46 45 43 40 37 36 38 42 47 54 59 59 61 51 54 46 42 40 36 32 28 29 29 32 30 27 22 18
70 65 63 64 67 69 67 64 63 64 58 56 54 54 52 51 52 47 45 46 41 39 36 36 40 41 53 60 61 65 67 60 46 45 40 36 35 30 32 32 32 25 25 24 25
74 70 65 65 68 71 69 69 70 68 63 62 58 57 56 51 55 48 48 46 47 43 41 38 35 43 48 54 59 64 68 67 61 54 47 44 36 26 28 35 33 29 24 26 31
66 66 64 62 65 67 68 70 71 70 66 62 60 60 58 54 53 50 51 51 49 43 43 37 41 35 42 43 53 63 62 68 60 60 53 48 44 35 35 32 30 27 24 25 28
58 61 63 64 66 66 67 70 68 69 64 63 61 62 62 57 53 53 52 52 51 47 45 42 41 41 39 44 45 62 67 64 55 58 55 54 38 38 39 46 34 26 21 17 24
57 61 61 59 58 62 63 66 67 68 66 63 63 62 61 57 55 52 54 53 51 48 44 45 44 44 42 35 34 39 49 69 73 69 61 52 52 48 44 42 36 35 31 26 20
57 53 54 53 52 56 57 60 63 64 67 66 62 59 58 57 56 51 55 57 52 49 48 47 46 44 43 41 42 38 41 44 54 76 78 74 70 48 47 54 47 36 36 32 25
44 50 51 50 50 47 52 53 57 62 62 59 65 66 64 59 61 59 61 62 56 54 53 49 48 43 44 36 37 41 42 42 49 60 64 73 71 67 68 59 46 39 38 33 26

GFSSW_500_spd_027.txt.gz
Wind_Speed
11 11 11 11 11 12 11 10 10 12 14 12 10 8 8 6 4 4 6 10 20 25 26 21 18 14 16 16 18 20 16 11 7 4 6 6 6 7 8 10 9 7 6 11 13
11 11 10 11 12 12 13 12 11 11 10 13 15 13 11 10 8 4 5 12 19 26 27 25 18 20 18 16 18 12 21 2 7 10 8 6 7 6 6 6 8 8 8 12 14
11 10 10 11 10 12 13 14 13 11 11 11 13 16 16 14 12 2 6 13 17 25 29 25 23 22 18 15 13 12 14 12 10 8 8 5 7 7 7 6 4 8 10 12 13
11 10 11 12 12 12 12 13 14 12 11 12 13 12 18 18 17 11 8 10 16 25 26 24 25 23 18 14 10 9 7 9 8 10 6 6 8 7 7 7 9 5 9 14 14
11 11 11 10 11 12 11 11 11 12 12 12 13 14 13 20 19 12 11 12 15 20 25 27 25 22 18 18 11 12 5 8 8 7 7 8 8 7 6 6 8 8 7 13 14
12 11 11 12 12 12 12 11 11 14 13 13 12 14 16 13 18 18 17 14 16 20 24 28 27 21 21 22 15 16 14 13 10 10 12 9 7 7 6 5 7 8 10 12 14
15 13 12 12 12 11 11 12 14 15 14 14 14 14 14 14 13 21 21 19 17 19 23 25 29 28 23 25 20 19 21 13 9 12 12 11 8 8 7 5 6 9 11 12 13
17 17 17 16 16 13 12 13 13 14 16 15 15 14 15 12 15 14 23 24 21 21 24 28 32 26 28 24 21 22 18 10 13 13 15 9 7 7 9 8 9 9 10 12 13
23 24 22 21 21 20 18 17 15 15 17 16 16 15 14 14 13 15 15 23 26 25 26 30 35 29 29 28 23 27 15 13 19 16 17 13 11 8 11 10 9 9 9 11 11
28 28 26 24 25 25 25 25 23 19 17 18 17 17 15 15 13 12 14 17 25 30 30 30 31 35 34 30 28 19 18 14 19 21 21 17 12 17 12 10 10 10 10 10 9
31 31 31 29 28 27 29 28 28 25 23 22 19 19 17 13 14 14 12 15 20 30 32 29 33 28 28 26 25 20 17 20 19 29 21 18 16 15 13 13 13 12 10 10 9
33 32 34 31 30 31 32 32 30 30 25 28 26 21 21 16 15 17 16 15 16 21 33 37 36 30 30 28 29 26 23 20 15 29 22 18 17 17 17 15 13 12 12 10 9
32 30 32 34 33 34 35 34 34 33 30 29 31 27 27 22 19 18 18 19 18 21 27 34 33 32 34 35 34 30 26 23 22 26 30 20 19 22 22 18 18 16 15 14 13
36 36 34 37 35 35 35 36 38 37 37 32 33 33 30 28 27 24 22 22 23 21 23 30 35 38 38 39 37 35 30 26 25 35 22 26 21 27 21 22 20 19 17 15 14
43 41 38 36 39 38 37 38 39 40 40 43 34 31 32 30 33 29 28 27 24 23 27 26 33 39 43 39 39 35 29 29 27 34 17 26 25 21 21 21 21 19 19 18 17
45 46 47 46 45 45 43 42 42 44 47 45 42 36 32 31 32 35 31 30 29 29 29 28 29 39 44 45 43 35 31 31 31 31 36 28 31 24 30 19 20 19 21 21 20
52 50 49 50 51 49 49 48 47 48 47 48 45 40 39 37 36 36 34 34 31 31 31 28 32 36 45 48 45 43 36 37 37 40 40 30 38 27 24 31 20 21 24 25 25
58 57 55 53 54 54 52 53 53 51 49 53 50 46 41 39 41 40 40 41 38 35 34 31 34 34 40 47 47 51 47 44 43 36 32 32 38 35 29 23 16 22 18 24 30
65 62 56 56 54 55 56 55 53 51 53 53 53 50 49 46 45 45 43 42 40 38 37 35 34 32 36 41 49 49 55 43 38 32 33 31 32 35 35 36 34 30 24 24 32
69 64 62 62 58 59 60 58 57 56 57 57 59 54 48 50 50 47 50 46 45 44 39 35 29 33 34 39 47 53 43 48 49 45 41 36 34 33 35 39 33 34 28 23 27
82 74 69 58 61 65 64 58 63 64 64 64 61 60 55 44 44 50 49 44 48 48 45 40 39 30 33 42 43 52 58 49 46 48 44 39 34 31 29 27 29 31 29 20 21
81 73 73 59 59 64 63 65 69 70 70 70 68 67 62 46 41 39 42 37 32 47 52 45 41 40 38 36 36 41 47 50 52 51 50 44 37 31 30 30 25 23 21 21 17
73 66 58 59 60 64 66 69 74 75 76 74 77 73 65 59 46 44 41 37 44 53 45 41 44 37 38 35 39 45 50 51 52 44 53 48 46 29 25 29 24 30 37 32 31
57 55 53 56 58 64 68 74 79 77 77 81 79 76 68 65 65 59 51 39 42 59 51 49 41 49 43 40 31 37 42 46 49 58 51 53 43 38 38 29 35 39 37 34 32
49 50 52 50 47 58 69 73 75 80 85 76 77 73 68 66 66 67 63 47 46 51 54 53 53 43 46 34 30 32 37 40 49 54 55 48 46 45 38 38 34 32 45 35 28
37 38 41 46 50 47 47 54 62 68 61 75 62 54 52 64 63 63 55 55 44 50 56 51 52 47 39 37 37 34 36 38 43 48 48 49 48 45 43 37 33 42 44 36 41
32 31 31 30 37 42 42 47 52 56 67 60 49 57 57 45 49 57 49 46 50 42 46 53 49 49 49 35 33 39 40 38 37 37 45 53 53 46 47 50 46 47 41 40 40

GFSSW_500_spd_030.txt.gz
Wind_Speed
8 9 8 9 9 9 8 8 7 6 7 12 13 12 10 7 4 3 8 11 16 20 19 18 15 15 16 18 16 6 10 18 13 16 16 11 4 8 7 7 7 10 8 7 8
9 9 7 8 9 9 11 11 8 8 7 6 13 15 14 11 7 3 5 11 17 18 19 18 16 16 19 16 9 18 20 15 17 5 19 11 9 5 6 6 10 8 8 5 8
9 10 10 10 11 11 11 10 10 9 8 8 7 11 17 15 9 3 7 10 15 18 18 19 17 17 21 17 13 15 14 9 17 11 22 10 9 7 5 6 7 5 7 6 7
10 10 10 10 10 11 12 11 8 8 10 8 8 9 9 17 14 11 8 11 15 18 19 19 18 18 20 18 6 20 1 8 9 13 17 7 5 7 5 8 7 5 4 8 10
12 11 10 10 11 11 12 11 10 10 11 10 9 8 9 8 15 14 11 12 15 19 20 21 18 19 17 16 14 19 7 7 13 7 8 14 9 4 9 7 7 7 7 9 12
13 12 12 11 10 10 10 11 11 12 12 11 10 10 8 7 8 17 17 16 15 18 26 24 21 21 20 17 16 9 17 6 18 9 7 13 16 5 6 7 6 4 6 10 11
18 17 15 13 13 12 12 10 10 11 12 12 12 11 8 7 7 9 18 20 19 17 23 30 28 29 20 18 19 14 9 13 22 10 12 12 18 11 4 5 4 3 6 9 11
24 23 21 20 20 18 17 15 13 13 14 14 13 12 11 8 5 7 8 21 22 22 21 27 37 34 30 22 24 19 15 19 13 9 15 8 21 10 5 5 4 4 6 9 11
25 25 25 23 23 21 21 21 20 21 20 18 17 13 13 11 8 7 7 10 25 25 24 27 33 34 32 30 26 19 19 17 25 12 15 13 21 13 11 7 5 6 8 10 11
25 27 27 25 25 25 24 24 23 23 23 24 20 18 14 14 8 6 7 9 14 28 28 27 30 31 33 33 29 16 20 18 23 21 15 23 18 24 14 9 7 8 10 10 9
24 28 30 29 28 28 27 26 25 26 25 27 23 22 18 17 12 11 8 10 10 18 31 28 32 27 31 28 24 18 17 10 30 27 14 21 24 19 3 4 9 10 10 10 9
25 26 31 32 31 32 32 30 27 28 23 27 27 22 24 20 16 16 14 12 11 12 21 32 33 25 27 31 28 24 24 22 29 32 15 16 23 19 16 13 12 12 11 10 9
37 34 33 34 32 32 34 32 32 30 29 24 28 24 27 27 22 20 19 17 15 15 16 21 23 28 31 31 31 30 31 23 29 25 16 14 13 16 23 19 16 15 14 14 14
39 39 33 39 39 37 36 34 37 36 34 26 33 30 27 27 24 27 25 24 22 17 18 17 24 31 35 34 30 30 31 25 20 27 26 25 22 22 22 22 16 17 16 15 14
46 46 44 40 41 41 42 39 39 38 42 37 34 28 30 33 32 27 29 29 26 22 25 16 22 28 36 34 31 29 33 26 24 23 25 36 31 23 31 31 29 18 19 20 19
50 49 48 47 45 48 47 45 46 45 46 39 41 36 33 30 32 35 33 32 29 32 29 23 22 26 29 33 35 30 31 33 30 27 35 34 35 22 30 32 31 31 17 19 19
54 56 56 55 55 52 51 51 51 52 47 45 44 41 38 38 37 39 35 35 35 34 34 25 26 25 30 35 36 37 34 35 37 39 38 24 38 27 24 34 30 39 23 17 19
59 59 58 57 56 57 55 55 59 54 52 50 46 50 45 43 40 38 42 42 41 38 36 33 33 30 29 34 36 42 40 44 40 39 35 31 39 42 31 33 33 21 21 21 24
68 66 64 61 59 58 57 61 59 57 55 56 52 54 55 51 47 45 46 44 42 40 40 37 36 29 31 31 41 39 47 41 38 33 34 31 31 33 33 29 39 14 25 33 37
74 72 70 66 64 57 60 63 62 57 57 58 59 52 51 41 48 40 48 48 45 44 40 39 34 32 34 34 38 43 35 44 48 46 46 37 37 34 31 34 31 28 25 30 23
85 81 65 71 64 63 62 56 55 58 63 67 66 65 63 42 39 38 43 41 46 42 44 42 42 34 31 45 41 40 46 47 40 50 49 44 41 27 34 32 32 39 43 25 30
90 86 69 69 65 62 63 58 60 58 68 73 74 69 71 65 46 43 44 42 31 35 44 46 46 48 41 34 37 40 41 46 54 50 51 47 45 23 31 29 37 36 28 33 33
82 78 57 60 72 63 59 60 65 68 73 77 77 76 70 68 68 60 50 41 40 39 41 40 50 49 50 43 36 43 42 39 53 49 48 52 53 37 37 38 25 27 20 19 24
59 55 46 49 56 61 62 63 72 77 79 76 76 78 79 77 69 70 63 53 39 42 43 40 45 55 59 52 38 39 43 42 40 50 57 51 48 46 36 42 23 40 23 30 32
44 42 41 44 45 38 44 59 69 77 78 77 81 83 84 84 79 74 69 59 48 47 60 56 60 53 48 42 33 38 37 41 45 50 51 57 46 43 47 36 34 23 26 44 45
34 38 36 36 37 42 42 42 46 55 63 68 69 77 86 86 75 84 78 72 58 50 53 60 64 57 53 39 44 39 39 38 43 44 47 50 49 41 35 46 37 36 39 39 34
26 28 31 30 31 33 39 50 53 43 49 58 66 67 77 83 89 90 87 82 78 62 48 51 59 62 60 50 37 46 49 38 38 39 40 49 54 49 51 46 49 48 31 30 37

GFSSW_500_spd_033.txt.gz
Wind_Speed
7 7 5 6 7 8 8 7 7 7 6 9 13 12 10 7 3 2 6 6 10 13 17 15 14 16 16 13 15 22 26 16 15 12 10 15 14 14 16 5 5 4 6 6 4
7 8 7 8 9 9 8 7 7 7 8 7 8 12 14 11 6 4 3 6 8 10 16 17 18 20 24 21 13 10 10 16 20 10 3 18 15 13 13 11 6 8 3 4 2
9 9 9 9 10 10 10 9 6 6 7 6 7 6 11 14 8 7 6 7 7 10 12 15 18 22 25 23 10 7 17 13 12 7 12 22 23 14 12 10 6 9 4 5 6
11 11 11 10 10 11 11 11 9 7 8 6 6 6 6 7 14 13 10 8 10 10 8 12 16 19 23 22 10 7 6 5 11 13 15 26 13 10 10 8 6 6 7 1 5
12 12 12 12 11 11 11 10 10 10 9 8 7 6 5 5 9 16 13 12 11 11 12 14 15 19 21 19 12 9 11 8 9 11 9 21 21 14 17 15 8 6 9 3 9
15 14 13 14 13 12 12 12 10 9 8 8 8 8 5 4 6 13 18 16 14 13 17 16 17 19 21 19 13 12 3 10 5 5 11 18 12 14 16 11 9 7 8 5 7
17 18 18 17 15 14 15 15 14 12 11 10 10 9 7 5 4 11 13 20 18 16 18 19 24 24 23 22 15 14 10 8 4 17 19 12 13 21 15 7 3 5 2 6 7
19 20 19 17 17 18 17 16 15 16 15 16 13 12 13 7 5 5 10 17 22 20 19 24 27 24 26 19 19 16 15 11 17 16 21 11 21 13 16 8 1 2 2 6 9
20 21 21 20 21 20 20 19 18 18 19 19 17 15 16 11 8 6 6 13 23 25 24 24 28 30 30 29 24 21 16 14 15 27 21 26 19 13 17 19 3 4 5 7 11
22 23 24 24 23 23 23 23 21 21 21 22 16 17 16 13 11 9 7 7 14 26 29 27 27 32 30 31 26 23 20 17 17 14 25 22 13 17 20 18 6 5 7 8 10
22 23 24 23 23 25 28 26 24 25 21 23 17 17 16 17 15 14 10 10 12 17 26 30 30 24 25 24 23 24 26 19 17 28 27 21 23 17 14 11 8 8 6 8 10
29 28 28 29 26 29 29 30 30 31 26 26 24 14 21 19 18 18 16 13 11 12 18 27 25 25 25 26 27 27 25 17 24 35 29 21 22 12 7 10 15 10 7 8 9
36 35 33 36 35 32 33 32 32 33 29 24 30 24 24 21 16 19 22 19 15 14 14 16 16 28 30 30 28 29 25 23 29 32 34 27 16 11 14 9 19 9 6 6 9
40 40 39 37 41 37 39 32 39 37 38 24 33 30 27 27 23 22 21 24 25 18 19 16 18 25 32 33 29 28 23 26 28 20 25 20 13 14 18 11 7 8 4 7 9
45 44 42 43 45 46 44 41 40 39 47 36 36 30 30 31 26 28 27 26 23 25 28 14 19 18 25 30 33 18 31 30 27 22 29 25 37 32 24 29 18 16 10 11 12
50 49 46 46 44 48 49 45 44 46 51 42 45 39 32 29 28 29 32 33 28 31 33 24 23 22 18 27 33 26 32 38 33 24 37 28 32 27 27 28 30 24 17 18 14
56 56 56 54 55 50 51 52 52 52 51 47 46 47 43 39 37 38 36 36 35 34 33 25 27 26 23 24 30 35 36 43 44 41 44 34 34 25 14 29 32 29 29 25 22
59 59 59 61 58 59 56 57 58 56 54 47 44 50 50 46 43 40 41 40 39 39 35 34 33 29 25 27 28 31 41 46 51 49 42 35 38 31 13 21 24 27 38 29 32
65 66 65 66 65 63 62 63 62 57 59 60 59 58 56 57 52 48 47 44 39 38 40 38 36 28 32 28 31 33 40 38 46 48 46 45 40 23 21 30 28 34 28 32 30
73 72 69 71 69 68 69 68 64 59 61 62 64 62 61 62 55 51 49 47 48 41 39 39 41 34 33 34 36 39 32 35 46 50 52 45 44 31 24 30 30 34 33 36 37
80 80 68 68 72 73 72 70 63 61 61 66 66 67 67 67 67 63 57 48 45 46 40 40 43 41 39 44 40 39 41 45 39 46 48 47 48 35 30 27 34 36 32 32 25
87 86 71 72 71 74 72 68 67 65 66 70 72 73 73 73 73 72 68 62 32 35 44 42 43 50 48 44 40 42 40 42 48 46 49 52 48 35 30 35 37 31 30 35 38
87 83 62 64 71 64 64 63 65 69 74 77 79 79 74 73 77 76 73 61 47 46 45 35 50 49 51 50 49 47 42 45 44 46 50 49 48 42 41 33 33 32 36 32 18
69 62 47 48 55 60 63 67 70 75 81 85 85 86 87 82 80 79 79 69 56 57 53 46 48 57 61 56 50 50 45 42 44 51 48 49 44 38 46 42 36 36 36 31 31
41 41 37 33 40 48 47 47 59 71 68 76 85 85 85 92 89 86 85 80 72 68 67 60 61 57 57 52 54 53 44 42 49 47 49 41 48 46 47 50 41 31 33 32 25
20 23 26 26 30 33 38 47 39 42 63 65 73 67 78 89 94 90 90 87 82 78 75 71 65 56 54 54 50 55 54 49 44 43 45 44 45 50 44 42 39 37 36 32 31
17 17 18 19 24 29 33 40 47 40 42 42 47 63 64 77 94 92 92 91 88 79 71 71 68 60 64 58 53 55 64 57 44 39 39 47 40 39 53 51 36 28 39 43 37

GFSSW_500_spd_036.txt.gz
Wind_Speed
6 6 5 5 5 6 6 6 6 7 7 7 8 11 10 8 5 5 8 5 13 17 20 14 18 17 12 8 3 20 16 13 14 7 8 13 13 12 8 4 2 2 2 5 5
7 7 7 6 6 6 6 6 6 6 6 6 6 6 12 11 9 8 2 6 10 14 20 18 19 16 17 14 5 9 8 4 6 10 9 20 17 13 12 11 3 6 2 6 6
7 8 8 9 8 7 7 6 5 6 5 5 4 5 5 12 12 11 10 9 10 15 23 22 20 19 17 14 10 11 11 2 8 10 8 15 22 20 15 12 6 5 4 6 8
9 8 8 8 8 8 8 7 5 4 5 6 4 3 4 8 13 14 14 11 11 13 15 18 18 18 15 10 8 9 13 16 14 11 11 13 14 17 11 11 6 5 4 5 8
11 10 10 10 9 9 9 8 7 6 4 4 4 4 4 7 8 14 18 15 12 12 14 18 18 19 18 14 11 10 11 10 9 17 18 8 19 13 15 9 4 1 1 4 8
14 14 13 13 12 11 11 11 10 9 6 5 6 5 6 5 8 11 18 19 17 15 17 14 14 19 24 22 16 10 13 11 1 1 8 19 11 18 17 15 10 8 6 5 8
17 17 16 17 15 14 14 14 12 12 11 8 7 9 8 6 6 10 11 20 19 18 18 18 23 24 22 19 22 18 13 21 19 13 15 13 13 17 18 16 16 11 8 8 8
19 19 18 19 18 17 17 17 15 13 13 12 9 10 9 7 7 10 8 12 22 22 20 24 28 24 25 22 18 15 15 14 13 20 16 13 10 20 15 11 10 11 4 10 10
20 20 20 21 20 21 22 20 18 18 18 16 13 12 12 9 9 7 11 9 15 25 25 24 28 27 28 26 25 14 8 12 15 19 19 12 14 19 15 11 6 8 4 6 12
23 23 23 22 21 21 26 23 21 20 19 20 16 16 16 13 11 9 10 11 13 20 28 28 25 27 28 30 24 17 10 14 14 8 7 9 11 14 17 13 5 4 2 3 8
25 26 25 26 22 22 27 25 25 25 22 23 19 17 20 17 16 14 14 12 13 13 19 28 29 26 23 22 22 23 17 18 17 14 14 13 14 14 14 9 3 2 4 6 7
33 31 31 33 32 29 28 27 27 31 25 27 27 18 24 22 18 19 17 16 13 13 15 16 19 25 26 27 24 30 22 24 25 21 16 20 18 22 10 5 4 3 4 7 5
37 37 36 37 38 37 36 34 35 34 29 19 28 26 25 28 18 18 21 19 17 19 15 12 10 20 28 30 27 28 31 28 29 27 22 30 28 21 11 8 5 4 6 8 8
41 41 40 40 42 42 40 37 39 38 38 25 30 30 30 31 24 22 19 23 23 22 21 17 16 19 24 30 30 27 28 33 35 31 27 26 20 31 16 10 8 10 8 7 7
45 44 44 43 43 46 46 44 42 42 45 34 35 31 30 31 26 24 27 30 26 25 27 14 19 19 20 18 29 17 33 36 36 35 34 33 28 22 25 17 14 12 9 10 7
53 51 49 49 46 46 50 49 46 47 51 42 41 37 31 32 31 32 32 31 31 33 31 24 25 24 20 21 23 24 34 38 41 42 47 39 33 22 30 10 13 14 15 9 11
58 58 57 55 55 51 51 53 52 51 50 47 49 46 42 41 38 38 36 36 34 34 32 27 29 27 25 23 24 28 37 42 47 50 48 38 34 24 18 18 8 14 15 19 16
62 63 63 65 61 60 59 58 57 55 55 55 53 52 48 46 44 44 47 45 42 40 34 34 36 28 25 27 24 28 37 45 50 53 46 41 45 23 17 15 12 6 9 12 18
68 68 68 69 70 67 67 66 64 62 63 61 57 58 58 55 52 50 51 48 43 41 38 38 38 30 33 28 31 29 37 37 46 47 50 48 46 33 26 22 18 14 15 12 13
69 69 69 72 74 73 74 73 70 68 68 68 65 64 63 63 62 58 57 53 48 44 40 40 43 36 34 35 39 38 30 36 46 51 55 52 51 41 34 23 15 17 19 15 13
73 71 70 72 74 75 75 74 71 66 71 70 71 70 70 69 69 66 61 59 56 46 37 43 46 39 42 48 42 41 42 41 39 41 45 46 43 44 36 28 20 20 19 18 20
82 78 70 75 70 72 72 70 73 75 70 76 77 76 75 74 74 74 68 64 62 59 63 57 51 52 48 44 46 45 44 42 44 44 40 37 36 32 37 37 31 25 23 17 21
80 75 71 67 69 68 70 73 75 78 78 77 80 81 81 79 78 77 75 68 68 68 67 60 63 60 57 54 56 58 52 47 44 41 45 42 37 24 36 41 39 30 27 21 30
59 49 44 44 53 59 57 64 71 76 82 83 84 87 86 85 84 83 83 78 75 72 73 69 68 69 65 58 55 56 55 54 51 52 47 43 42 22 37 46 39 27 21 25 38
33 27 20 21 29 38 40 47 56 64 71 77 83 89 91 91 88 92 88 86 82 77 75 76 76 74 71 64 55 57 56 55 56 52 52 40 42 33 29 49 44 35 28 22 33
21 14 12 10 25 27 29 32 24 43 52 60 72 78 84 91 92 94 97 90 85 80 74 77 80 77 77 74 67 60 60 58 55 52 52 50 46 36 34 46 49 46 40 37 31
18 14 12 8 12 23 31 35 37 33 34 34 43 61 68 75 88 92 99 99 91 85 80 74 80 79 78 73 65 52 68 65 61 57 53 53 44 36 35 37 53 56 52 39 40

GFSSW_500_spd_039.txt.gz
Wind_Speed
7 7 7 8 8 9 10 9 8 8 8 9 7 8 13 13 10 10 15 9 9 15 18 13 11 8 10 7 0 1 9 9 15 17 17 16 16 14 11 5 5 7 6 4 11
8 8 8 8 8 7 6 7 8 7 5 6 8 8 9 13 14 16 7 10 10 11 16 17 15 12 8 8 3 12 9 10 8 14 20 22 17 13 10 7 4 5 2 7 8
10 9 9 8 7 8 8 7 6 7 6 5 4 7 10 9 16 18 14 14 12 14 17 19 17 13 8 11 8 4 8 10 3 13 13 20 20 15 16 10 7 6 3 5 7
12 11 9 8 8 8 8 6 5 5 5 4 3 4 8 10 10 19 18 17 13 15 15 11 13 11 8 16 9 5 4 16 13 11 11 16 19 17 13 9 9 5 4 2 6
15 15 14 13 11 10 10 8 6 4 4 3 2 3 7 7 8 12 20 20 16 13 14 10 10 13 10 19 16 11 14 6 9 3 14 14 15 14 14 12 11 9 4 2 5
17 18 18 19 17 15 14 13 11 8 6 5 2 3 6 5 9 9 14 22 20 16 16 13 10 14 16 24 20 21 18 15 11 8 9 17 18 14 14 14 15 10 6 7 7
21 21 21 21 20 19 19 17 15 13 12 11 7 6 8 2 7 10 7 14 21 19 16 16 20 17 16 22 19 18 13 12 12 10 5 9 19 15 15 14 15 11 8 6 8
21 22 23 21 21 22 22 19 18 17 16 13 13 12 13 6 11 10 10 10 18 21 20 21 24 22 19 23 22 15 13 13 8 8 11 5 5 11 15 15 13 8 5 1 8
25 24 25 23 22 22 26 22 21 21 19 16 15 15 19 11 11 9 12 11 14 20 25 26 26 22 23 22 27 18 14 21 18 13 9 9 6 8 15 14 9 3 6 2 4
29 29 28 27 25 24 27 25 23 22 21 20 18 19 21 18 15 14 17 9 14 18 24 28 27 24 24 22 21 16 14 21 18 15 11 8 3 4 6 7 4 4 6 5 6
35 33 32 31 29 27 30 29 27 27 23 24 21 21 22 22 20 19 22 16 15 15 16 22 27 25 20 19 18 23 21 20 19 19 16 13 7 1 5 6 7 5 7 8 9
40 39 39 38 37 34 32 33 32 30 24 27 27 23 27 28 22 21 24 20 17 13 18 16 12 21 26 25 24 23 23 23 24 20 19 17 10 7 4 6 6 6 7 7 8
44 42 41 43 42 41 40 38 38 39 36 24 29 28 30 34 22 25 23 24 23 23 18 16 12 18 23 28 27 25 24 24 22 26 24 23 23 12 3 12 10 10 10 6 7
48 46 45 44 46 45 44 45 43 42 43 31 34 33 33 31 28 27 22 23 25 24 22 21 19 20 22 27 28 26 23 30 29 33 33 28 26 21 13 10 13 16 14 9 7
53 54 52 49 49 49 48 47 48 48 47 40 38 37 36 35 31 28 28 31 27 24 29 18 21 22 21 13 26 21 31 35 34 38 40 38 33 18 18 20 14 17 17 14 12
57 56 58 57 55 53 54 53 50 50 54 47 44 42 36 39 37 33 35 33 33 36 32 27 28 29 22 22 19 22 32 38 44 43 51 40 38 26 18 15 16 9 10 14 12
60 61 61 61 59 59 57 59 58 55 54 54 54 49 45 40 39 39 41 41 39 36 31 27 30 30 29 26 25 29 38 43 48 53 47 37 40 21 21 20 16 13 9 15 12
60 61 62 66 64 63 63 64 64 61 59 57 58 54 49 47 48 45 45 46 46 43 36 36 37 33 28 27 26 28 38 45 46 49 42 39 37 12 23 21 23 15 16 16 16
65 66 68 66 70 68 68 68 67 67 67 61 59 60 57 54 51 51 51 50 47 42 38 38 39 32 32 32 33 29 41 34 42 47 45 44 32 31 29 31 34 24 21 19 12
74 76 75 71 68 71 74 72 71 74 71 70 66 65 64 62 60 58 56 56 54 53 50 49 47 38 35 39 40 41 31 39 45 46 46 37 29 29 30 30 33 28 24 19 16
77 76 75 74 72 72 71 71 71 74 76 75 73 71 70 70 67 64 64 63 59 56 56 55 55 45 44 50 44 43 44 42 41 42 43 41 27 25 25 28 31 27 25 21 20
72 71 75 75 72 70 71 71 73 74 80 83 82 79 77 76 76 72 68 70 66 63 61 59 58 56 53 49 44 46 46 46 50 45 38 37 35 28 30 28 33 34 34 29 25
50 50 59 60 58 60 65 68 71 73 76 84 87 87 86 83 79 79 78 74 72 70 68 64 63 60 58 57 57 58 55 50 47 45 46 42 39 24 23 28 36 37 32 31 29
42 39 39 40 36 42 48 56 65 71 74 79 85 88 88 89 86 84 83 79 79 77 75 72 70 67 63 62 57 58 56 54 51 52 47 44 41 25 21 26 32 43 40 35 33
34 30 28 22 24 27 36 46 54 59 63 67 79 85 88 89 87 89 89 85 83 82 82 80 77 74 71 67 66 63 60 56 55 52 51 40 43 33 22 26 31 36 42 46 43
26 22 18 13 14 18 24 23 25 38 44 53 60 75 83 87 89 88 92 91 88 86 85 85 82 80 78 74 69 70 68 64 59 55 53 51 48 39 27 31 35 38 43 44 44
22 19 17 14 13 13 17 23 28 26 34 23 41 54 59 74 81 88 91 95 92 89 88 87 88 85 83 78 76 73 70 68 66 61 56 56 48 42 37 37 41 40 44 49 47

GFSSW_500_spd_042.txt.gz
Wind_Speed
9 9 10 10 10 11 10 10 9 9 10 8 9 8 14 15 15 14 16 6 5 3 9 10 9 6 8 8 4 3 18 24 14 15 14 10 9 10 10 8 8 9 8 8 11
12 11 10 9 9 10 9 8 8 8 8 9 7 9 10 14 18 18 13 10 9 6 5 11 15 8 9 9 4 9 19 18 15 16 18 15 11 7 12 9 7 5 7 10 9
14 14 13 12 11 10 10 10 10 8 8 8 8 8 10 11 16 19 18 12 11 12 12 17 16 6 8 10 6 14 13 12 16 15 13 15 13 11 13 9 6 4 4 6 7
18 17 16 15 13 12 12 10 9 8 7 7 6 9 11 8 11 14 20 16 15 12 10 7 11 9 10 16 12 10 11 12 19 14 17 15 16 14 13 12 10 7 3 4 7
20 20 20 19 17 17 15 14 11 9 7 7 6 8 11 10 7 9 13 20 17 13 10 8 9 12 12 20 15 11 8 15 14 15 15 13 16 18 16 15 15 11 4 5 8
25 24 22 22 22 22 21 18 15 14 11 10 7 9 12 6 9 7 10 14 20 16 11 10 11 17 19 21 19 18 13 13 13 15 16 15 10 14 15 13 16 13 6 5 10
25 25 25 25 25 26 27 23 20 20 17 15 13 12 15 3 12 8 5 12 14 18 15 14 21 16 19 22 24 21 16 10 7 11 18 15 11 9 13 11 15 11 10 7 9
23 24 25 25 26 27 28 25 23 22 22 20 18 17 21 9 15 12 7 8 13 16 19 19 22 22 23 24 27 21 14 11 13 10 13 11 9 7 6 12 9 11 9 7 6
30 30 30 29 28 28 28 29 25 23 23 22 21 21 24 19 15 18 15 10 10 13 19 22 21 20 23 23 25 25 16 13 17 12 13 6 8 8 4 9 11 9 7 7 6
35 36 35 33 32 31 30 31 28 25 24 24 22 24 25 24 19 20 21 15 13 15 14 18 22 21 20 22 15 20 17 18 14 16 12 9 14 9 4 6 14 10 7 7 9
42 42 43 42 39 36 35 33 33 30 24 26 23 24 25 26 24 25 25 21 18 13 11 12 15 16 19 15 18 23 23 21 16 17 10 11 7 13 11 9 13 10 8 7 10
45 45 45 48 47 44 42 40 37 36 30 28 28 22 29 29 27 23 26 25 21 16 18 11 3 10 20 20 22 26 28 23 19 18 16 16 14 14 10 13 13 15 10 9 10
49 49 49 49 51 51 48 47 44 43 41 31 33 30 31 36 28 27 27 26 25 25 21 16 10 15 15 22 24 26 24 26 23 26 26 25 18 16 10 14 15 18 18 15 12
53 54 52 51 53 52 52 50 50 49 46 41 40 40 37 38 33 30 29 29 28 23 26 23 20 18 17 19 25 25 23 27 29 31 29 26 25 24 17 17 15 18 21 20 17
59 59 57 55 53 56 57 55 53 53 51 49 44 45 43 44 37 34 31 34 29 25 30 19 20 19 18 11 21 20 28 26 30 33 34 32 29 22 23 22 18 17 22 22 19
59 62 61 60 59 57 58 60 60 57 57 55 50 44 43 41 42 39 40 38 35 37 35 31 29 31 24 22 20 22 31 34 35 37 43 32 26 25 21 10 26 23 22 24 23
64 62 62 63 61 61 61 60 62 63 59 58 58 54 48 43 41 40 41 41 40 42 41 33 32 30 29 28 25 26 33 40 45 47 34 31 34 17 16 19 23 25 23 19 19
65 68 67 64 64 63 62 64 65 66 66 64 62 60 52 49 49 43 40 45 44 44 39 35 37 32 27 26 24 26 32 38 36 29 24 39 30 11 19 22 22 20 22 23 23
71 70 68 66 67 66 67 66 66 67 69 67 66 65 63 54 51 48 49 46 44 44 43 44 42 36 35 32 32 31 39 28 39 42 35 35 21 22 22 27 30 27 27 28 23
76 76 74 74 72 69 69 69 70 71 71 72 69 68 68 64 56 55 55 53 53 51 49 50 48 41 37 39 41 40 32 38 43 42 38 29 25 18 20 27 27 26 22 26 24
69 72 73 73 73 74 71 71 70 74 76 75 76 72 70 69 64 61 62 59 57 56 56 53 52 48 45 49 43 42 43 43 39 40 38 34 24 17 12 22 32 26 28 29 28
52 53 56 59 63 65 67 70 71 68 75 78 79 80 76 74 72 67 66 66 64 62 60 59 60 54 51 48 43 44 42 44 46 41 34 34 27 20 15 19 28 30 36 31 31
44 40 41 40 44 46 52 54 61 63 69 77 81 84 82 79 77 75 72 71 70 68 68 66 64 60 57 57 57 56 52 51 48 44 44 41 29 25 18 14 26 36 37 33 30
42 36 31 29 29 28 28 37 47 55 63 71 79 83 85 85 83 81 76 76 75 74 72 71 69 65 64 59 60 60 59 55 52 53 43 41 33 24 18 19 20 32 40 41 40
36 31 25 23 23 23 19 24 34 42 48 59 70 78 83 85 87 85 82 80 79 78 78 76 74 72 70 64 63 61 61 59 58 53 54 43 38 29 20 20 21 26 35 44 44
34 30 22 20 21 20 20 19 18 24 30 42 46 65 76 79 84 85 86 83 83 82 82 82 79 77 74 72 68 65 62 60 61 58 56 49 45 36 27 27 29 30 31 32 39
29 28 26 20 19 19 20 17 15 18 20 18 42 45 54 68 78 83 86 86 87 87 87 87 86 82 80 76 73 71 63 62 62 60 57 54 47 38 30 30 31 33 37 34 30

GFSSW_500_spd_045.txt.gz
Wind_Speed
13 13 13 12 11 11 10 10 9 10 9 8 8 9 11 14 14 13 12 4 6 2 6 11 8 5 10 8 6 8 14 17 12 12 12 10 9 12 12 12 12 14 14 13 12
15 15 15 13 13 12 12 10 10 10 11 11 10 8 10 11 13 16 13 10 9 9 11 14 14 10 11 11 10 15 16 15 14 14 14 11 7 7 11 15 13 11 11 13 12
19 18 17 17 16 15 13 11 11 12 11 11 12 12 8 8 10 13 16 13 12 13 15 16 16 12 11 12 15 21 14 15 13 11 14 13 12 11 13 14 12 12 11 13 15
22 21 21 21 20 17 15 13 11 12 12 10 11 13 11 6 6 9 13 15 16 10 11 8 10 13 12 15 19 24 17 12 15 13 13 14 16 13 10 12 12 11 12 14 15
26 25 24 23 23 23 20 17 15 14 13 12 11 13 12 5 3 8 9 11 17 15 10 11 12 17 16 18 19 22 20 17 18 12 10 9 14 15 13 12 12 11 12 13 13
29 29 28 26 25 25 24 22 20 19 18 16 14 14 15 5 8 9 8 10 11 17 13 12 15 23 23 22 22 21 18 18 16 15 9 7 9 13 13 11 10 12 12 14 15
29 29 27 25 26 27 27 26 26 25 23 22 19 18 20 10 11 11 5 7 11 15 18 18 21 20 23 25 26 22 18 17 17 12 10 8 4 5 10 9 8 14 15 15 15
30 29 28 25 25 25 26 26 27 26 26 26 25 22 25 20 15 16 9 10 9 12 21 21 22 23 25 25 27 24 21 21 15 13 16 11 7 1 5 4 10 14 16 15 14
34 35 34 33 32 31 30 29 28 27 27 27 27 26 27 28 20 19 17 15 10 11 14 21 22 19 22 23 25 25 22 20 19 21 15 3 2 5 7 8 14 16 13 14 14
38 38 40 39 38 36 36 33 32 31 29 28 28 28 28 29 25 21 26 17 16 15 12 12 17 21 20 21 20 21 21 20 20 18 16 8 11 12 9 10 15 16 13 13 15
41 41 43 44 44 42 41 39 38 36 33 31 28 29 29 30 29 28 26 25 19 15 8 11 13 11 20 20 19 20 26 24 21 20 17 10 16 18 15 15 15 17 16 14 14
48 47 46 47 48 47 46 46 46 43 38 36 34 28 30 32 32 31 26 26 22 17 19 13 4 8 17 23 23 23 29 25 23 22 20 17 19 17 13 16 20 20 19 16 15
52 51 50 51 51 52 51 50 49 49 47 39 40 36 37 35 34 31 30 28 23 24 21 18 15 16 18 22 26 28 27 30 27 27 24 22 22 19 17 11 17 20 24 23 19
54 55 56 53 55 57 56 55 54 52 53 47 44 45 41 42 38 33 33 32 30 25 26 25 23 19 18 20 27 30 29 31 33 32 29 25 25 25 23 20 14 21 20 23 22
59 58 57 56 56 56 60 59 58 57 55 55 50 48 45 45 43 39 34 36 33 30 30 20 23 20 18 12 24 25 29 31 33 38 36 30 27 25 29 25 17 17 20 22 23
63 64 64 63 61 59 59 60 61 60 62 58 54 48 46 44 46 45 44 41 37 36 37 33 32 33 22 25 23 27 34 35 37 38 43 28 27 30 33 19 20 18 21 23 24
69 67 65 65 64 64 64 62 61 63 64 62 60 56 49 46 44 42 45 47 45 42 42 39 36 31 32 32 29 29 35 38 42 44 33 30 36 23 27 28 24 24 23 26 26
74 72 72 72 70 65 64 65 66 66 66 66 63 61 53 51 51 44 43 44 47 47 46 40 41 36 30 29 26 27 30 34 36 26 35 39 23 15 24 25 25 31 27 31 31
59 63 71 73 74 72 68 65 67 69 68 66 65 64 60 55 52 49 50 46 43 47 48 46 46 42 38 31 32 32 37 23 34 34 32 28 15 15 26 23 24 27 31 32 32
54 51 49 51 60 69 70 66 65 69 70 71 69 68 65 61 55 55 53 52 52 48 49 47 50 45 41 40 40 40 34 37 39 39 32 23 15 12 16 23 29 31 32 30 31
56 50 45 43 41 45 55 58 58 65 69 72 74 72 69 65 61 59 60 58 55 53 53 48 51 51 49 48 44 42 43 41 37 36 33 25 12 8 14 24 31 29 24 26 24
52 45 39 42 40 32 33 41 50 54 65 70 76 77 75 70 65 63 62 63 62 58 56 56 54 52 52 52 47 44 43 44 44 39 30 29 21 13 13 20 33 38 34 34 30
48 41 38 38 34 25 23 23 29 39 56 65 72 78 79 74 69 68 67 66 66 65 61 60 61 58 54 55 54 52 50 49 47 43 39 36 23 17 12 21 28 36 36 32 30
46 41 35 36 33 23 18 19 21 25 42 55 64 73 76 76 72 71 71 70 69 69 67 66 65 61 58 57 56 55 54 53 52 49 40 36 31 23 17 16 23 30 34 35 34
45 41 33 32 32 26 18 16 16 15 24 38 47 62 72 76 74 74 75 75 74 73 72 71 71 67 63 61 61 60 57 56 55 49 48 37 36 28 22 21 24 33 37 40 39
44 41 35 29 30 25 19 15 12 11 8 22 21 35 44 63 76 75 78 78 79 79 78 77 75 73 71 68 64 63 62 61 58 55 52 44 42 32 25 25 28 29 35 40 42
40 41 35 28 28 25 19 15 13 10 10 14 27 31 24 48 59 76 78 82 81 83 83 81 79 77 75 73 71 68 63 63 62 58 54 50 44 35 30 29 26 30 31 34 39

GFSSW_500_spd_048.txt.gz
Wind_Speed
16 16 16 15 13 12 12 12 11 10 9 8 8 7 11 9 13 14 12 5 4 9 12 12 9 10 12 9 8 8 11 17 13 10 12 10 11 12 14 13 15 16 14 15 14
20 19 19 17 17 15 15 14 14 14 12 11 10 9 7 9 10 15 13 12 12 11 17 18 16 13 13 14 9 7 12 16 13 10 11 11 12 13 16 17 17 17 17 16 15
22 22 22 21 20 18 16 16 16 15 14 14 13 11 8 5 8 11 14 16 15 15 16 19 20 17 15 17 15 13 15 15 15 14 13 12 11 13 14 17 16 18 16 18 17
25 25 24 25 24 23 21 18 17 17 14 14 15 13 10 5 5 9 12 15 18 15 13 14 16 17 15 17 20 22 17 16 14 11 13 12 11 12 15 16 16 17 19 20 21
27 27 26 27 27 26 25 24 22 19 17 15 15 15 14 7 6 10 8 12 18 18 14 14 16 21 20 20 22 26 22 20 15 11 12 11 12 13 14 15 16 17 19 20 17
26 27 27 28 28 28 28 27 26 25 21 20 18 17 17 11 10 11 10 10 15 21 19 14 19 25 26 26 26 29 26 18 16 14 12 7 8 10 13 15 17 17 18 18 18
29 28 27 26 27 26 26 27 28 28 26 25 24 22 21 17 14 14 9 10 12 16 23 22 24 23 27 29 30 27 25 21 17 19 12 9 8 5 6 9 12 16 18 18 20
34 33 31 30 28 28 27 26 26 27 28 27 28 27 26 26 20 18 14 14 13 15 21 24 25 24 26 25 31 28 23 21 20 17 15 10 5 6 8 6 8 14 19 20 21
37 37 36 34 32 33 32 31 30 29 29 28 28 29 29 29 27 25 21 19 17 13 14 23 26 22 21 24 27 32 25 26 23 16 18 12 10 8 9 8 8 15 19 18 18
41 41 43 40 38 38 37 37 36 34 33 31 30 31 29 29 32 28 26 25 20 19 15 15 21 24 22 21 24 26 30 31 28 23 22 14 11 12 10 9 14 18 19 18 18
44 44 45 46 45 43 43 42 41 38 38 36 32 33 31 30 34 32 29 28 25 21 14 15 17 17 23 23 23 27 31 28 28 30 27 17 18 16 16 11 14 18 20 19 18
45 44 46 49 49 49 49 48 47 44 41 42 39 34 34 34 35 34 35 31 28 21 22 18 8 17 24 28 24 24 29 30 29 31 28 26 20 22 19 13 15 20 20 20 19
52 53 51 49 49 50 51 52 53 51 48 42 44 39 40 39 37 34 37 34 31 31 26 20 20 21 27 31 31 28 25 34 33 32 28 27 25 23 20 17 11 17 21 22 23
55 56 56 57 57 56 53 52 54 56 56 51 46 47 43 44 43 39 37 38 36 30 28 30 30 26 24 28 32 32 29 37 40 35 29 28 25 25 23 22 14 15 17 21 22
64 63 61 61 61 60 61 59 56 54 56 60 54 49 48 48 46 45 40 43 40 33 34 27 27 25 23 18 29 32 35 37 39 39 36 33 33 28 32 27 19 14 18 21 23
68 66 65 64 65 65 63 63 63 58 61 60 58 54 49 50 52 50 46 46 43 40 39 34 34 37 28 29 27 36 40 39 38 40 46 32 33 32 36 29 24 20 21 24 25
59 57 61 62 60 63 68 66 63 64 60 62 62 60 55 51 53 52 52 52 50 45 42 39 40 38 39 36 33 36 43 42 46 49 38 32 38 27 35 31 29 28 25 26 25
54 53 55 53 51 53 61 67 67 67 69 64 61 60 53 54 52 53 50 54 54 50 49 43 42 39 38 38 37 35 37 44 49 44 39 39 34 23 24 30 35 32 28 29 29
51 53 51 49 50 47 44 55 51 70 74 66 63 61 59 55 54 55 52 51 52 52 53 51 46 42 41 37 40 36 44 35 39 42 40 30 20 29 24 30 37 35 33 30 27
51 50 48 45 49 44 36 38 47 53 65 66 61 66 66 63 57 56 58 58 53 51 55 57 53 50 45 42 43 42 34 37 40 42 38 32 25 16 15 32 34 38 34 31 32
51 50 46 44 44 40 32 32 35 41 55 62 65 69 66 64 60 60 65 63 61 59 58 56 55 56 53 50 48 47 45 43 43 40 34 27 20 15 16 27 30 29 31 28 32
49 47 46 46 42 34 32 27 25 32 42 54 62 67 69 68 64 65 65 67 66 62 57 56 56 56 55 52 52 48 47 42 43 37 33 24 16 19 17 24 35 33 31 27 32
44 43 44 43 38 35 32 26 21 23 30 43 53 62 69 68 68 70 70 67 68 66 63 63 58 55 58 57 58 57 52 50 48 44 38 32 27 23 12 22 28 34 34 30 30
43 40 43 43 37 33 28 23 19 17 17 33 41 49 62 68 70 73 74 73 71 70 67 64 63 60 55 47 53 57 55 53 51 49 40 35 29 24 19 24 29 33 35 36 33
40 39 39 42 37 34 28 22 16 15 13 16 24 30 41 62 72 74 78 76 76 74 71 68 65 65 63 62 59 58 58 57 57 50 44 36 34 28 24 26 32 38 41 42 41
42 41 36 38 37 32 25 21 15 14 11 11 29 14 28 40 68 74 79 79 80 78 75 73 71 69 65 62 61 60 60 60 58 53 48 41 38 33 31 29 30 36 40 41 43
40 42 35 35 36 34 22 18 13 13 14 11 24 24 18 22 44 72 76 76 81 80 80 77 76 73 69 64 64 66 60 58 58 56 52 46 41 39 29 23 24 28 36 41 42

GFSSW_500_spd_051.txt.gz
Wind_Speed
20 20 20 19 18 16 14 14 12 11 10 10 9 9 8 9 12 14 11 7 8 12 15 13 11 12 13 13 14 9 8 5 8 13 15 15 11 12 11 14 15 17 14 13 15
22 22 23 23 21 20 18 17 16 15 13 13 12 10 9 8 11 13 12 14 13 11 18 19 17 15 16 17 14 5 10 14 13 15 7 10 11 13 15 17 16 16 16 14 15
24 24 24 24 24 24 23 21 19 17 16 14 14 12 10 9 10 12 16 19 18 15 17 21 21 18 18 19 14 11 11 13 20 16 12 10 11 12 14 16 17 16 15 16 15
22 24 25 25 25 25 26 25 24 20 18 18 16 14 13 9 9 13 15 18 22 19 17 18 19 20 16 18 17 15 19 20 14 10 9 7 11 13 17 20 18 18 17 17 18
23 23 23 25 26 27 28 28 27 25 23 21 21 16 16 11 9 14 12 14 19 23 20 18 18 20 19 21 21 19 20 17 12 10 8 10 14 9 14 16 17 18 20 19 18
27 26 26 25 25 27 28 29 29 28 26 26 25 21 19 16 12 16 11 11 15 21 23 20 22 22 27 25 23 23 24 20 16 13 12 6 12 13 8 13 16 18 19 21 21
34 31 30 30 28 28 28 28 30 29 28 28 30 26 23 25 17 18 15 13 13 16 23 24 24 24 27 26 25 28 29 21 18 15 12 8 12 1 10 11 13 17 19 21 23
37 37 36 35 33 32 31 30 30 30 29 28 30 30 26 28 24 21 20 14 16 15 19 26 27 27 28 31 30 28 29 27 19 18 15 9 16 8 12 9 10 13 18 20 22
37 39 40 39 39 39 36 34 33 33 32 31 29 29 30 30 29 27 26 22 20 17 15 20 29 29 28 30 31 33 28 27 19 22 18 14 26 24 11 12 11 9 16 20 22
37 37 39 40 42 42 42 42 38 37 37 36 34 33 30 30 30 31 30 30 26 23 20 18 26 31 30 24 29 32 30 20 21 22 21 16 17 14 9 11 12 12 14 18 19
41 42 42 41 40 43 44 46 46 44 40 42 39 37 33 32 31 34 33 32 31 28 23 19 21 25 27 26 28 27 25 23 22 23 21 21 16 16 18 15 12 10 13 17 19
47 47 47 47 46 44 44 45 49 50 47 44 45 40 39 35 34 34 36 32 32 28 28 23 15 17 26 30 28 29 28 28 22 36 23 25 20 17 16 20 13 15 15 19 17
55 55 54 51 51 51 50 49 49 50 54 45 48 46 44 43 39 37 37 33 33 34 30 26 20 22 27 34 35 33 29 29 30 26 29 33 27 24 22 22 20 15 14 17 18
64 64 63 61 58 59 59 56 54 51 52 53 48 52 48 48 46 43 38 37 39 35 33 34 30 32 28 34 36 35 30 31 30 30 29 35 27 29 25 27 22 15 18 13 18
66 67 67 70 66 64 57 59 61 56 53 57 56 52 53 52 47 48 41 44 42 37 39 34 37 34 32 26 32 33 34 36 38 33 32 29 29 20 24 26 25 17 14 17 16
41 44 47 52 57 59 61 58 55 57 60 51 57 56 54 54 54 53 50 48 44 43 42 39 36 37 34 29 30 35 39 41 42 43 45 40 33 29 27 22 25 23 19 17 19
39 39 42 43 44 43 45 48 49 50 37 52 66 62 59 56 55 58 56 54 53 50 46 42 40 37 44 40 36 36 44 45 44 46 49 39 40 35 26 26 27 29 23 21 22
43 39 43 45 43 45 48 44 44 35 30 67 72 67 62 57 54 60 58 58 56 53 49 48 48 45 44 45 40 40 43 49 47 43 37 35 39 34 33 26 29 28 28 25 25
42 46 47 45 44 43 45 39 25 29 51 64 69 64 52 46 58 56 60 56 59 59 55 52 48 43 46 42 43 41 43 35 35 24 28 26 28 30 27 30 32 35 32 30 26
43 46 43 44 43 43 44 34 29 39 38 47 56 56 50 38 57 60 58 58 59 61 60 55 39 52 46 48 48 48 35 42 41 36 27 27 24 24 21 26 30 32 33 32 26
45 45 46 43 39 39 38 38 35 37 39 40 50 59 59 58 71 66 54 52 65 65 63 62 48 38 52 55 49 47 47 44 38 39 30 23 19 20 24 20 30 34 36 36 32
46 44 42 39 37 40 37 36 35 33 33 32 41 58 63 51 63 72 50 49 68 63 64 61 69 57 51 52 48 49 47 45 45 41 38 24 11 27 22 22 29 36 33 35 33
43 43 42 35 33 34 34 30 28 24 26 25 26 45 65 58 56 68 65 79 73 70 69 68 69 67 50 41 53 55 52 49 42 41 36 34 25 30 24 19 29 35 33 32 32
43 42 34 33 30 31 27 28 27 21 21 19 18 26 48 72 44 50 62 79 76 71 71 68 68 66 58 51 46 57 57 53 50 48 38 34 27 36 22 21 33 35 39 38 35
43 41 32 31 31 29 25 23 21 12 21 18 15 21 32 50 65 53 56 77 74 73 68 70 65 66 60 36 39 43 56 58 56 50 46 27 28 26 25 24 31 35 39 38 30
41 41 30 33 32 25 24 22 18 17 20 17 13 22 20 33 53 60 51 61 76 76 70 72 69 64 65 59 61 58 57 57 56 56 49 44 31 24 37 32 32 40 42 41 38
40 41 39 31 26 22 22 23 20 19 15 16 15 27 20 27 37 63 67 61 76 78 77 76 69 70 69 69 68 65 63 59 55 44 52 50 44 38 37 37 34 36 39 40 42

GFSSW_500_spd_054.txt.gz
Wind_Speed
21 21 21 21 20 20 18 16 14 13 14 13 12 10 11 8 10 14 13 9 11 14 17 14 12 14 12 12 12 10 8 6 1 8 7 2 18 13 11 13 13 13 14 10 13
22 23 23 23 23 22 22 21 18 17 15 16 14 12 11 12 10 13 11 14 15 13 17 17 17 15 15 13 12 8 12 12 13 8 11 9 10 9 14 15 14 11 14 12 12
21 21 22 23 23 24 24 23 22 21 20 19 17 13 12 12 13 14 15 18 18 16 14 17 21 17 15 14 13 9 11 9 8 6 9 4 7 12 9 14 14 14 13 13 12
22 22 22 23 23 24 25 25 25 23 23 24 21 17 14 13 13 15 14 17 22 20 18 17 17 18 17 14 14 13 11 10 4 7 8 20 5 8 12 15 14 14 14 14 15
26 26 25 24 24 25 25 25 25 26 26 26 25 21 18 14 14 17 16 15 18 23 22 20 17 17 17 16 16 15 14 5 8 9 15 6 6 10 10 13 13 15 14 16 15
31 31 32 30 28 27 27 27 26 25 26 28 28 25 22 19 13 16 15 16 15 19 24 22 19 20 22 21 18 17 20 17 20 21 7 1 15 9 8 5 11 13 14 16 17
34 34 34 34 34 33 31 31 29 28 27 27 29 29 24 27 21 17 20 15 15 17 19 26 25 25 23 25 23 20 24 25 23 21 10 10 31 13 19 3 8 10 13 16 17
32 34 35 36 37 37 36 36 34 32 31 30 29 29 25 32 25 22 23 19 18 17 18 23 29 27 26 26 27 26 27 25 21 17 15 14 26 17 10 17 11 6 11 15 17
33 34 34 35 35 36 38 39 40 38 36 34 33 30 27 29 29 30 26 25 22 20 18 20 26 30 29 28 30 30 26 24 22 19 14 15 22 17 16 14 9 8 10 17 17
39 39 38 37 37 36 38 38 40 43 42 40 37 34 32 31 30 29 30 30 28 26 22 20 22 30 33 31 23 25 27 20 21 18 22 17 25 19 25 23 12 10 8 10 13
42 43 44 42 42 43 43 42 39 42 43 45 43 38 37 36 32 32 31 34 33 33 27 25 24 20 27 28 28 24 24 24 19 15 19 18 32 21 25 20 15 4 10 7 9
47 47 48 50 50 48 47 47 47 44 39 44 47 44 43 42 38 36 36 35 35 32 33 33 21 18 24 31 32 28 26 23 16 24 31 23 29 22 19 14 15 11 8 11 9
55 56 56 55 54 55 54 52 51 52 46 37 45 47 42 49 42 42 40 36 36 34 34 31 25 24 25 29 35 32 29 27 22 28 31 19 29 24 19 17 19 18 14 13 9
58 58 59 60 61 63 62 60 56 54 51 52 48 48 48 51 49 43 45 40 41 38 34 34 33 30 30 28 32 37 30 34 28 30 29 20 27 18 22 21 24 28 24 20 12
46 41 39 38 40 43 46 53 60 55 45 37 55 49 52 52 46 46 47 48 45 40 41 35 35 35 36 30 32 30 34 38 35 32 28 30 33 26 22 19 28 31 29 17 18
34 32 28 32 35 38 38 38 39 39 25 19 51 55 58 52 52 53 52 52 47 45 45 39 37 40 37 32 28 25 34 35 40 32 44 34 31 18 27 25 26 23 15 21 17
34 30 33 37 37 39 40 43 42 36 16 32 48 60 61 61 57 52 56 58 56 56 53 45 43 40 38 37 35 35 37 39 40 46 49 42 39 33 18 24 20 19 22 19 22
36 37 35 39 41 41 42 40 38 35 21 31 56 56 58 53 51 53 50 59 55 56 52 48 49 44 42 44 40 41 37 47 47 40 38 39 41 36 32 25 19 20 26 27 24
48 39 38 42 44 40 39 36 32 36 37 38 41 59 46 28 48 54 51 56 58 58 58 53 50 39 44 45 47 44 45 36 30 27 27 28 29 28 31 40 35 32 28 33 30
50 47 43 46 41 42 40 34 24 37 41 38 36 50 58 42 55 54 56 49 36 54 60 57 34 46 36 47 45 47 37 40 41 36 33 23 25 23 21 31 30 37 38 32 33
51 54 59 47 44 40 34 29 34 36 39 42 39 41 50 52 59 59 57 51 50 45 44 58 54 41 37 47 50 48 45 43 38 38 31 21 20 18 19 20 24 30 32 37 33
53 53 48 39 34 32 24 35 38 34 38 38 30 30 44 62 61 59 56 65 58 60 59 59 61 52 41 42 45 48 49 45 45 41 36 25 17 17 24 26 27 27 32 29 31
47 36 38 39 35 30 29 33 34 31 33 27 30 23 32 57 63 57 60 58 67 66 65 61 72 63 47 42 43 51 50 50 41 35 38 35 23 27 28 25 22 22 33 34 31
36 39 39 41 40 33 33 30 25 25 25 18 18 29 21 39 71 49 63 47 63 68 76 72 71 73 64 56 39 51 49 48 48 41 38 34 22 30 29 30 32 29 30 36 33
37 41 46 42 36 33 31 26 21 21 17 10 19 34 21 18 57 51 60 52 57 68 73 73 68 73 65 47 29 39 46 50 52 42 37 29 33 27 31 28 27 34 34 37 33
39 48 46 43 38 35 26 19 20 21 21 20 30 13 25 25 24 71 42 41 49 55 75 74 70 71 78 57 44 46 43 43 47 45 33 31 24 31 30 37 27 33 34 38 40
38 45 53 43 40 35 22 21 20 22 22 19 14 25 20 28 28 44 58 25 35 53 63 69 68 72 71 62 53 48 51 43 36 39 41 36 31 22 30 32 29 32 39 39 39

GFSSW_500_spd_057.txt.gz
Wind_Speed
17 18 18 19 19 18 18 17 16 16 16 15 13 10 10 8 8 12 15 9 13 14 15 12 11 14 15 16 16 15 15 7 3 6 7 13 6 8 8 4 5 6 5 7 6
18 18 18 18 19 20 20 19 18 18 18 17 15 13 11 11 10 12 11 17 15 14 17 17 16 14 15 17 15 15 10 7 2 9 5 7 4 8 6 1 6 7 5 8 7
20 20 21 21 21 20 20 20 20 20 21 20 18 16 14 12 13 14 12 15 17 17 16 16 19 15 16 15 16 16 12 9 9 6 7 4 9 10 2 0 9 7 6 7 8
25 24 24 24 24 24 23 21 21 21 22 23 21 20 17 15 14 16 14 16 18 19 17 16 14 14 16 17 17 14 11 7 13 6 4 3 7 8 5 4 7 7 8 9 9
28 28 29 29 29 28 27 26 24 23 22 23 22 22 20 15 21 17 17 15 17 20 23 22 17 15 16 19 16 12 9 11 6 11 8 4 8 12 9 6 5 7 8 9 9
28 29 29 30 30 30 30 31 30 28 27 25 23 23 21 18 21 18 17 17 16 19 21 23 20 19 21 21 17 17 17 11 1 3 5 3 6 12 9 4 1 4 8 10 11
28 29 30 30 31 31 31 32 33 33 31 30 28 24 19 27 24 18 19 18 17 17 19 22 27 25 23 20 22 23 22 18 16 11 9 8 13 25 7 5 1 3 10 12 13
32 31 31 30 30 30 30 32 34 34 34 35 33 28 18 29 26 23 24 22 21 18 19 21 25 27 26 22 26 26 26 21 18 20 15 17 19 19 15 13 9 3 7 9 11
33 34 34 36 36 35 33 31 31 33 35 37 37 34 27 26 27 29 28 25 25 24 22 23 24 26 30 28 28 25 25 23 22 25 21 17 26 14 9 14 13 9 6 3 11
37 38 39 39 39 38 38 38 35 33 34 36 38 37 36 32 32 28 29 30 30 29 28 25 25 26 29 33 25 21 23 21 22 24 21 20 25 17 9 15 12 7 10 3 6
43 43 43 44 44 44 44 44 43 42 39 38 37 34 37 37 35 33 31 32 33 35 30 30 28 19 20 24 26 25 26 19 20 23 21 16 18 26 18 12 16 10 6 9 8
47 48 50 50 50 50 50 49 49 49 41 45 39 34 37 42 40 36 38 36 34 30 35 40 27 22 23 24 28 31 28 19 17 15 14 25 26 17 19 13 17 11 6 7 4
52 53 52 54 55 55 54 55 53 50 48 47 47 44 38 44 40 40 43 40 39 35 37 35 24 32 28 27 29 31 29 20 26 17 23 34 34 30 25 18 18 12 10 5 4
54 52 55 49 52 49 48 49 51 54 45 48 51 50 52 50 45 40 43 45 46 42 38 36 33 38 32 31 28 31 26 25 31 23 32 23 31 33 24 17 16 9 14 7 3
45 35 32 34 25 28 29 28 31 41 19 34 47 50 55 56 49 43 45 47 49 47 44 36 36 39 39 29 31 23 33 32 33 33 30 37 33 21 19 14 13 10 9 7 3
33 24 26 35 31 31 30 29 26 29 17 28 44 46 46 57 57 50 53 54 49 50 49 44 39 42 37 35 35 24 34 38 43 38 38 31 27 25 16 16 14 20 20 12 3
29 27 34 33 29 31 36 37 37 34 28 24 37 41 41 44 55 61 56 56 58 58 58 53 47 41 40 39 40 34 35 39 51 53 49 34 30 31 19 18 16 19 13 10 5
30 30 37 36 39 40 43 41 38 33 36 32 26 33 35 36 47 64 69 65 60 59 57 56 53 50 45 47 42 38 34 35 45 47 40 44 45 30 28 26 29 26 24 12 18
36 42 37 45 40 36 36 35 34 37 40 36 30 34 41 26 47 57 72 69 60 61 54 56 57 44 45 44 43 40 45 36 36 42 48 48 42 42 28 32 24 22 28 18 20
43 41 40 29 38 39 35 32 26 34 34 25 29 36 40 43 49 50 62 63 60 61 57 61 58 51 42 39 46 47 35 39 39 40 43 39 33 29 34 38 32 32 20 22 24
42 37 29 34 38 39 34 32 35 37 32 27 36 38 40 45 47 56 59 50 60 59 63 62 63 60 48 46 49 48 47 41 37 39 35 29 23 5 11 18 29 33 31 28 26
32 28 36 41 41 41 38 37 37 41 39 34 35 38 44 50 51 61 63 57 60 58 62 64 69 63 62 55 39 42 48 44 44 37 36 30 23 28 12 22 21 17 28 37 31
23 25 37 48 41 41 41 34 38 44 40 33 29 34 38 23 34 58 67 61 58 62 64 65 69 66 60 55 49 45 45 45 44 37 40 36 27 20 7 18 21 17 20 26 42
27 33 38 47 46 41 38 34 33 38 30 25 25 29 26 28 24 41 69 70 51 67 65 68 72 74 67 60 53 52 45 41 48 45 39 37 26 18 11 15 22 20 19 25 31
33 37 43 51 42 41 40 36 27 29 26 22 21 22 27 30 33 29 65 74 45 65 60 68 74 77 70 63 59 45 43 40 47 46 40 33 34 22 18 18 23 22 23 21 34
37 42 43 46 41 41 40 36 24 18 22 20 22 26 29 23 19 24 38 69 41 40 63 66 69 76 76 64 53 46 40 39 41 42 43 32 38 23 24 27 29 27 31 31 28
37 36 39 42 40 41 42 39 22 22 18 19 23 23 14 23 19 20 22 60 37 33 50 69 69 74 73 62 58 53 41 44 31 37 43 39 41 30 30 33 36 32 33 34 38

GFSSW_500_spd_060.txt.gz
Wind_Speed
15 16 16 16 15 15 16 15 14 16 16 14 11 9 9 5 8 10 17 12 14 15 13 10 11 18 16 16 16 15 11 6 4 8 3 4 6 7 4 6 4 2 1 3 6
18 18 18 18 18 17 17 17 17 16 17 17 16 12 10 9 9 10 13 16 17 17 18 17 15 14 18 19 15 13 12 8 8 7 3 6 9 3 4 6 6 3 4 3 4
23 23 22 22 22 21 20 19 19 19 17 17 18 17 14 11 14 11 13 14 17 19 19 20 19 16 17 15 13 13 15 13 13 8 11 7 5 7 3 4 5 4 6 6 5
25 25 25 26 26 26 25 24 23 21 20 18 18 18 17 15 18 15 13 14 15 20 19 19 20 20 19 15 16 17 18 15 15 10 6 11 8 16 10 2 6 8 7 8 8
24 25 26 26 26 27 27 27 27 26 25 22 20 17 17 17 27 16 19 15 15 18 23 23 19 21 21 22 17 17 16 20 16 13 10 6 11 12 10 4 6 9 8 7 5
25 25 26 26 27 27 28 27 28 28 27 28 25 20 15 21 28 17 18 18 16 18 20 22 22 23 26 26 18 20 21 24 17 20 13 11 4 1 6 4 0 5 7 8 8
27 26 26 26 26 26 26 27 28 29 29 30 30 25 18 28 26 20 23 20 18 19 19 23 30 26 25 24 26 26 26 26 25 11 8 11 7 7 6 3 7 7 6 7 9
30 31 31 29 29 29 28 28 27 27 29 31 31 30 22 31 22 25 29 26 22 22 22 22 27 31 29 25 30 31 32 28 23 19 21 18 13 8 8 9 6 9 11 8 11
35 35 35 35 35 35 34 33 31 30 30 30 30 30 29 33 32 27 29 32 28 26 27 27 26 26 32 30 32 29 26 28 27 23 22 23 11 12 8 5 5 6 8 10 12
38 39 40 40 40 40 40 39 37 37 38 34 30 28 31 34 34 31 28 35 33 35 34 30 27 26 26 31 28 27 23 24 24 25 24 24 10 13 9 8 5 1 5 7 10
43 44 45 46 46 44 45 45 44 43 43 41 39 33 33 36 37 38 36 35 37 39 35 34 33 22 18 22 28 29 27 20 21 23 21 16 19 10 14 9 1 11 3 1 7
49 50 52 54 54 52 52 50 49 44 46 45 44 41 44 42 37 39 40 40 38 34 38 43 32 24 24 23 26 29 26 23 24 27 28 25 24 8 11 13 10 7 6 3 2
56 57 56 55 56 55 54 53 52 52 49 48 48 46 47 47 42 41 42 44 45 39 40 40 30 32 30 28 27 26 27 25 19 32 37 42 24 24 19 20 9 3 10 4 3
60 60 57 40 45 40 41 41 42 46 42 48 47 48 47 52 52 51 48 47 49 46 44 43 36 40 38 33 29 29 24 28 30 40 40 27 28 28 24 16 16 9 9 4 5
53 47 31 24 18 30 27 25 23 26 31 42 40 44 48 52 59 56 56 56 55 54 53 45 41 43 42 31 34 24 31 32 35 41 36 28 29 25 28 26 13 13 10 5 9
32 22 18 20 28 20 23 25 28 27 31 35 30 36 42 47 54 57 60 61 59 59 58 52 47 47 41 37 38 32 34 39 44 46 48 36 37 35 31 19 14 15 17 6 6
29 28 26 32 27 30 30 31 30 32 34 34 29 27 30 41 42 48 59 65 65 64 64 62 56 52 47 46 42 41 39 43 51 54 54 41 41 33 26 20 19 16 11 11 7
34 31 31 35 32 27 22 28 30 28 27 32 37 36 33 31 41 39 54 60 67 69 68 68 61 58 53 51 46 43 45 44 51 54 45 39 50 29 30 26 21 22 15 11 14
39 35 35 24 23 27 30 29 32 35 30 31 32 40 41 41 34 44 51 50 63 71 73 72 69 58 52 49 48 47 51 38 42 50 45 48 47 36 33 34 31 23 21 18 16
37 31 20 23 30 32 35 34 35 36 30 30 31 34 38 46 42 40 56 50 50 62 71 73 73 64 57 48 51 49 43 42 47 48 54 53 49 39 32 27 20 17 23 23 14
24 25 23 28 37 41 40 32 35 37 33 38 35 33 37 40 43 46 51 57 57 48 62 70 76 67 62 62 53 52 52 47 42 46 48 50 41 30 33 30 23 27 25 21 17
21 24 28 36 36 41 33 32 34 32 32 38 36 31 37 40 39 43 50 55 59 56 53 63 75 71 68 59 57 49 51 48 45 45 43 37 27 27 26 30 39 41 40 26 26
31 28 37 39 36 35 32 32 31 30 32 35 37 42 41 39 42 44 48 52 56 62 54 57 72 71 64 61 59 55 53 51 47 40 40 37 27 39 39 30 23 38 35 32 29
35 34 35 35 39 39 35 30 28 34 32 30 39 42 39 39 38 42 49 55 62 70 63 60 70 72 71 67 59 62 58 54 53 50 40 38 40 33 26 24 28 22 22 23 22
38 33 39 42 37 37 37 33 28 32 27 23 33 29 24 23 26 30 31 28 49 75 55 59 69 73 75 73 66 63 61 57 53 48 45 34 39 34 23 24 27 24 18 28 28
40 39 38 41 40 39 35 34 32 33 11 16 22 26 26 26 28 29 35 31 27 79 42 50 64 73 74 69 65 61 60 54 50 43 46 36 36 28 27 30 27 27 21 19 18
37 35 40 42 41 38 37 33 30 30 13 17 18 21 25 26 26 18 17 21 29 82 48 40 60 74 69 68 67 59 56 48 44 35 38 37 38 33 28 27 26 30 26 24 23

GFSSW_500_spd_063.txt.gz
Wind_Speed
16 16 16 15 15 15 16 14 14 15 16 15 12 10 8 8 11 12 16 14 14 15 13 12 12 17 17 15 13 13 11 8 5 7 16 11 12 5 11 6 6 7 8 1 10
20 20 20 20 19 18 18 17 16 14 14 16 15 13 12 11 13 11 15 18 18 20 19 19 16 15 19 17 14 14 15 10 8 13 12 13 14 4 7 7 7 9 8 6 5
23 24 24 24 24 23 23 22 20 18 16 15 15 15 15 16 17 14 14 14 18 23 22 22 18 16 14 14 14 17 17 14 13 14 12 17 13 11 11 11 9 9 9 11 6
23 24 25 25 25 25 25 25 24 24 21 19 16 15 14 19 23 18 14 16 16 21 22 19 20 21 18 15 17 18 17 17 17 12 16 14 9 11 10 11 9 8 10 13 10
23 24 25 25 26 26 26 26 26 25 25 24 21 17 16 18 27 20 20 18 18 19 23 25 22 24 24 22 19 20 21 21 18 17 16 6 11 8 3 3 5 8 8 12 11
25 25 25 25 25 25 26 26 26 26 27 27 26 23 20 24 24 21 24 22 20 20 20 23 26 28 32 29 21 25 26 24 23 19 20 10 16 10 6 8 5 8 7 10 14
28 29 29 28 27 26 25 25 25 26 27 27 28 26 23 34 25 21 26 26 22 22 22 25 31 28 28 28 30 29 27 26 22 21 18 13 12 17 11 12 13 11 4 5 9
33 33 33 33 33 33 32 31 28 27 27 28 28 25 25 34 30 30 26 29 28 27 26 30 29 32 32 30 31 32 31 27 21 20 17 19 13 19 8 4 2 4 7 4 8
38 38 38 38 37 37 38 38 36 35 34 30 28 27 28 32 34 31 29 31 34 33 32 32 29 28 35 35 34 35 29 24 28 29 22 19 17 13 12 3 6 5 6 7 8
43 44 43 40 39 41 40 39 40 41 40 35 34 32 33 32 34 33 34 36 34 39 39 34 29 28 31 33 30 29 27 27 30 31 25 19 20 16 11 10 7 3 4 9 6
44 45 47 48 47 46 45 46 47 45 45 42 40 38 38 37 34 35 34 41 41 39 40 38 36 26 17 23 29 31 29 29 32 33 30 28 21 21 17 12 9 7 5 7 8
49 50 52 53 54 54 53 51 49 49 51 50 50 45 43 42 43 42 39 41 45 40 39 44 37 27 29 28 29 31 30 27 33 30 26 27 30 24 22 20 16 8 9 7 7
57 59 60 59 57 60 55 55 55 55 49 50 50 49 47 48 51 50 49 46 46 47 45 42 34 36 36 32 31 31 26 28 29 32 34 35 35 32 24 27 16 12 17 5 4
59 57 53 42 37 33 33 33 37 42 44 44 46 50 48 53 52 52 53 52 50 50 50 50 40 44 42 38 32 30 24 31 31 37 38 33 32 30 26 21 23 13 15 9 3
37 32 29 27 24 23 22 21 21 20 32 32 35 39 46 46 51 53 53 57 56 53 56 53 44 48 47 37 36 24 31 31 36 41 40 39 38 33 33 26 30 15 15 10 6
29 28 28 27 25 23 23 25 25 25 29 28 28 29 34 43 41 46 54 59 61 60 57 58 54 50 42 40 41 34 36 39 44 47 54 44 43 40 31 26 18 21 22 16 10
33 34 34 33 31 31 27 21 22 25 26 29 29 29 30 32 39 41 49 58 64 63 63 63 60 57 50 48 47 44 43 48 54 57 57 44 51 29 32 25 26 23 19 15 13
39 36 29 23 18 19 24 21 27 28 30 34 35 31 29 32 36 37 45 48 62 67 67 68 63 63 58 55 49 50 49 51 56 56 51 41 55 27 27 28 27 28 27 22 16
30 24 22 18 19 25 27 29 34 37 36 39 40 40 40 35 39 40 42 46 52 64 69 72 69 67 63 60 53 54 55 47 49 55 50 50 52 34 36 35 38 33 34 31 25
24 25 26 26 26 30 32 33 34 30 32 37 39 41 41 39 38 45 46 49 52 56 68 74 73 68 67 63 58 54 51 48 55 56 58 55 54 38 38 36 37 37 33 26 25
29 28 32 32 35 37 37 36 35 35 35 36 38 38 40 42 42 47 51 56 53 57 59 71 77 68 67 64 59 55 57 55 51 54 55 50 51 36 37 32 34 28 30 28 22
31 34 31 30 33 35 36 37 35 34 36 37 36 38 41 40 46 48 49 58 58 59 60 63 76 72 71 63 62 61 59 57 58 57 56 50 41 36 38 38 32 36 26 25 23
34 34 35 33 34 32 34 35 36 35 33 31 34 37 40 44 40 38 42 47 58 61 59 61 73 71 63 61 66 66 64 63 59 54 53 50 33 39 34 44 38 39 33 32 27
36 37 36 35 34 35 35 35 35 40 35 30 32 37 38 34 33 34 32 37 43 56 59 61 68 67 70 64 70 70 66 62 63 59 52 51 36 28 37 41 42 42 39 37 37
39 33 34 35 37 38 38 37 36 35 30 29 29 24 21 21 26 33 34 36 44 47 53 57 63 67 68 63 67 68 65 62 64 60 58 44 35 34 39 40 40 39 41 45 42
35 33 32 34 37 38 37 37 35 32 32 27 19 25 29 19 25 27 30 32 39 44 49 58 62 62 64 61 66 62 64 64 64 63 59 44 36 40 46 47 39 28 33 27 30
32 28 28 31 36 37 38 37 35 32 29 19 13 14 20 24 25 27 29 31 35 39 46 58 61 60 60 55 65 63 64 68 64 62 59 46 39 45 43 42 31 36 33 24 24

GFSSW_500_spd_066.txt.gz
Wind_Speed
18 17 17 17 17 16 16 14 14 14 13 12 10 12 13 12 13 13 15 18 15 14 15 10 10 14 15 14 11 11 17 10 2 8 15 15 13 9 9 8 8 8 10 9 13
22 22 22 22 22 21 21 19 18 16 15 14 13 12 15 16 16 13 15 15 20 20 19 19 15 15 18 16 14 14 16 12 9 12 20 13 11 6 7 9 11 11 13 15 7
22 22 23 23 23 23 23 23 23 22 20 18 17 14 14 19 20 16 14 16 19 21 21 19 16 15 15 19 19 18 19 18 15 14 14 12 15 15 11 12 11 11 13 18 10
21 22 23 23 24 24 25 25 25 24 24 23 21 19 17 18 22 20 17 17 20 18 22 20 20 20 18 18 21 21 20 21 18 16 14 14 18 16 9 10 10 12 13 16 17
19 20 21 23 25 25 26 26 27 26 25 25 24 24 23 22 20 21 24 22 21 20 21 24 23 23 24 21 21 24 22 21 19 15 14 13 18 10 5 7 10 12 14 12 17
20 21 23 24 25 25 25 24 26 27 26 26 26 25 25 30 26 21 24 26 24 22 21 23 28 30 30 28 24 28 27 24 20 15 14 13 17 12 9 9 12 12 14 15 15
27 28 30 29 29 29 29 29 28 27 26 25 26 24 27 32 30 27 25 28 28 27 26 27 32 31 29 30 33 32 27 25 23 18 16 17 13 14 11 10 13 13 12 13 12
32 34 34 37 37 38 35 33 34 34 32 29 26 25 27 29 33 33 29 27 30 31 31 30 31 33 34 30 34 36 32 28 25 19 19 19 18 15 12 13 10 10 14 12 15
36 38 39 39 39 40 41 40 38 39 38 35 32 31 30 29 32 33 34 33 32 33 35 34 32 30 35 34 34 37 30 26 26 18 18 23 23 19 18 15 10 12 10 15 14
35 37 38 39 40 40 40 41 42 44 44 42 38 35 35 34 34 32 33 38 37 36 37 36 32 29 32 35 35 31 25 27 26 21 25 19 19 24 22 15 12 12 12 11 15
40 43 44 45 45 44 44 45 46 46 48 45 45 42 39 39 40 39 36 38 41 41 37 36 36 26 21 26 30 33 31 30 28 26 32 27 22 23 22 17 13 14 15 15 12
44 47 50 52 51 54 55 53 52 48 49 49 50 48 47 46 45 44 42 41 41 42 42 41 34 29 31 31 31 34 33 32 31 31 31 31 24 31 29 22 23 17 16 14 14
48 49 50 52 54 50 50 46 43 47 46 48 50 51 50 52 52 49 46 48 45 43 43 43 31 36 37 36 34 34 33 32 32 34 34 39 37 36 35 29 20 17 17 10 11
46 44 40 34 31 28 27 24 22 24 31 34 39 43 46 46 50 53 51 51 51 48 45 47 43 42 41 40 37 34 29 34 36 42 39 35 32 33 32 31 26 21 18 17 10
32 31 31 30 28 29 27 27 23 28 33 22 18 23 32 39 42 45 47 51 53 52 53 47 45 47 43 38 38 29 35 35 38 44 43 42 38 34 40 36 25 20 19 19 14
29 33 35 35 33 30 30 29 31 29 30 27 25 22 23 24 27 32 40 45 53 54 57 54 48 53 49 42 43 38 39 40 44 47 54 45 41 38 37 30 28 24 24 23 15
28 23 22 23 19 14 16 20 21 24 24 24 25 22 22 25 28 28 30 37 47 53 57 59 57 54 53 52 48 51 45 46 50 55 56 46 47 34 38 30 29 25 23 20 16
27 22 21 26 24 24 24 23 26 26 28 31 32 32 30 28 31 33 33 32 40 47 56 60 62 59 59 58 53 53 53 54 56 56 53 46 50 36 39 35 31 29 31 30 24
29 30 25 26 25 29 29 32 32 35 33 32 31 30 34 36 37 36 37 39 38 42 49 60 63 60 62 61 57 57 59 54 53 57 53 53 43 38 45 34 33 31 34 32 28
29 29 27 25 28 28 29 33 36 36 34 33 32 33 37 38 39 40 42 42 42 46 45 53 62 63 61 62 61 59 58 55 60 58 58 58 41 36 42 38 35 39 35 33 29
26 30 31 28 27 27 30 32 32 31 32 31 31 33 35 37 40 42 45 48 48 47 51 51 57 62 63 62 61 60 64 60 60 60 58 56 47 35 37 40 37 39 39 36 31
29 36 33 31 27 28 30 32 32 31 32 34 34 33 36 38 37 41 44 50 50 51 49 55 56 55 62 61 60 63 63 66 65 64 62 58 47 38 35 40 41 41 39 38 33
33 39 31 25 25 27 29 29 30 31 32 34 36 36 37 41 43 44 47 50 53 52 54 54 62 56 55 59 63 61 65 67 67 66 65 61 52 40 39 43 45 43 41 36 37
35 35 27 22 21 25 30 30 31 33 33 32 32 34 38 41 43 45 47 51 52 52 54 57 61 62 55 58 60 65 67 67 69 66 64 64 49 42 42 45 45 42 45 43 44
34 28 24 22 24 29 29 31 32 35 31 33 32 32 35 36 35 34 35 36 35 46 48 59 60 65 56 56 62 62 65 69 71 67 68 60 52 43 40 44 48 49 45 46 44
25 24 21 25 27 27 29 32 34 34 34 30 31 28 19 28 21 21 23 25 30 32 33 42 58 62 59 56 57 62 66 69 73 71 69 61 47 44 39 39 48 54 51 50 49
19 21 25 23 26 29 32 32 35 34 29 32 28 10 17 17 22 19 21 27 30 30 31 32 37 45 51 52 57 61 63 67 74 72 68 62 47 45 41 43 45 54 55 53 48

GFSSW_500_spd_069.txt.gz
Wind_Speed
19 19 19 19 18 17 16 16 16 14 12 11 9 13 14 13 14 12 17 18 15 15 14 9 10 15 14 10 11 8 11 15 9 10 13 14 11 12 7 7 7 9 10 11 14
21 21 22 22 22 21 20 21 20 19 17 15 14 11 15 17 17 13 16 17 22 19 18 17 14 15 15 14 13 12 14 14 6 8 13 13 11 7 5 6 7 11 13 15 12
20 20 20 22 22 22 22 22 22 22 21 21 19 17 15 17 19 18 16 16 19 23 21 17 14 12 14 18 18 17 18 15 10 7 10 16 10 12 4 5 9 12 16 18 13
16 17 18 19 20 21 23 24 24 24 24 23 23 21 21 19 19 20 20 19 21 18 22 21 19 19 16 19 22 22 22 21 17 12 13 14 9 10 8 6 10 12 14 17 19
16 15 15 16 17 18 20 22 23 24 26 25 24 25 24 25 22 20 23 24 23 20 21 24 25 24 24 21 24 24 24 21 19 17 16 15 11 13 9 10 13 13 16 17 17
21 21 23 22 22 22 21 20 22 23 23 24 25 26 27 27 27 25 23 24 26 24 23 24 29 31 30 29 27 28 28 24 20 18 18 14 13 12 14 12 17 14 17 17 17
27 27 27 29 30 29 29 28 28 26 25 26 24 24 27 27 29 29 29 27 26 29 26 27 28 32 31 32 32 32 28 25 21 21 19 16 11 12 15 15 15 17 18 18 17
32 34 32 31 31 31 32 32 33 34 32 29 28 29 28 27 30 30 31 31 30 29 31 31 30 30 32 31 34 34 31 26 23 21 20 16 15 18 17 15 17 18 18 18 20
29 30 30 30 32 34 35 35 34 34 34 34 35 32 33 31 31 31 30 33 35 33 33 34 32 31 30 32 34 37 32 25 25 22 21 17 20 20 19 17 16 15 18 20 20
31 32 32 33 35 36 37 38 40 40 37 38 37 38 39 37 36 34 33 33 35 39 38 34 33 31 29 29 31 29 26 28 25 23 22 19 26 25 26 21 18 17 15 16 21
35 38 38 38 37 37 39 39 41 43 42 41 42 42 43 42 39 38 37 38 37 38 39 37 34 27 24 27 28 30 31 29 28 27 26 21 29 29 32 23 19 19 20 20 21
36 39 39 41 42 45 46 47 48 43 44 43 44 45 46 47 43 42 41 42 40 39 38 41 34 30 35 32 32 33 35 33 30 30 30 30 31 33 29 27 25 23 22 21 17
39 39 38 40 44 45 45 40 39 36 37 37 38 41 45 48 47 47 46 45 44 43 42 39 33 37 38 37 34 33 34 33 32 35 33 38 39 35 31 29 29 22 21 18 19
38 35 30 35 39 40 40 36 30 25 32 30 26 29 35 42 46 48 47 49 48 47 47 45 41 43 41 41 40 37 31 35 35 38 38 40 46 43 33 29 32 22 18 19 18
30 25 27 29 30 28 26 25 28 27 30 27 23 19 18 22 32 40 41 44 49 52 52 48 45 44 45 41 42 35 35 35 38 43 42 44 46 44 40 37 33 26 21 20 18
25 21 19 19 17 16 16 16 14 14 19 18 17 17 19 21 21 22 25 36 44 51 54 53 51 51 47 48 45 42 42 40 44 46 56 47 48 44 41 34 30 32 29 24 25
24 21 21 20 23 22 19 20 20 23 25 23 22 22 23 23 21 22 24 26 34 43 52 55 55 55 53 50 49 52 50 46 47 54 55 46 51 40 41 37 33 28 27 29 28
24 23 24 25 25 27 25 23 28 29 31 29 29 29 28 28 32 30 28 26 29 35 43 52 56 57 59 54 54 53 54 52 53 54 51 50 55 40 39 38 41 34 33 33 30
22 23 23 23 25 23 25 30 32 31 33 33 32 32 31 31 31 35 35 33 31 31 37 43 53 57 60 57 55 58 58 51 55 55 51 56 52 36 46 44 44 38 37 32 27
21 21 21 27 28 24 26 28 30 33 34 33 32 33 33 33 34 36 38 38 39 39 36 40 46 54 59 59 57 57 58 57 58 60 58 60 48 41 46 42 43 42 42 35 33
22 22 27 31 31 27 25 26 28 30 33 35 35 37 36 37 38 40 42 43 42 43 43 41 42 47 53 60 59 60 60 63 60 61 61 60 49 43 40 41 48 41 38 36 37
21 25 28 34 28 24 22 23 28 28 30 32 34 34 36 38 42 43 44 45 46 48 49 49 47 44 45 54 61 60 62 64 66 64 64 63 53 43 35 41 49 43 41 41 37
20 24 29 25 22 21 22 22 23 29 31 35 36 38 41 42 43 45 48 48 46 46 50 53 53 50 44 47 53 63 62 66 66 65 66 65 57 46 41 44 46 43 44 47 44
19 22 19 16 18 19 20 24 26 31 35 36 38 40 41 40 41 40 42 44 43 43 47 51 55 55 51 51 54 62 67 65 70 70 66 66 59 49 42 44 48 48 46 49 43
17 16 17 16 17 18 20 23 28 34 36 38 37 32 30 31 32 34 36 39 40 40 42 47 51 55 53 52 54 56 65 69 71 71 71 65 59 54 48 45 54 55 54 54 52
18 15 17 19 20 22 24 25 32 33 31 29 28 21 16 16 15 21 19 18 23 28 32 43 46 49 52 53 55 57 59 67 70 72 75 69 63 53 50 47 52 59 58 56 57
17 17 19 20 23 25 28 31 35 31 24 20 18 20 19 16 13 12 22 26 25 21 22 24 31 40 47 49 55 54 55 62 71 72 73 70 62 55 52 46 49 56 59 57 53

GFSSW_500_spd_072.txt.gz
Wind_Speed
19 19 19 19 19 19 18 18 16 15 14 11 10 12 15 15 14 15 19 17 17 17 16 11 12 15 16 12 11 12 11 15 13 11 13 13 13 11 8 6 7 7 9 13 13
18 19 19 19 19 20 20 20 20 20 19 17 15 13 13 16 18 15 18 19 20 18 18 17 16 17 18 15 14 14 16 21 11 11 11 10 8 8 6 6 8 10 12 15 14
17 18 18 18 18 20 20 21 21 21 20 20 20 19 17 16 18 18 17 18 22 24 20 17 15 12 16 18 18 16 24 19 11 9 9 12 8 6 7 3 7 11 13 17 15
14 15 15 14 13 14 16 18 20 21 21 22 21 21 21 21 19 17 18 20 20 19 24 22 20 18 16 18 21 22 24 21 14 10 9 12 12 6 10 8 7 11 14 17 17
15 14 15 16 16 16 14 14 15 17 18 19 21 23 23 24 24 21 19 20 23 20 22 26 26 25 23 23 25 26 25 22 16 13 10 11 14 9 10 7 8 11 15 18 17
18 19 20 20 21 21 22 21 19 17 16 17 19 20 22 25 25 25 24 23 23 24 22 24 29 29 28 27 29 31 28 22 19 18 15 14 14 10 11 11 12 14 16 18 18
23 22 24 25 26 27 26 26 26 24 23 22 21 21 23 23 26 26 26 27 25 25 26 27 27 31 30 31 31 30 30 25 21 20 18 16 15 14 14 14 15 18 17 18 18
28 27 25 23 23 23 24 23 23 23 24 25 25 27 24 25 25 25 27 29 30 29 27 29 29 28 31 30 32 31 30 21 24 22 19 18 16 15 15 14 16 18 20 21 21
28 26 25 25 26 26 26 27 27 27 28 28 28 27 28 29 27 28 28 29 30 32 32 30 31 29 28 30 34 36 31 24 25 23 21 21 22 17 15 15 17 21 22 23 24
30 28 28 29 29 30 31 29 28 28 28 30 32 32 31 32 33 32 32 32 31 33 35 34 31 30 30 29 31 33 29 29 28 25 23 22 24 23 18 18 20 21 21 24 24
29 29 30 29 30 31 31 31 30 30 32 32 33 36 38 37 36 37 37 36 36 36 35 35 36 28 27 29 32 31 34 32 31 33 28 24 26 27 25 25 23 21 20 22 25
32 32 33 34 33 31 29 29 33 32 34 37 37 38 38 40 41 41 41 42 40 39 39 37 33 33 34 36 34 32 35 35 33 36 33 29 31 30 30 33 29 24 21 21 22
34 34 33 32 33 33 32 30 27 30 33 32 32 34 36 37 40 44 45 47 45 44 42 40 36 38 39 38 38 35 35 36 35 33 35 33 34 35 35 37 32 27 23 22 22
33 35 32 30 32 28 29 26 21 19 29 29 26 27 33 39 38 40 46 48 50 49 47 46 43 41 42 41 41 40 35 39 38 41 36 36 34 36 36 36 35 30 22 20 20
33 30 27 27 25 19 17 15 12 12 16 16 14 16 19 25 31 33 38 43 47 52 53 50 47 46 43 43 43 39 41 40 39 44 42 39 43 32 40 40 37 29 24 21 20
27 21 22 21 20 20 16 13 9 9 11 11 15 18 18 19 22 27 26 31 41 48 55 55 53 53 48 48 48 43 47 42 42 45 52 49 44 42 45 43 35 32 28 23 22
23 20 20 19 19 19 21 21 19 19 19 21 24 26 26 24 25 24 25 27 28 37 47 54 58 56 56 52 50 51 48 48 47 49 52 48 51 47 43 46 40 35 32 29 29
23 22 17 17 16 18 18 20 24 24 26 26 28 29 31 30 31 30 31 29 24 25 32 43 53 60 60 57 53 54 52 52 50 47 48 47 55 52 49 48 46 43 39 38 36
23 22 18 16 18 19 21 20 21 26 28 30 31 33 33 32 34 35 35 38 35 30 30 37 39 53 60 59 58 56 58 51 41 31 48 39 49 51 48 48 47 46 42 40 35
21 19 18 18 22 22 23 21 24 25 25 26 30 34 35 36 34 38 40 40 40 39 36 36 35 44 56 60 59 58 52 56 56 48 51 42 41 50 47 45 43 43 44 36 34
16 16 17 20 22 26 20 18 18 19 23 25 26 30 32 35 35 39 41 45 42 44 45 42 37 42 43 51 56 59 62 58 55 57 52 40 35 48 43 42 43 42 44 39 39
14 12 14 19 20 14 13 14 17 19 23 28 30 32 34 37 37 38 44 45 46 47 47 49 47 45 40 47 54 60 62 61 53 60 60 38 34 49 49 36 37 43 46 47 45
16 15 14 12 12 12 12 13 16 18 23 29 33 36 38 40 40 44 46 50 51 51 53 54 52 50 45 44 44 49 57 63 50 50 53 55 48 46 52 40 41 44 50 51 50
13 12 13 13 14 14 14 16 19 24 30 34 36 41 42 42 41 40 40 48 47 49 55 56 56 57 50 40 47 53 55 62 65 64 61 58 38 56 51 43 46 52 54 52 50
14 12 12 13 15 17 18 20 23 27 32 34 35 29 22 25 24 26 29 32 36 42 43 50 55 57 58 56 53 57 60 58 70 72 68 51 47 56 56 51 42 49 54 54 51
17 16 16 15 20 20 19 22 25 28 28 25 17 18 16 19 18 19 13 15 18 24 32 39 45 53 55 56 59 58 61 58 63 71 72 69 64 61 64 51 45 52 56 58 56
18 19 21 23 23 22 22 21 23 25 19 16 15 17 19 20 20 19 18 16 17 18 17 21 31 44 49 48 58 61 55 55 59 62 70 73 66 61 61 52 50 49 56 56 53

GFSSW_500_spd_075.txt.gz
Wind_Speed
19 19 19 19 19 18 18 18 17 16 14 12 12 12 14 15 14 15 19 17 16 17 15 14 13 13 15 13 10 9 14 13 13 11 6 14 14 10 12 6 5 5 7 10 8
20 19 19 19 19 19 18 19 19 18 17 16 16 15 14 15 17 16 18 20 19 18 16 16 15 17 17 16 13 15 15 15 5 18 26 12 13 10 9 6 5 6 9 11 11
19 19 18 18 18 19 19 19 19 20 20 18 18 18 18 17 17 15 19 19 21 21 18 17 15 13 15 18 16 18 17 11 16 14 11 9 8 5 7 7 6 8 11 13 13
16 16 16 16 16 15 15 16 16 16 18 19 20 19 20 20 19 18 16 20 20 22 24 20 19 18 15 19 20 19 20 22 11 11 8 8 8 4 7 11 4 7 10 14 15
18 18 18 18 18 18 19 18 16 14 13 16 17 18 20 22 19 21 20 19 21 21 23 26 24 23 21 21 25 23 25 25 18 10 9 14 8 10 9 8 5 9 11 16 16
21 20 20 20 20 20 21 21 22 21 19 18 16 16 18 18 21 21 22 23 21 22 23 23 26 27 26 25 24 27 28 27 20 16 13 11 14 14 12 12 8 10 12 15 17
23 24 25 26 26 25 25 24 23 22 23 23 23 22 19 17 18 19 23 24 24 23 22 25 25 27 27 27 27 24 25 24 22 19 18 16 16 17 15 14 11 11 15 15 17
26 26 26 26 28 27 25 23 22 23 23 22 23 24 25 24 21 20 20 23 25 27 26 25 27 26 27 30 28 27 26 24 24 23 21 21 18 18 15 16 15 12 17 18 17
27 27 27 27 28 27 26 25 25 25 24 25 25 25 25 24 24 25 23 24 23 26 29 28 26 28 27 27 29 32 28 24 24 26 24 23 21 32 19 16 15 13 18 20 22
30 28 27 27 27 29 29 28 28 28 27 26 26 26 27 28 28 27 29 27 27 27 28 29 30 27 30 28 26 29 28 29 26 28 26 26 25 31 10 16 16 14 18 21 23
28 28 28 28 29 30 30 29 29 29 29 29 29 29 27 28 28 30 31 32 32 31 29 29 32 29 24 30 27 26 28 31 27 27 28 28 26 31 15 22 20 14 17 21 23
29 28 26 28 30 30 31 31 31 30 29 31 32 31 33 32 32 34 36 36 36 36 34 35 30 28 33 33 34 34 31 33 32 29 29 29 28 34 21 25 25 16 19 21 22
31 32 29 29 29 29 29 29 29 30 28 27 29 29 29 32 34 34 37 41 42 41 41 39 35 34 37 38 37 38 33 33 36 28 33 27 29 32 38 33 27 26 23 20 18
33 31 30 29 29 27 26 26 25 24 22 26 25 27 27 31 31 33 35 39 43 45 46 46 43 42 40 41 40 38 35 37 39 34 33 37 31 33 41 24 23 32 27 23 20
29 29 27 25 23 21 19 18 15 20 9 18 18 18 20 23 27 28 33 37 40 45 50 49 49 49 45 41 41 40 39 39 39 44 35 28 38 27 34 36 31 34 28 22 19
26 23 21 19 19 19 19 19 15 13 13 10 11 12 13 14 17 18 21 28 34 43 50 54 53 54 50 48 46 44 44 45 42 43 48 44 32 34 31 35 32 34 30 26 23
23 21 18 19 17 17 17 15 20 17 25 22 20 20 21 22 23 24 24 24 24 31 40 47 56 58 57 55 50 47 48 46 46 46 49 43 43 32 30 36 29 33 31 30 26
23 20 18 18 15 14 13 13 15 22 28 24 25 25 26 27 28 27 29 29 29 27 29 22 34 54 54 60 53 53 52 51 37 39 44 41 43 46 36 23 32 27 36 34 32
17 17 15 16 16 13 13 17 19 20 19 20 24 27 28 28 27 31 30 33 39 31 28 23 27 27 36 55 54 49 55 47 33 27 33 29 41 34 45 31 36 42 36 45 37
14 10 9 12 15 16 17 21 20 19 20 21 21 24 24 30 30 30 34 39 39 39 35 37 35 36 33 44 50 43 32 47 43 39 34 31 29 33 41 44 42 42 34 37 35
12 9 6 6 9 13 17 15 12 12 16 17 21 25 26 29 33 29 33 40 43 44 41 41 43 37 31 41 45 54 57 46 37 41 37 29 29 25 30 41 41 46 45 44 42
13 10 8 7 6 6 8 10 11 11 14 17 22 24 29 33 37 36 37 39 44 43 44 44 46 46 39 29 33 37 38 50 39 39 42 33 29 14 26 27 31 42 32 38 38
13 11 10 9 9 8 8 8 9 12 16 20 25 28 31 34 36 36 39 44 49 44 43 47 48 46 49 45 36 45 52 50 50 37 39 40 34 25 37 34 23 24 33 33 40
15 13 12 11 11 12 12 14 15 17 20 24 27 30 28 21 21 19 23 29 44 46 50 51 50 51 41 32 41 37 45 47 41 49 42 39 37 26 19 24 37 41 48 57 57
12 14 13 13 15 14 15 16 18 19 21 25 25 20 11 15 19 22 24 27 26 32 45 46 54 53 56 51 49 47 47 52 54 55 50 43 36 38 28 29 42 45 44 51 47
13 14 15 15 16 14 17 18 18 20 21 21 15 4 9 14 17 21 21 23 24 22 28 35 42 53 61 59 60 56 57 55 62 68 66 59 54 50 44 42 47 47 46 46 52
17 19 20 19 17 17 18 18 18 19 18 12 4 5 11 12 22 20 20 19 19 19 24 24 32 36 48 52 54 65 62 57 57 57 64 66 59 64 51 48 52 57 43 47 53

GFSSW_500_spd_078.txt.gz
Wind_Speed
19 19 20 19 19 18 18 16 16 14 14 14 12 13 13 14 13 15 17 16 16 16 14 14 13 14 16 14 12 11 15 12 3 5 12 11 10 9 12 10 8 6 7 7 5
19 19 19 19 19 19 18 18 18 16 15 15 16 15 15 14 14 14 17 19 19 17 17 16 15 16 17 18 16 15 18 18 16 12 15 12 15 16 11 9 6 6 6 6 7
17 17 17 18 18 18 18 18 18 18 17 17 17 17 17 17 15 13 17 18 20 20 17 17 15 12 12 16 17 17 18 17 15 21 13 6 7 5 13 10 7 8 6 7 8
17 17 17 17 17 17 17 16 16 16 16 17 17 18 19 19 16 18 15 18 19 19 22 20 19 16 13 15 19 19 19 16 12 9 11 7 5 19 4 8 5 5 7 6 9
20 21 20 20 19 19 19 19 19 18 16 15 16 16 18 21 16 21 19 18 18 21 21 23 20 20 18 17 21 20 15 17 10 9 4 10 14 12 12 4 1 5 6 7 10
22 23 24 23 23 22 22 22 22 22 22 21 18 16 15 18 17 19 21 20 20 19 22 23 24 24 22 21 19 22 20 20 19 11 3 10 12 9 8 4 8 5 8 10 10
26 25 25 26 26 26 26 26 26 25 24 23 24 22 21 15 17 18 20 21 21 22 20 23 23 25 27 24 21 19 22 22 20 12 10 13 6 13 10 13 8 10 10 11 10
28 27 27 27 28 28 28 27 28 28 27 27 26 25 24 23 21 19 18 19 21 23 24 22 24 24 26 28 27 23 21 22 23 21 18 16 12 19 15 15 12 11 10 12 11
29 29 28 28 28 28 28 27 27 27 28 27 27 27 26 25 25 23 23 20 20 21 25 25 24 25 26 26 29 26 23 20 24 24 22 21 19 23 28 27 16 14 12 12 14
30 30 30 29 28 27 27 26 27 27 28 28 28 27 29 28 27 26 23 23 23 22 22 24 25 26 27 28 23 25 24 25 23 22 25 27 30 28 24 16 12 13 14 11 14
29 29 28 29 29 30 29 28 28 27 27 28 29 29 27 28 28 29 28 27 27 26 25 23 25 24 24 24 26 26 27 24 27 21 21 25 28 27 27 30 26 14 13 10 14
32 31 29 29 30 29 30 31 31 30 29 30 29 30 29 29 29 28 28 30 30 29 30 29 24 23 26 30 29 30 29 31 20 20 22 23 31 32 27 23 18 12 10 12 13
26 28 29 30 30 30 30 31 30 30 30 27 29 29 30 31 31 32 32 32 33 33 32 33 29 31 29 30 34 33 34 28 32 23 22 25 29 32 31 33 23 19 16 15 12
29 27 26 27 28 28 29 29 29 30 28 33 29 29 27 28 31 31 33 34 36 37 38 38 37 38 36 33 34 36 34 33 35 33 27 26 30 35 31 20 16 27 23 20 14
28 27 28 28 25 24 23 22 20 22 8 26 24 26 25 28 29 28 29 31 32 35 39 39 42 44 42 40 39 37 36 36 37 38 37 30 30 25 33 30 27 34 26 23 19
27 24 21 19 19 18 16 15 16 16 12 16 16 16 17 18 21 21 23 27 29 33 37 40 45 47 48 45 45 43 41 41 40 39 46 41 29 27 41 26 28 20 24 25 24
23 22 19 17 16 14 11 12 14 13 17 25 21 13 15 19 17 16 17 17 20 24 28 35 39 45 50 52 49 48 45 42 43 42 47 42 44 37 19 28 28 24 27 26 25
17 14 14 14 14 13 11 9 8 7 20 29 20 21 22 25 20 24 20 21 21 23 22 24 19 34 42 50 48 52 48 43 43 39 42 41 44 42 27 30 37 31 35 26 29
14 11 8 9 12 13 12 9 15 21 20 14 15 20 23 27 24 27 26 24 18 30 29 28 26 14 21 29 48 43 44 44 31 27 32 27 34 34 33 25 35 32 34 38 41
12 10 6 2 7 11 12 13 20 18 16 19 16 19 14 13 24 20 25 29 30 33 32 30 32 29 20 16 27 39 35 35 36 34 35 25 26 31 28 42 32 48 40 47 42
10 7 5 2 2 7 13 17 12 12 17 17 18 20 20 23 26 26 25 28 32 34 35 38 37 30 41 24 28 31 42 35 30 37 34 27 22 18 31 26 44 45 49 45 39
9 7 8 6 2 0 4 6 8 7 11 11 16 16 21 22 25 30 33 31 35 36 37 39 40 42 40 46 19 41 37 36 35 42 39 29 25 17 26 29 30 33 38 43 43
13 11 10 9 8 6 5 6 7 8 10 13 17 20 24 28 32 34 38 40 39 40 43 41 37 43 43 46 48 36 44 47 36 36 37 34 38 20 24 20 27 29 33 34 34
9 10 9 8 9 9 9 10 11 14 15 18 21 22 23 23 23 22 22 23 28 35 42 46 44 44 49 33 39 37 36 51 37 34 39 41 37 29 28 31 29 35 34 41 38
12 13 13 12 10 12 12 14 15 16 17 19 21 20 17 16 16 11 13 20 24 32 29 35 40 51 51 51 45 49 43 40 43 46 49 40 42 43 40 44 46 36 31 35 48
16 16 15 14 15 15 14 14 16 18 19 22 22 14 11 7 7 16 19 22 25 30 35 28 32 43 59 54 58 57 57 53 56 60 57 56 58 44 44 49 43 54 55 50 53
17 17 15 14 14 14 16 16 18 20 20 18 14 12 11 8 10 16 22 23 20 20 22 23 24 28 40 52 60 62 58 59 56 61 53 69 53 43 52 46 56 60 54 58 59

GFSSW_500_spd_081.txt.gz
Wind_Speed
19 19 18 18 17 17 16 15 14 14 14 14 13 12 11 12 12 14 17 18 17 15 14 14 16 18 17 16 14 12 13 8 5 14 12 21 20 17 10 11 10 7 6 5 2
18 19 19 19 18 17 17 17 16 16 15 15 15 15 14 12 12 14 17 18 20 17 16 15 15 16 19 21 20 15 15 13 15 8 6 6 14 11 7 15 13 5 4 4 2
18 18 18 17 17 17 17 17 17 17 17 16 17 16 16 15 11 16 16 17 19 20 17 17 15 14 15 17 18 14 12 11 12 12 5 3 6 10 8 4 3 3 5 3 1
19 19 19 19 18 17 16 16 16 16 15 16 16 18 18 17 14 16 15 18 18 19 22 18 18 16 15 14 17 15 12 11 13 6 8 14 9 7 15 14 6 6 6 3 1
21 22 22 22 21 21 20 19 18 18 16 15 15 15 18 20 15 19 19 17 17 20 20 23 20 20 18 18 17 15 12 14 12 10 10 9 6 15 14 16 9 6 6 3 3
25 24 24 24 24 24 24 23 22 22 21 20 19 17 15 17 16 22 21 21 19 18 20 20 23 22 22 21 17 17 16 12 9 10 17 5 7 4 5 11 8 6 5 7 4
29 27 26 26 26 26 26 25 24 24 24 23 22 22 21 15 20 21 20 21 21 20 19 22 23 25 25 23 23 17 14 17 14 14 5 8 9 4 15 14 7 4 6 8 5
31 30 29 28 27 27 27 29 28 28 28 27 27 26 23 23 21 20 18 19 21 22 23 22 24 24 26 28 24 21 15 12 16 16 9 9 6 11 16 10 6 6 5 8 7
32 31 29 27 27 27 27 28 27 27 26 26 26 27 27 26 24 23 23 21 20 21 23 24 23 23 25 24 26 21 17 14 15 16 17 18 22 15 21 6 17 5 4 7 9
30 31 30 30 28 27 27 27 27 27 27 28 27 28 27 26 26 26 26 25 23 22 22 22 23 23 23 24 18 21 20 18 15 17 20 20 24 18 20 18 10 9 9 8 9
27 29 30 29 30 29 27 26 27 25 27 28 28 28 28 28 26 28 28 27 27 28 24 22 22 21 23 22 24 23 27 27 23 6 17 19 24 21 24 19 15 20 13 15 11
22 23 25 28 30 30 30 29 28 28 28 28 28 28 28 28 28 26 27 31 31 28 27 27 21 20 22 25 25 26 25 27 27 15 11 16 23 19 17 20 24 27 28 19 12
25 24 25 25 27 28 30 32 30 30 27 27 29 29 30 29 29 28 29 29 31 32 31 30 27 28 26 26 28 28 26 25 28 26 26 24 27 26 24 22 25 27 18 19 13
30 30 27 26 26 27 28 29 29 31 29 28 27 28 28 29 31 31 32 32 32 32 33 33 32 33 31 28 28 29 29 27 28 35 34 29 28 35 30 22 19 30 24 22 12
25 27 28 26 23 25 25 26 24 27 23 27 22 24 25 29 29 29 28 31 32 35 36 35 37 36 34 34 33 29 32 32 34 34 36 37 37 31 35 31 27 24 14 28 19
24 23 23 21 18 16 18 17 15 12 10 11 16 15 18 22 27 25 24 28 28 31 35 34 39 41 40 39 38 37 35 35 38 40 40 36 41 37 32 27 24 21 17 17 17
18 19 16 15 12 11 11 11 11 8 10 17 23 13 13 16 19 15 18 18 20 24 29 35 35 36 40 46 43 42 41 39 39 41 37 34 40 39 35 23 15 22 21 12 12
15 16 14 8 9 9 11 11 17 17 21 19 18 13 16 19 19 18 17 16 15 23 26 28 32 27 21 32 42 46 44 43 42 39 35 31 40 36 35 33 22 23 22 23 20
15 13 11 3 6 9 14 15 23 17 16 17 10 14 17 21 22 22 22 21 25 27 28 28 29 34 36 40 38 40 44 41 41 38 36 33 29 27 24 30 32 32 28 27 27
11 9 6 3 6 9 11 16 14 15 19 20 19 18 13 12 23 23 22 26 28 30 26 27 26 24 32 39 41 43 39 33 35 39 42 35 28 15 9 17 39 38 26 26 28
8 8 3 3 5 9 14 17 14 12 20 22 22 21 26 27 24 22 25 25 24 28 28 28 29 26 28 31 31 29 28 33 30 32 37 35 28 13 19 9 24 26 28 42 41
11 2 8 6 0 3 4 5 7 6 14 11 17 19 21 24 24 25 27 27 24 26 30 30 32 32 32 30 29 37 38 43 39 37 34 33 28 24 18 22 29 26 24 26 37
11 11 8 7 4 3 4 5 7 7 10 12 15 16 19 21 24 27 30 31 29 28 31 32 34 35 33 35 42 42 43 42 43 45 42 39 41 31 22 13 29 27 26 30 31
12 11 11 11 11 10 10 13 12 15 15 18 20 21 22 24 28 31 30 33 31 30 31 33 35 37 38 38 49 49 48 43 51 44 41 47 46 38 29 22 31 40 41 36 35
16 15 16 13 12 13 15 16 17 18 17 18 20 20 22 22 23 22 22 19 18 20 23 23 28 36 40 44 48 53 54 55 50 45 48 51 51 49 40 36 33 38 37 30 41
18 17 16 16 16 15 14 14 16 16 15 15 15 15 17 18 19 16 16 16 14 15 19 21 23 27 36 40 44 56 59 63 61 52 52 58 47 67 52 46 45 48 49 47 34
17 16 16 17 15 14 13 14 15 15 14 13 12 11 13 16 18 17 14 11 11 16 21 27 30 31 33 35 37 56 54 61 64 65 68 55 54 76 60 57 54 56 50 56 47

GFSSW_500_spd_084.txt.gz
Wind_Speed
20 20 20 19 19 17 17 16 16 16 14 14 13 12 10 12 14 17 21 18 18 17 16 16 20 19 18 17 14 10 11 8 12 9 11 21 20 25 16 15 10 9 2 6 8
20 19 19 20 20 19 19 18 18 17 16 16 16 15 13 12 14 16 19 22 21 19 17 17 18 20 21 20 17 14 13 10 10 11 4 16 13 22 11 13 16 9 4 5 8
22 21 20 19 19 19 19 19 20 19 19 18 18 17 16 15 16 15 18 19 23 23 19 20 17 16 16 15 16 18 12 13 9 8 7 6 4 11 13 11 14 9 6 5 9
22 22 22 21 20 20 19 19 19 19 19 19 20 20 18 17 18 17 17 19 19 23 25 20 19 18 15 12 14 17 14 16 8 4 5 9 14 18 12 16 10 8 9 4 8
25 23 23 22 22 22 22 21 20 20 19 18 19 20 21 19 18 21 20 19 18 22 24 25 22 19 18 18 14 16 16 16 9 6 5 1 10 3 16 14 10 9 7 7 8
28 27 26 25 24 24 24 24 24 23 21 20 20 18 19 18 19 24 22 21 19 19 21 23 29 27 22 21 19 17 16 16 16 13 7 3 3 6 8 13 4 2 6 6 7
29 29 29 28 27 26 26 25 26 25 23 22 22 21 21 21 20 22 22 23 23 22 20 25 25 27 26 21 22 18 11 16 12 9 15 7 7 7 5 5 8 3 5 5 5
30 29 28 27 29 30 28 27 27 26 25 24 23 22 24 24 23 21 22 22 23 24 26 25 25 25 25 25 20 15 10 10 11 13 13 9 8 5 9 7 9 6 7 2 4
27 28 29 28 27 28 29 29 28 27 26 25 25 26 26 24 25 25 23 22 23 25 27 27 24 24 24 23 21 19 13 12 12 12 11 13 10 12 6 8 8 10 8 7 7
23 24 28 28 27 27 28 28 28 28 26 26 25 24 26 25 27 27 28 26 23 24 24 25 24 24 21 19 18 20 23 21 19 12 13 17 15 9 9 4 3 10 4 8 7
21 21 22 26 28 28 28 27 27 27 27 27 27 26 26 26 26 28 29 30 29 28 24 25 24 22 22 21 22 21 23 22 23 19 15 15 15 10 10 7 7 15 12 8 8
26 25 23 22 25 28 29 28 28 27 27 28 28 28 28 27 28 29 28 30 31 31 30 26 22 21 25 24 24 24 23 21 25 24 24 18 8 12 12 10 11 12 7 17 14
27 28 27 25 25 27 29 29 30 28 26 26 29 29 28 29 27 29 30 30 32 33 31 29 28 28 28 28 27 26 24 23 28 27 27 25 22 18 14 14 11 9 10 15 20
25 25 25 27 24 25 28 27 28 28 24 25 25 24 28 29 28 29 31 31 31 34 35 34 32 32 30 27 28 29 24 26 30 31 25 27 23 22 18 18 11 9 9 8 11
25 22 21 22 21 20 22 27 24 26 18 19 22 24 25 28 27 29 31 31 32 34 34 36 37 35 34 31 30 29 29 28 32 34 35 30 29 26 25 18 12 10 5 11 16
16 15 16 16 16 16 17 14 18 17 15 14 17 18 21 26 27 29 27 30 34 35 35 33 36 37 36 36 37 35 33 34 35 36 35 30 30 30 29 21 18 18 6 9 20
14 15 15 13 8 11 14 14 20 19 18 20 16 11 16 18 20 24 24 26 30 33 36 38 39 38 39 38 38 38 36 34 35 37 34 37 40 30 27 25 19 17 19 15 20
13 15 14 8 4 9 15 19 23 22 22 21 10 12 12 16 18 20 22 25 29 30 33 33 34 39 40 42 40 40 39 38 37 35 33 33 47 34 27 25 27 25 20 22 24
15 13 12 6 4 11 12 16 21 20 17 14 10 10 14 17 15 21 25 25 28 29 31 30 30 35 36 39 43 39 41 39 39 36 37 34 31 25 41 37 34 28 26 23 21
14 12 9 5 3 9 12 14 17 14 12 20 20 15 15 18 27 27 29 29 29 27 26 24 19 25 25 30 36 40 42 40 43 42 41 34 26 29 31 32 35 34 33 20 21
16 14 9 6 3 5 8 11 12 15 17 21 22 21 22 23 24 24 25 25 24 23 23 27 23 22 24 27 30 32 38 41 42 38 38 34 26 30 34 32 31 33 31 14 18
13 13 11 9 7 4 5 8 9 13 20 22 18 21 24 27 27 24 21 20 20 20 21 24 25 24 27 34 34 33 35 37 45 39 38 34 33 35 35 34 33 30 28 24 17
13 13 12 11 8 8 8 8 8 9 13 14 15 16 17 22 26 26 23 23 23 21 22 24 28 28 30 36 39 37 36 40 41 46 41 38 34 39 37 32 35 35 35 34 32
13 12 13 11 11 11 11 11 13 15 16 18 18 19 20 22 25 29 27 25 24 24 28 29 29 30 34 37 40 42 42 42 41 44 48 48 43 47 41 38 27 36 39 41 38
16 16 15 12 13 13 13 13 14 14 16 17 19 21 22 23 25 23 25 27 30 30 29 30 31 32 34 35 39 41 46 49 45 48 49 51 47 53 51 44 33 27 37 42 40
13 15 17 15 12 13 13 12 11 11 10 10 12 15 13 14 14 16 21 24 27 29 26 25 24 28 30 35 36 37 46 53 52 54 52 55 54 60 60 43 46 35 36 41 45
16 16 14 20 16 13 11 10 9 9 6 7 6 3 6 11 14 16 17 18 19 22 25 22 22 25 25 28 31 37 40 53 59 60 61 59 58 61 62 59 55 46 40 45 49

GFSSW_500_spd_087.txt.gz
Wind_Speed
22 23 24 24 23 22 22 20 20 18 17 17 15 12 13 17 20 22 19 19 18 18 17 18 16 14 16 14 9 10 9 8 9 5 20 3 15 21 14 15 10 11 6 2 12
23 23 23 23 25 25 24 23 22 21 20 20 19 17 16 16 19 20 24 21 21 20 19 17 16 18 18 16 14 13 10 9 8 9 9 8 20 20 18 13 14 11 7 3 9
26 25 25 24 24 24 25 25 24 24 23 22 21 20 20 20 18 19 21 23 24 22 21 18 16 15 16 14 17 15 13 11 10 6 5 4 3 7 19 24 14 11 9 7 9
30 28 26 25 25 25 24 24 25 25 25 24 23 23 21 22 21 20 20 22 25 26 24 20 19 18 14 14 14 14 18 14 10 9 11 10 7 11 20 22 16 13 10 6 9
31 30 28 27 26 26 25 25 24 24 24 24 24 24 23 23 22 23 24 21 23 26 26 24 21 21 21 18 15 14 16 14 11 13 8 7 10 15 12 21 25 17 13 10 8
30 31 30 29 28 27 26 25 26 26 25 23 23 23 23 22 24 26 24 23 23 24 24 28 29 24 22 19 19 15 13 11 12 16 14 5 8 7 14 8 23 16 16 11 9
29 29 30 30 31 29 28 27 26 26 27 26 24 25 25 21 20 24 25 25 24 23 26 28 27 27 24 21 18 16 13 9 10 13 13 10 11 8 6 10 16 12 12 10 12
24 25 27 28 31 31 30 30 28 26 25 27 27 26 27 25 23 23 22 24 26 28 28 25 27 24 26 23 18 14 13 10 10 12 20 8 9 10 10 7 9 6 6 9 11
26 25 23 27 29 30 30 29 30 29 27 26 27 27 27 26 27 27 24 23 24 29 30 27 23 25 24 23 20 17 18 16 14 20 19 11 7 9 10 7 4 2 8 6 9
25 23 20 22 28 29 30 30 30 29 30 28 28 29 28 29 29 28 28 25 26 28 28 26 26 23 20 21 20 21 22 22 21 22 25 20 15 14 13 11 3 11 11 9 6
26 26 25 22 22 27 28 29 29 29 29 29 29 29 28 27 29 29 30 30 29 27 26 25 25 22 22 21 26 23 25 25 23 23 23 25 20 16 17 13 12 9 5 6 4
26 24 26 27 25 23 26 29 29 28 28 29 30 30 30 29 29 29 28 31 30 31 29 26 22 22 25 27 27 26 24 26 26 28 26 23 24 21 19 16 11 9 6 6 4
25 25 25 24 25 24 24 24 26 28 28 28 29 30 30 30 31 31 30 31 32 33 32 27 26 28 28 28 28 25 24 27 32 32 27 25 24 18 19 17 14 10 6 6 6
28 25 25 23 22 21 25 27 24 25 27 28 27 28 30 30 32 32 32 33 33 34 33 30 32 30 29 26 27 27 25 31 33 32 31 30 26 20 19 16 15 10 3 4 6
21 16 15 14 15 17 21 24 24 21 22 25 26 28 28 28 31 32 32 34 35 35 34 34 35 32 32 29 26 26 32 37 38 33 32 32 29 25 20 11 13 11 5 1 11
17 13 14 15 15 11 14 18 22 20 20 20 23 25 28 28 28 31 32 34 34 35 35 35 36 37 34 34 30 30 30 36 39 37 34 32 29 23 16 14 15 14 9 5 11
17 14 13 14 12 7 11 18 22 24 26 25 25 24 26 26 29 31 32 32 33 33 33 37 38 38 36 36 36 34 33 32 36 37 34 34 30 24 21 20 21 16 16 16 14
17 14 12 14 10 4 12 20 22 24 28 23 21 21 22 21 24 27 28 30 31 31 31 33 34 35 37 38 37 37 37 36 34 34 38 39 36 29 25 25 23 21 20 24 21
19 16 13 14 13 2 8 15 17 19 20 17 18 16 16 20 22 24 25 26 27 29 28 28 31 34 36 36 37 37 39 38 36 36 37 42 43 36 33 31 29 25 25 19 17
18 15 15 13 10 1 5 7 14 16 17 17 17 15 13 18 22 25 27 27 28 28 26 23 23 27 31 34 35 39 39 39 40 38 39 37 40 44 41 43 37 30 29 26 20
17 16 15 11 7 3 4 7 12 15 14 14 14 19 19 16 17 20 26 27 25 23 23 21 22 24 27 31 34 34 39 42 41 40 41 39 39 41 42 39 41 38 33 32 27
17 15 11 9 8 5 1 7 14 19 20 20 19 20 21 23 23 23 20 20 19 23 25 24 25 26 31 32 33 34 35 36 38 41 43 41 42 46 41 39 36 34 35 37 32
16 15 12 11 9 8 9 8 9 11 14 17 20 21 21 24 27 28 24 24 24 24 25 25 26 30 32 34 34 36 36 35 36 35 38 40 44 42 45 42 38 36 34 37 38
15 14 12 12 10 9 9 10 12 12 14 17 17 18 18 20 22 24 23 23 22 23 24 26 27 29 32 35 37 39 38 38 38 38 38 43 46 42 44 43 42 41 39 38 37
15 15 14 14 12 11 11 12 11 13 14 15 15 17 18 20 22 23 23 24 25 24 25 28 27 28 31 33 37 39 41 42 41 41 39 43 46 46 44 43 44 45 44 42 41
12 12 13 21 19 16 14 10 10 9 10 11 14 16 16 18 21 24 27 29 29 29 27 28 28 29 30 32 34 37 41 44 45 45 42 42 44 49 48 44 47 49 48 46 46
8 4 6 13 13 15 15 14 16 14 8 6 5 7 11 14 16 20 22 24 26 27 27 25 29 28 27 27 31 35 37 40 45 47 47 48 46 48 49 49 46 52 53 51 47

GFSSW_500_spd_090.txt.gz
Wind_Speed
28 27 26 26 26 26 26 24 23 21 20 18 16 15 16 20 23 21 19 19 16 17 17 13 11 10 12 10 9 7 5 6 8 10 12 8 14 21 18 17 12 12 8 10 13
30 30 29 27 26 27 27 27 26 25 23 23 21 19 18 19 22 23 22 21 19 17 16 15 15 14 13 12 13 11 9 7 9 10 4 6 5 20 19 15 17 12 12 11 9
34 33 30 28 27 27 27 27 27 27 26 25 24 23 22 22 20 21 24 25 22 21 19 15 13 13 14 13 15 14 10 8 8 8 5 4 7 18 26 19 15 9 11 12 12
35 35 32 31 29 26 26 26 27 27 27 27 26 25 25 25 23 21 23 25 26 24 22 20 18 16 14 15 13 15 12 12 10 7 8 4 10 6 19 17 14 10 10 10 14
28 30 30 30 29 30 26 25 26 27 26 26 27 26 26 26 24 25 24 23 25 27 25 24 23 22 20 19 16 16 14 11 8 6 4 7 8 2 29 24 14 11 12 11 11
27 26 27 27 28 29 29 26 24 26 27 25 26 26 25 25 26 25 26 25 24 26 28 28 26 21 22 21 17 15 11 6 7 7 7 2 5 8 19 24 18 11 8 10 10
24 23 24 22 26 29 29 29 26 25 26 28 26 26 24 23 23 24 25 26 27 25 28 29 26 24 23 22 20 15 12 6 6 6 9 7 8 10 7 28 20 12 7 9 11
23 23 24 24 22 26 28 30 29 27 25 25 29 28 27 26 25 22 23 26 27 28 27 25 25 26 26 22 18 16 14 10 9 7 9 12 10 18 19 27 16 14 7 6 9
24 24 25 25 22 22 27 28 29 30 28 26 26 30 31 29 28 25 23 24 25 27 26 25 24 25 24 25 21 19 18 13 11 11 17 15 14 24 24 24 16 12 9 8 6
24 23 25 28 27 21 24 28 28 29 29 29 28 28 30 31 29 28 26 25 25 24 24 25 24 20 22 22 22 23 22 18 16 18 19 16 16 20 22 19 8 7 10 9 9
25 24 24 26 28 28 23 24 29 27 29 28 29 30 29 30 30 30 29 28 27 24 23 21 22 20 22 24 24 26 26 24 23 21 22 22 16 20 21 18 16 18 14 10 10
29 26 24 26 27 26 27 24 23 27 26 28 28 30 30 30 30 30 31 29 27 28 23 22 20 23 25 26 27 28 30 30 29 27 24 25 23 16 16 16 23 15 15 15 11
29 23 22 26 28 25 25 27 24 27 27 26 28 29 29 30 31 30 30 30 30 29 26 24 23 24 26 28 27 26 28 31 32 31 27 25 24 20 18 17 19 18 14 13 14
27 21 17 16 16 18 20 27 27 26 27 27 27 27 28 30 30 30 32 31 31 30 30 27 29 27 26 25 25 25 26 29 32 30 30 27 23 19 17 17 18 19 12 11 13
22 18 15 15 15 14 13 20 21 26 25 25 27 28 28 30 30 32 32 33 33 32 30 30 31 30 27 25 23 27 31 32 33 30 29 29 26 22 17 17 17 19 14 14 16
19 16 15 15 15 15 11 16 18 24 27 26 28 29 27 30 31 31 31 33 33 34 32 33 34 33 31 31 26 29 31 32 32 32 29 29 25 25 23 24 29 27 21 20 19
17 15 14 15 14 10 7 12 21 24 25 26 28 29 28 30 31 31 31 31 32 33 35 35 36 35 34 34 32 31 31 34 35 34 32 31 26 23 27 27 26 24 22 21 24
18 15 14 13 10 7 3 11 19 22 23 24 25 26 27 30 31 30 31 31 31 30 30 33 36 36 36 37 35 35 34 33 35 34 34 33 32 26 26 26 29 27 24 19 12
17 17 12 11 10 6 1 6 13 17 19 19 19 19 19 21 23 26 28 29 28 28 28 29 32 34 35 37 38 37 37 36 34 36 38 40 37 32 30 29 27 27 27 23 19
15 15 15 13 9 5 1 5 10 11 15 17 17 16 16 16 18 19 21 25 27 25 25 26 29 32 33 34 38 38 39 39 39 39 40 40 38 38 35 35 32 30 26 25 20
14 15 14 12 11 3 2 3 6 10 11 13 15 18 18 19 17 19 22 22 22 21 18 21 24 27 29 32 33 36 39 40 40 41 42 40 40 38 38 38 36 33 29 28 26
14 14 14 13 8 5 3 6 9 11 12 14 15 16 18 18 18 18 20 24 25 25 21 21 24 26 29 30 31 31 34 39 41 40 42 42 41 41 40 38 37 36 34 33 31
16 16 14 12 12 9 6 6 9 11 16 18 20 20 21 21 24 25 24 22 22 26 26 25 29 32 31 32 32 33 33 34 37 38 42 43 43 41 41 38 38 36 35 37 40
13 18 16 13 10 9 8 7 8 9 11 15 16 17 18 21 23 24 25 25 25 26 28 27 32 34 36 37 36 35 33 34 34 37 39 41 41 42 42 40 40 38 38 38 39
7 11 15 19 15 14 10 6 4 6 8 10 13 17 19 21 21 21 21 20 21 24 26 28 33 34 37 38 38 38 37 36 34 35 37 39 39 40 41 41 39 41 42 41 42
3 3 8 11 17 19 13 15 16 15 9 6 9 13 16 19 22 23 25 25 24 24 25 26 28 30 32 35 36 37 38 38 38 38 40 39 39 41 42 43 40 39 45 47 44
8 6 7 9 9 13 12 15 13 13 15 14 7 7 10 14 19 22 24 25 25 26 27 27 27 29 30 32 33 35 37 39 40 40 41 41 42 42 41 43 44 42 43 48 52

GFSSW_500_spd_093.txt.gz
Wind_Speed
19 23 26 27 25 23 24 26 26 24 23 21 18 17 17 21 20 19 18 19 22 18 17 14 12 10 12 11 8 4 1 4 6 9 14 6 12 28 22 18 13 11 8 10 15
20 24 29 30 28 26 25 24 26 27 26 25 23 21 20 20 23 22 21 19 19 17 18 17 16 13 13 13 11 7 4 4 7 6 7 3 3 16 27 20 15 14 13 10 15
21 24 28 31 30 26 27 25 25 26 27 27 27 24 23 22 21 24 26 22 21 20 19 16 15 14 13 13 13 9 5 6 7 10 8 6 10 27 24 19 15 11 13 14 15
21 24 25 24 27 26 25 27 25 25 26 28 28 27 25 25 23 22 25 26 24 23 22 20 19 18 17 16 14 12 8 8 7 7 6 3 13 17 25 21 15 11 8 13 16
20 23 24 23 23 24 24 26 26 24 25 26 28 28 27 26 25 25 24 24 27 26 25 24 22 22 20 18 17 15 10 7 6 1 8 7 7 6 23 24 16 12 11 9 12
20 21 22 21 22 22 24 26 27 25 25 26 26 27 27 26 25 26 26 25 24 28 28 27 25 24 22 20 17 15 9 6 6 6 6 3 4 4 25 22 17 13 12 13 10
19 21 21 22 21 18 20 27 27 27 25 26 26 26 26 25 24 24 26 27 25 26 29 28 25 23 23 23 18 15 11 9 8 5 5 4 7 15 26 24 18 13 12 12 11
19 20 21 22 23 22 18 23 28 29 27 26 27 28 27 27 26 24 25 26 27 27 25 26 28 27 24 22 22 17 14 11 10 7 7 9 9 17 23 21 14 13 12 12 11
20 20 19 21 22 23 22 19 27 29 30 29 27 29 31 29 27 26 24 22 24 26 25 24 26 27 27 26 21 19 17 15 13 12 11 11 17 26 32 23 17 14 12 12 12
21 19 20 20 23 24 26 23 22 28 29 29 31 29 29 32 30 27 26 23 21 22 25 25 24 24 26 27 23 21 19 18 16 16 17 14 19 28 31 24 18 16 13 14 14
22 21 19 20 23 26 27 27 24 25 29 28 29 31 29 29 31 31 29 27 23 19 21 23 23 21 25 27 26 26 24 23 21 19 17 17 17 20 28 26 19 15 14 16 17
22 18 16 17 22 28 28 27 29 24 29 31 29 29 29 29 30 31 30 28 27 24 20 21 22 27 28 27 27 28 28 29 25 24 24 23 19 17 22 16 13 16 16 16 15
22 18 16 15 17 19 22 23 26 27 27 29 28 28 28 29 30 30 31 29 29 27 24 22 24 26 27 28 27 28 30 31 29 27 26 24 21 22 19 15 16 16 16 14 14
21 19 16 13 12 12 12 14 20 24 26 27 28 28 27 28 28 30 30 31 31 29 29 28 27 25 26 28 28 26 27 31 32 29 27 26 26 23 21 22 26 19 18 17 16
21 18 14 13 12 12 12 12 17 21 26 27 29 27 26 28 28 28 30 30 31 30 30 30 29 27 25 25 27 28 30 33 33 32 31 29 28 27 25 26 25 26 23 21 16
20 17 14 13 12 11 11 11 14 20 27 26 29 27 26 27 28 28 28 30 31 31 32 33 33 32 30 29 28 31 31 30 30 32 31 32 32 29 27 30 28 28 25 24 24
19 16 14 11 12 11 7 5 14 20 24 26 26 27 29 27 26 27 28 29 31 32 33 34 36 36 34 33 32 30 31 32 32 32 32 31 35 32 31 31 31 29 26 25 24
16 15 13 11 12 10 4 2 11 17 19 23 25 26 28 29 26 25 27 27 28 30 31 34 37 37 37 36 35 34 32 32 34 31 29 27 33 35 35 34 32 31 28 24 25
15 13 12 13 12 9 5 2 6 13 15 19 20 21 25 27 25 26 26 26 27 27 29 32 36 38 39 39 37 37 36 34 32 32 30 32 31 32 34 35 35 33 29 26 22
13 10 11 11 12 9 5 2 5 6 9 13 14 16 19 20 19 20 22 24 26 26 27 29 31 36 37 39 40 40 38 39 37 36 37 35 33 35 34 33 32 31 30 29 27
14 11 10 11 11 8 4 2 6 8 7 12 14 16 15 12 13 14 16 17 20 20 23 27 29 31 33 37 39 41 42 41 40 40 39 37 36 35 34 34 32 29 28 31 29
14 15 14 10 10 8 6 3 4 7 11 12 12 12 11 15 16 14 17 21 18 19 18 21 24 27 30 32 35 38 41 43 43 43 42 40 38 38 34 34 34 33 31 30 29
11 15 18 15 12 7 6 6 5 5 9 12 15 17 17 17 18 20 20 18 21 25 25 24 26 26 29 30 31 34 36 40 42 44 44 42 43 39 38 37 35 34 36 35 34
5 9 15 19 16 13 8 4 6 8 10 11 13 16 19 21 22 22 22 23 23 24 27 30 30 31 33 33 32 32 33 35 39 42 44 45 43 42 41 38 37 38 38 38 40
2 4 11 13 17 13 13 13 8 3 8 12 14 16 18 19 20 23 23 23 23 26 28 30 35 36 35 36 35 36 36 36 38 39 43 44 44 44 44 43 41 41 40 40 40
6 8 10 11 14 15 14 11 9 9 11 6 7 14 17 20 22 23 23 23 23 23 26 29 34 37 39 39 38 39 38 37 36 37 39 40 41 43 45 45 44 45 44 44 44
7 7 9 10 10 10 9 10 9 9 9 9 5 3 7 15 18 22 24 25 26 26 26 26 29 31 35 37 38 39 39 39 39 39 39 39 39 39 40 42 43 42 43 46 48

GFSSW_500_spd_096.txt.gz
Wind_Speed
11 11 15 20 23 24 25 23 22 23 22 22 21 19 19 21 20 17 29 26 21 20 16 15 14 13 13 13 11 9 7 3 2 5 9 6 10 22 17 14 10 10 10 13 19
13 12 14 18 19 23 25 26 26 24 25 24 24 23 21 21 23 21 20 26 25 23 18 18 17 16 16 15 12 10 7 3 2 4 3 4 13 25 20 15 12 11 11 12 18
16 14 14 16 18 20 21 23 23 26 25 26 25 25 24 23 22 25 23 22 22 22 21 19 18 17 18 17 13 11 8 5 2 4 3 5 12 30 24 17 13 10 12 13 17
17 15 16 16 17 18 19 21 23 24 25 26 26 26 25 27 25 23 27 25 24 23 23 24 23 20 17 16 14 12 9 7 5 3 3 4 11 24 27 21 15 11 10 18 18
17 17 18 17 17 17 18 20 22 23 24 25 26 26 26 27 27 25 25 29 27 26 25 25 25 24 21 18 16 13 11 8 4 2 9 8 13 31 28 21 17 15 12 12 17
18 16 19 19 17 17 17 17 21 23 25 24 26 25 26 26 26 28 27 26 30 30 28 27 25 23 22 20 17 15 11 9 5 7 10 6 10 20 20 26 20 15 15 14 17
18 18 17 18 19 19 19 17 17 25 25 26 25 26 25 24 25 27 29 28 27 31 31 28 26 25 23 20 18 14 13 11 9 9 6 6 8 11 22 25 19 16 14 14 16
18 16 17 16 18 21 19 19 18 20 28 28 27 27 26 26 26 27 28 29 29 28 29 30 27 27 27 22 20 15 14 12 11 11 9 8 7 12 24 26 22 17 16 14 15
16 16 17 17 19 21 21 21 21 20 27 29 30 29 30 28 27 26 26 27 28 28 26 28 30 28 26 25 23 19 17 16 14 13 13 10 10 22 27 21 20 18 17 16 13
16 17 19 19 22 23 24 25 25 25 25 31 33 32 31 32 29 28 26 25 24 26 28 28 28 31 29 26 23 22 22 19 18 17 15 15 16 23 25 22 20 18 16 15 16
17 18 16 15 20 22 27 28 28 30 28 30 34 35 33 32 33 30 29 26 24 26 27 26 28 27 30 29 31 26 25 24 21 20 20 19 23 26 27 22 23 19 17 17 18
16 15 11 11 15 19 25 26 27 28 29 30 33 35 34 32 32 35 32 31 27 25 24 27 27 30 31 32 28 27 27 28 24 22 22 20 25 31 27 24 22 21 20 19 17
16 14 11 9 10 15 19 19 19 23 28 27 30 32 31 33 33 35 36 33 32 28 26 26 28 31 31 30 30 31 30 29 30 26 24 24 32 33 31 26 16 15 19 20 20
17 15 14 13 10 10 12 12 12 19 23 28 28 30 31 31 33 32 36 38 35 33 32 31 30 30 30 29 30 32 36 33 29 28 23 27 37 29 29 25 20 17 19 21 20
20 17 15 14 13 12 12 12 12 15 17 27 29 28 29 29 32 33 32 36 38 36 35 36 33 30 30 31 31 32 35 34 33 33 30 26 11 27 31 25 23 24 22 20 21
19 19 14 13 11 11 10 11 13 15 23 26 28 27 27 28 29 32 33 34 38 39 38 39 38 36 33 32 33 33 32 32 29 33 32 28 24 28 28 27 28 25 23 20 20
21 18 15 12 12 11 9 6 10 16 20 25 27 26 27 27 28 29 32 33 35 37 40 38 39 37 34 32 34 34 33 30 30 33 26 32 36 34 35 31 29 29 27 23 20
17 16 13 12 11 11 8 1 8 13 17 20 23 26 26 26 26 26 28 31 33 36 34 39 39 41 39 39 36 33 33 26 24 25 26 33 41 42 39 36 32 31 29 25 24
14 15 14 12 11 11 7 2 3 8 11 14 20 22 25 25 23 26 28 29 30 33 32 33 41 40 40 39 37 37 37 31 23 26 22 32 45 39 41 38 35 33 28 26 26
12 13 13 10 9 9 6 2 3 4 5 12 17 20 21 24 23 22 24 26 26 28 32 36 39 39 40 41 40 40 39 38 35 26 25 31 33 44 44 41 38 34 32 31 28
9 12 14 12 7 5 3 1 4 5 4 7 12 15 17 17 17 18 22 20 23 25 28 31 33 36 37 41 44 42 42 40 33 27 25 26 38 39 38 39 38 36 33 32 32
8 13 16 16 11 7 3 1 4 9 9 10 9 4 16 15 14 14 16 19 17 21 24 26 29 31 37 36 40 41 45 44 42 39 34 29 37 36 37 37 35 32 30 34 35
4 9 14 16 15 14 6 3 5 8 11 15 14 12 10 9 18 17 16 18 17 19 22 25 28 28 31 34 37 41 43 44 43 41 34 31 37 35 35 34 34 33 32 33 35
1 4 8 13 16 14 13 6 3 7 10 14 16 17 18 18 17 17 20 20 19 22 24 24 27 28 23 28 35 38 41 44 44 44 33 41 44 42 37 36 36 35 37 38 38
5 5 6 9 9 11 12 10 10 5 5 11 16 19 21 22 23 23 23 23 25 24 25 30 30 30 31 35 38 37 40 42 45 49 46 41 50 47 42 41 39 39 39 41 43
4 5 9 11 9 6 7 8 7 5 5 2 9 15 19 22 23 23 24 25 25 27 30 27 33 35 35 34 34 37 39 39 43 44 47 54 48 48 48 46 45 44 42 42 44
6 4 6 8 9 7 5 3 3 3 3 5 2 2 11 18 21 24 26 26 25 25 25 29 33 32 37 38 38 38 37 38 41 40 45 47 48 47 48 48 47 47 46 46 47

GFSSW_500_spd_099.txt.gz
Wind_Speed
16 14 14 13 16 18 19 20 20 20 20 20 20 19 19 20 18 23 26 25 24 22 21 19 18 17 15 15 14 11 5 4 2 0 4 7 22 21 18 13 10 9 12 14 16
19 18 17 17 16 15 17 17 20 21 22 22 22 22 21 21 22 21 27 29 25 24 23 21 20 18 18 16 15 13 9 7 3 1 1 7 16 21 19 15 11 10 12 14 16
19 19 19 18 17 17 17 17 18 19 20 24 23 24 25 24 24 24 24 29 30 27 24 20 19 20 20 19 18 14 7 7 5 4 3 6 11 23 21 17 14 13 14 15 14
20 19 19 20 19 17 19 18 18 19 20 22 25 24 26 27 27 25 27 26 30 31 27 23 21 19 19 17 16 13 11 10 6 6 7 9 15 25 22 20 14 12 15 18 16
20 20 20 21 21 19 20 20 18 19 20 22 24 24 26 28 27 26 27 29 28 29 29 28 26 24 21 19 17 14 13 10 6 3 5 5 12 25 30 23 18 13 11 16 18
21 21 20 21 22 21 20 21 18 19 21 22 24 25 24 29 28 28 27 30 31 30 29 28 29 29 25 22 19 16 13 9 5 4 4 3 9 24 30 24 19 16 14 16 18
21 21 22 21 20 22 21 21 20 19 22 25 25 26 25 23 27 29 30 29 32 32 29 28 27 26 25 22 20 14 13 10 9 10 4 3 8 21 23 24 20 19 17 17 18
20 20 21 20 20 22 22 22 22 22 21 26 27 27 27 24 27 29 30 31 29 32 32 29 28 28 25 24 19 16 14 11 11 11 9 8 9 17 22 27 22 20 17 17 20
18 18 18 18 20 23 24 23 24 24 23 23 29 29 29 27 27 29 29 31 32 30 33 31 28 29 29 24 20 17 13 13 14 13 13 11 16 22 24 29 26 21 18 17 18
17 17 17 20 22 24 26 27 26 26 26 25 29 32 28 30 29 28 28 28 30 31 30 32 32 29 30 29 24 18 15 14 17 15 14 13 8 17 20 26 24 22 20 17 18
15 16 18 18 19 22 25 28 29 29 29 29 29 35 32 33 31 29 29 29 30 30 31 31 33 33 29 26 19 16 15 18 20 17 17 12 15 23 18 21 21 20 18 17 17
14 14 14 15 16 19 23 25 25 24 26 31 31 33 34 32 33 33 32 30 29 29 31 33 31 31 32 31 30 26 24 19 22 17 17 13 16 31 23 20 22 21 20 19 18
9 12 10 11 14 18 21 23 21 16 24 29 31 32 33 34 35 36 35 33 31 31 30 30 31 34 35 35 32 28 27 30 24 22 24 16 17 16 22 22 22 20 18 18 18
10 11 11 9 9 10 14 16 13 10 17 28 29 32 31 31 37 36 40 38 35 33 32 31 34 37 35 33 32 27 24 25 22 26 22 22 22 8 28 27 25 17 16 18 19
12 11 10 9 8 9 10 10 12 10 7 23 29 33 29 27 35 34 38 42 39 37 36 35 37 36 36 32 34 21 32 37 29 23 22 25 26 36 29 28 27 18 18 18 19
14 12 12 9 8 9 8 8 10 10 11 21 24 25 27 28 31 36 36 41 43 40 38 26 37 34 35 35 35 34 32 35 29 25 24 30 29 33 24 34 32 20 20 19 17
12 13 13 13 11 11 10 7 5 5 21 21 16 20 20 20 28 31 33 37 39 42 41 40 40 37 40 32 39 41 35 26 29 29 24 22 21 29 26 35 33 23 21 20 17
10 12 12 12 11 9 8 3 3 8 9 21 17 15 15 19 19 25 29 30 37 26 26 36 37 42 41 35 31 40 29 23 22 25 24 21 30 37 33 27 31 28 23 22 20
8 9 10 11 9 8 6 9 3 9 11 7 14 16 18 24 19 22 20 16 32 38 30 26 24 44 42 42 38 34 37 23 17 20 24 32 43 42 40 31 30 26 25 24 22
5 6 9 9 6 5 5 6 7 6 7 11 12 17 13 17 15 17 27 34 34 33 39 25 34 37 43 41 39 36 31 29 28 22 29 33 38 38 43 35 32 31 27 27 26
3 5 7 9 6 2 4 7 4 6 8 15 13 15 13 16 13 19 20 28 25 34 43 30 27 35 44 45 38 40 37 38 28 21 30 25 28 45 39 40 38 35 32 31 30
1 4 7 11 10 3 5 6 4 6 7 6 15 19 16 19 14 9 21 20 23 29 38 43 27 21 25 45 46 47 34 31 30 31 25 35 33 38 29 35 40 39 36 34 34
5 1 3 9 8 7 3 5 6 7 9 10 9 5 1 12 21 16 15 16 19 24 31 31 23 20 32 40 45 46 44 45 31 25 29 30 36 31 33 33 37 39 40 39 37
10 6 1 4 7 7 7 5 4 8 11 12 14 13 10 9 11 18 15 15 15 22 24 28 22 25 16 20 28 43 49 47 44 35 26 30 37 33 36 31 36 37 38 38 39
10 12 9 5 2 3 5 6 6 2 9 14 16 18 20 18 18 19 18 20 20 20 23 24 27 30 30 31 35 39 46 48 48 46 28 36 40 44 40 40 32 38 39 40 41
10 12 12 9 6 3 2 0 3 4 3 4 14 18 20 24 24 22 23 24 26 29 26 27 28 30 32 35 36 40 41 43 47 50 43 53 50 48 45 46 39 38 40 43 45
11 10 10 8 8 8 8 8 5 3 3 3 4 9 17 22 24 28 25 27 29 26 31 33 30 31 32 31 35 38 36 38 41 46 42 55 56 49 47 46 48 44 42 42 44

GFSSW_500_spd_102.txt.gz
Wind_Speed
22 22 21 21 21 23 21 22 19 19 18 19 20 19 17 16 16 16 24 27 26 24 23 20 18 17 15 14 12 10 7 7 2 1 6 7 14 23 15 11 11 7 10 9 9
24 23 23 24 24 25 23 23 22 20 20 20 22 22 21 19 18 18 23 29 26 26 24 22 20 19 18 17 14 16 11 11 5 2 5 6 8 24 20 14 11 9 11 10 9
26 24 24 24 25 26 27 25 22 22 21 21 22 23 24 23 22 20 23 28 27 27 26 25 23 22 22 20 18 15 7 2 2 4 6 5 7 22 22 18 13 12 10 12 9
26 25 25 25 25 26 26 26 24 23 22 21 21 23 25 26 26 23 25 25 30 27 27 27 24 22 21 21 18 14 10 8 7 7 7 6 11 16 23 21 15 11 11 13 12
27 26 26 25 25 25 24 25 24 23 23 22 22 23 25 27 26 26 26 26 26 31 28 27 24 22 20 20 18 16 14 12 9 6 3 4 12 20 23 19 17 12 10 13 12
27 24 23 25 25 24 24 24 23 23 23 23 23 22 24 28 22 28 27 29 29 31 32 29 27 26 25 23 20 16 4 14 9 7 6 4 9 16 26 20 18 14 14 15 14
23 23 22 24 24 24 24 24 23 23 22 22 24 23 24 23 24 28 29 28 32 30 32 31 32 31 25 22 21 17 12 14 12 10 8 5 10 10 30 25 20 17 16 16 16
20 18 20 20 22 22 23 23 23 23 23 22 23 25 27 19 26 28 30 31 29 33 31 32 32 31 31 27 23 20 18 10 13 9 11 5 5 11 26 28 22 19 17 18 18
17 15 16 18 20 21 22 23 23 23 24 24 23 26 27 23 26 28 30 32 31 30 33 30 29 30 30 29 24 19 14 9 21 15 12 12 13 15 20 24 24 20 18 19 18
17 15 15 16 19 21 24 25 25 24 25 26 26 25 27 30 28 28 30 32 32 31 30 31 30 31 31 31 21 15 13 13 16 15 14 16 18 23 17 28 26 23 20 19 19
17 17 17 16 18 21 23 25 25 27 26 27 26 29 25 29 27 27 29 30 31 31 30 32 35 33 30 26 22 10 9 21 16 25 16 15 16 12 17 32 27 24 20 18 19
16 16 16 15 13 17 19 20 20 20 25 28 28 30 27 28 28 30 30 31 31 29 31 33 33 32 31 28 26 27 25 23 21 24 22 19 16 15 22 32 26 22 21 19 18
15 13 12 14 13 15 17 20 21 20 19 27 29 30 30 27 32 32 31 31 30 30 32 33 29 32 34 31 34 27 18 28 33 29 27 20 12 18 13 23 24 29 24 20 17
17 15 12 12 12 14 18 19 17 18 13 25 24 26 30 29 32 34 35 33 31 31 31 32 33 33 37 38 35 32 25 28 22 23 23 16 14 12 16 19 33 27 13 15 16
14 12 11 7 9 10 9 10 9 9 2 21 19 29 25 24 25 34 35 38 36 32 33 32 37 36 36 36 35 38 16 13 16 23 28 20 20 18 21 14 25 16 16 14 16
12 9 9 9 9 9 5 4 6 6 5 7 17 13 20 27 20 32 35 40 40 37 35 34 34 24 40 36 34 35 38 24 26 22 24 21 15 27 24 23 16 17 18 17 15
10 9 8 7 6 6 1 2 12 9 14 10 9 15 17 24 16 27 33 38 40 40 39 33 24 29 35 34 33 36 36 29 32 23 21 27 26 32 29 27 25 26 18 17 21
8 8 7 9 9 3 2 5 10 18 20 4 3 8 14 15 16 26 27 34 36 32 21 34 21 30 34 37 23 35 36 21 26 24 18 25 31 38 36 35 17 30 23 20 20
5 6 7 8 7 3 1 9 6 7 8 3 11 12 16 31 19 18 16 19 25 26 34 20 26 28 39 40 38 33 44 30 14 14 17 33 40 37 30 29 29 18 24 23 18
4 3 4 10 8 3 4 3 11 7 9 14 9 14 23 20 10 18 20 30 33 37 39 31 29 34 37 43 44 35 32 37 32 29 26 34 37 43 37 26 25 24 29 29 24
6 3 5 9 6 4 14 3 6 6 8 20 21 17 18 17 11 16 19 29 27 42 34 24 26 21 38 40 43 40 34 43 28 19 27 24 33 40 46 39 35 31 27 26 27
8 5 4 3 4 9 3 16 8 6 10 17 20 15 23 22 21 16 27 20 36 31 45 29 23 11 21 39 39 42 33 36 34 37 29 33 32 42 36 29 27 34 33 29 29
11 5 3 1 5 2 8 9 10 8 8 12 6 10 16 17 9 23 18 20 23 31 46 43 25 12 16 26 39 47 44 32 32 28 31 25 33 29 27 20 24 21 34 35 33
15 7 6 3 1 5 3 3 5 8 7 8 9 10 6 3 16 14 4 15 27 32 42 43 31 17 24 24 21 36 44 44 42 32 22 34 37 29 21 20 22 23 29 34 37
18 20 9 11 6 5 2 2 2 3 8 9 9 10 8 8 10 9 16 21 15 32 40 47 40 24 14 24 29 32 41 45 48 50 29 33 32 26 28 23 24 27 28 35 40
16 18 17 13 11 9 8 6 3 2 2 8 13 12 15 13 16 20 18 14 17 18 31 41 39 44 25 22 30 36 33 39 50 48 28 47 37 35 39 37 36 34 30 35 40
13 15 14 10 12 11 14 11 10 8 6 5 7 13 19 25 21 18 8 19 24 23 25 25 37 42 39 29 23 35 38 38 44 48 27 48 55 45 41 45 42 44 38 34 42

GFSSW_500_spd_105.txt.gz
Wind_Speed
25 23 24 25 26 25 24 24 24 22 21 18 18 18 16 16 14 14 24 30 28 26 24 20 19 17 16 15 15 14 8 12 7 4 4 7 7 10 13 7 5 3 5 4 5
28 27 26 25 27 29 29 29 28 27 25 23 19 20 20 18 17 18 19 30 29 27 25 22 21 19 18 19 19 16 1 13 10 6 3 9 4 11 18 10 6 4 6 6 4
28 26 26 26 27 28 29 30 30 29 28 26 24 22 22 21 20 20 23 27 31 28 27 25 22 22 21 21 19 13 6 8 4 2 3 6 5 3 20 13 9 8 8 7 4
27 26 26 26 26 28 28 29 29 29 28 26 25 25 24 25 21 22 23 26 31 29 27 25 23 23 23 23 22 15 6 7 2 4 7 5 6 3 17 10 12 8 7 8 8
23 24 23 24 25 25 27 27 28 28 27 26 25 26 26 26 24 25 25 25 31 30 29 28 26 24 22 22 18 13 6 9 2 3 2 4 7 6 17 19 13 11 9 10 7
18 19 20 19 19 24 24 24 25 25 25 24 24 25 26 26 21 27 26 28 29 34 30 29 28 25 25 26 21 14 10 12 6 5 5 4 6 9 16 21 15 11 11 12 11
21 20 21 22 21 20 22 23 23 23 22 23 23 24 26 25 22 28 28 28 31 32 34 31 30 29 27 22 23 21 18 16 10 9 6 5 6 12 20 20 20 17 12 13 13
23 20 18 18 20 22 20 21 23 22 23 22 23 22 24 21 23 28 30 30 30 33 35 36 34 32 26 25 23 23 20 18 14 9 9 6 7 10 15 21 27 20 13 13 15
22 20 17 17 18 18 20 18 21 21 22 22 21 21 21 22 25 27 29 31 31 33 33 36 37 31 29 26 24 23 22 21 17 10 8 13 9 8 8 26 27 19 15 15 15
21 21 19 17 18 19 19 19 19 20 21 21 23 24 24 28 26 26 27 31 33 32 36 34 32 31 33 34 26 18 14 15 15 15 13 12 15 15 16 19 26 19 16 16 14
23 20 19 18 18 18 18 19 19 20 23 24 21 25 22 23 25 24 27 30 32 33 33 34 34 33 30 28 27 20 13 14 21 19 15 14 16 12 11 21 30 25 21 17 16
21 20 19 17 16 16 16 15 15 18 22 23 23 26 22 22 24 26 26 29 31 31 32 35 36 31 30 30 26 29 27 25 28 22 24 19 17 17 16 14 35 26 20 16 16
19 18 18 17 16 16 17 18 15 17 16 19 21 24 26 21 23 28 26 28 28 30 33 35 29 31 31 31 31 31 29 27 18 23 25 19 16 19 20 19 31 24 24 18 14
18 16 15 14 14 13 15 17 16 20 14 14 19 21 26 24 26 28 29 30 29 29 31 34 32 34 33 32 34 32 21 28 23 25 21 6 13 16 17 18 39 29 27 20 15
17 14 12 12 12 12 13 13 14 17 15 14 12 14 15 18 26 28 29 33 32 30 32 30 34 36 37 32 37 33 18 25 29 21 29 11 10 14 16 20 34 27 24 23 19
13 11 10 11 11 10 10 10 8 9 4 7 9 5 7 18 23 29 32 34 34 34 34 31 33 36 37 35 39 31 25 24 21 21 24 11 15 18 17 18 22 30 31 22 20
11 9 8 8 7 7 6 9 14 18 14 8 3 6 5 12 20 24 29 34 37 36 35 34 39 33 37 37 45 42 31 19 23 30 7 3 18 23 23 22 8 34 30 26 19
10 8 7 4 7 4 6 5 14 17 15 14 10 6 10 13 17 14 24 28 34 35 29 32 35 37 34 41 40 44 41 31 24 21 6 13 24 24 24 22 28 33 39 22 28
8 6 3 5 5 2 2 6 9 9 20 17 14 11 5 17 18 21 14 18 28 29 29 21 28 21 33 28 43 47 45 33 20 10 21 25 26 19 24 18 23 27 17 20 26
7 6 3 5 1 5 5 3 4 3 6 8 13 18 17 24 25 23 17 21 26 33 35 28 29 29 26 23 42 49 52 36 32 28 26 26 28 29 28 28 25 16 30 16 17
8 7 5 2 7 3 2 4 7 4 3 15 23 27 16 30 29 34 23 31 34 33 38 38 34 35 35 29 34 43 45 45 37 33 32 23 26 27 32 30 29 24 23 27 18
10 8 6 4 4 4 7 8 12 10 6 11 22 15 17 22 26 10 25 23 37 38 34 41 33 43 46 28 33 36 40 45 41 34 29 31 28 28 26 34 31 29 28 23 32
12 8 9 3 4 3 7 14 12 11 11 12 16 22 19 16 18 12 17 19 29 42 41 36 31 28 25 38 37 42 38 38 49 40 32 30 35 34 24 24 20 21 23 25 24
15 14 12 8 6 6 5 8 5 11 11 9 11 10 10 1 14 13 18 15 22 30 34 34 35 24 32 28 28 40 43 39 45 47 36 39 34 30 26 28 18 22 23 24 28
21 20 17 15 9 5 5 4 4 3 10 10 9 12 12 8 6 10 13 17 14 18 28 39 39 26 15 25 25 27 39 46 44 51 39 43 33 30 28 18 19 23 21 23 27
14 18 20 10 10 9 11 10 8 4 4 5 12 11 14 18 14 25 21 17 11 18 26 37 53 27 22 32 32 30 31 40 47 50 52 51 35 23 26 22 23 24 24 24 24
14 17 20 13 12 14 17 11 13 11 10 7 7 11 17 18 16 14 14 19 22 17 24 37 50 43 22 30 33 31 31 38 52 35 55 60 54 41 23 25 28 29 27 25 24

GFSSW_500_spd_108.txt.gz
Wind_Speed
28 24 24 25 25 26 26 27 26 25 23 21 20 20 19 18 17 18 22 30 29 26 23 20 19 18 18 16 14 11 6 14 3 3 6 1 1 8 12 6 4 6 10 6 6
29 27 24 24 25 27 27 27 30 28 27 26 23 22 21 20 20 21 19 29 31 28 24 23 22 21 21 16 16 12 1 10 8 4 1 7 6 2 6 10 3 5 7 6 6
25 26 24 22 23 24 27 28 28 31 31 29 26 24 23 22 22 20 22 27 32 30 27 28 23 23 24 18 17 15 15 10 7 2 3 5 5 6 7 11 5 4 9 8 7
18 20 24 23 22 22 24 26 26 28 30 31 31 27 27 24 25 23 22 28 32 30 29 25 23 21 22 20 19 18 14 5 0 3 3 4 8 5 5 11 10 5 8 8 8
19 17 16 20 20 19 21 23 26 25 26 29 29 28 27 26 28 26 25 26 31 30 29 27 24 21 22 24 23 20 21 9 8 7 1 7 3 14 2 14 13 8 9 9 8
19 17 16 18 21 23 22 21 22 25 24 26 27 29 27 27 26 27 26 27 31 32 31 27 25 27 24 25 25 21 23 8 10 7 5 4 5 7 8 15 16 8 10 11 11
19 18 15 17 18 20 23 22 20 23 24 24 24 25 27 25 27 32 32 30 31 35 29 31 32 29 27 26 28 23 22 14 9 8 3 2 4 3 6 9 15 11 7 9 11
22 20 17 15 17 18 19 20 22 21 22 21 22 23 26 23 27 32 32 33 35 35 36 35 34 34 27 29 27 22 17 15 13 10 5 4 3 7 9 12 14 14 9 10 14
21 19 18 18 17 18 17 19 18 21 20 21 22 23 23 24 27 33 32 35 35 37 37 39 36 33 29 27 22 17 16 19 13 11 4 5 8 7 7 9 16 16 17 14 13
20 19 18 17 17 17 18 18 17 17 19 20 21 23 24 26 28 30 31 33 35 35 38 38 38 32 31 26 16 16 17 18 14 13 7 7 11 12 10 12 13 25 19 13 15
21 19 19 18 16 16 16 16 17 18 18 18 23 23 21 22 24 28 28 32 36 37 36 38 35 36 28 24 21 20 24 22 19 17 12 12 13 12 10 9 13 29 25 17 16
23 20 19 19 16 16 15 14 15 17 18 20 23 21 21 22 22 26 29 31 34 33 34 35 32 37 36 30 27 26 27 25 19 17 16 18 18 16 10 10 13 27 15 19 17
19 19 17 16 17 16 17 13 10 11 14 19 24 23 22 23 24 26 27 29 30 32 33 33 33 36 36 33 31 29 29 27 23 22 20 21 18 21 16 14 13 19 17 19 20
18 18 17 16 13 14 13 12 10 7 7 14 19 21 20 23 23 24 28 30 29 28 31 33 34 35 36 36 33 30 30 34 27 28 27 20 22 20 17 16 17 20 21 21 19
18 16 14 14 13 12 12 14 11 12 8 8 7 12 15 25 29 27 29 30 28 28 33 29 33 34 34 35 33 32 31 28 28 27 36 16 14 9 10 8 14 22 24 22 19
18 16 12 12 11 12 12 10 14 11 9 9 8 5 10 20 24 27 31 32 32 33 34 32 37 37 34 33 32 36 32 30 26 25 22 16 19 17 9 11 12 19 29 24 23
17 14 12 9 10 9 8 5 9 8 11 7 11 9 7 10 19 25 28 32 35 35 30 30 35 38 37 37 38 34 27 28 30 23 18 23 25 17 13 10 12 15 35 28 27
16 12 9 7 9 7 4 5 6 8 10 11 10 13 11 16 14 16 22 25 31 31 30 32 34 35 37 39 41 37 30 29 31 18 14 20 17 15 16 15 14 18 29 36 43
13 10 8 7 7 5 7 8 6 11 13 17 13 11 6 14 18 14 19 17 19 27 32 36 34 32 36 39 46 45 37 40 27 19 18 24 28 17 15 14 16 17 14 32 32
11 10 9 7 2 5 8 9 4 6 21 15 19 19 16 14 20 16 18 20 28 32 34 38 36 35 33 34 39 46 42 34 27 23 19 23 21 21 21 21 19 21 16 23 33
9 11 9 5 6 6 8 8 6 7 9 16 21 23 22 22 22 25 25 26 27 34 36 39 37 35 34 31 32 42 45 39 35 32 25 24 20 18 21 24 23 23 18 23 34
12 13 10 9 11 7 3 1 3 5 5 6 11 27 30 27 29 31 33 32 32 34 36 36 33 38 39 34 33 37 40 46 40 33 32 32 30 27 21 19 24 26 20 16 11
14 16 13 10 6 9 3 5 5 1 3 8 13 15 23 24 18 24 29 31 36 34 38 38 37 38 35 36 35 39 38 46 45 42 38 38 31 38 32 24 27 29 26 22 19
18 20 19 14 11 5 1 5 6 3 6 8 8 8 9 17 10 17 26 13 10 36 39 35 37 38 37 44 40 41 42 42 42 49 48 43 46 43 41 33 32 31 28 21 21
19 18 16 15 7 3 4 3 1 6 3 8 8 13 14 8 9 9 18 13 12 8 24 33 36 37 34 46 47 42 37 42 41 44 53 48 47 39 40 40 45 28 27 24 20
14 14 13 12 11 13 11 10 5 5 3 2 12 13 13 14 11 8 14 21 17 17 19 22 39 39 38 44 46 41 41 42 48 51 51 57 54 45 38 37 25 25 22 22 24
16 14 15 16 16 17 16 16 12 11 11 9 5 5 11 16 14 18 12 17 20 16 18 22 25 35 33 39 39 37 34 36 44 53 40 46 55 54 39 33 28 22 22 24 23

GFSSW_500_spd_111.txt.gz
Wind_Speed
29 29 28 27 27 27 27 28 27 27 25 25 21 20 20 20 20 21 26 30 31 28 23 21 18 15 14 13 13 10 4 9 10 4 15 16 4 3 7 6 4 3 7 10 9
20 22 24 25 25 25 27 27 28 28 28 27 25 20 21 21 23 23 22 29 31 31 26 25 21 18 16 16 15 12 2 5 6 7 3 6 7 7 12 6 7 6 7 8 8
20 18 18 19 21 22 22 26 28 28 30 30 27 24 21 23 24 22 23 27 32 32 29 26 22 18 15 18 17 13 8 5 6 4 4 2 6 2 9 11 8 7 10 9 7
22 21 19 17 18 19 21 24 26 28 27 31 30 27 23 22 26 25 23 26 32 30 30 23 20 19 18 20 18 14 10 6 2 4 4 2 4 2 4 4 12 8 10 9 8
23 21 20 18 17 19 21 24 25 26 29 28 30 28 25 25 26 27 26 25 31 30 29 23 21 23 23 22 20 17 15 13 12 4 1 4 2 9 3 5 8 5 11 10 9
25 22 19 20 19 18 20 21 25 25 26 29 27 28 26 27 26 27 27 25 31 31 27 23 25 28 27 24 21 18 18 17 14 7 3 0 4 9 7 5 9 5 6 12 10
22 23 22 18 18 18 20 20 21 24 23 24 25 26 27 26 27 30 30 29 31 32 28 31 31 32 29 25 21 18 18 18 13 9 6 5 6 11 3 8 6 8 7 12 11
24 22 22 20 19 17 16 19 20 22 23 23 24 25 26 23 27 30 32 31 31 35 35 34 34 33 29 25 20 18 20 17 13 10 7 9 4 2 6 11 7 8 11 12 11
23 23 22 20 19 18 17 16 16 18 20 22 26 27 26 26 30 32 33 35 35 37 39 35 31 33 29 24 20 18 17 16 15 13 11 8 5 5 3 3 14 8 9 12 13
25 23 23 21 20 18 16 17 18 17 19 19 24 28 28 28 31 33 33 35 37 38 39 37 32 31 27 23 21 20 19 21 16 16 13 9 8 8 7 6 8 11 13 12 14
25 23 22 21 19 18 17 16 17 19 19 21 23 26 27 28 29 30 33 33 36 38 39 38 37 29 26 25 26 23 22 21 19 22 11 12 10 8 8 7 13 17 5 15 20
26 23 22 20 18 17 17 14 15 16 20 22 24 23 24 25 29 30 31 33 32 35 36 38 33 31 33 30 28 26 26 21 17 17 17 17 15 12 12 10 9 19 13 22 19
26 24 23 20 18 16 14 10 13 14 18 23 26 25 24 26 30 27 28 29 30 33 36 32 32 37 38 35 32 29 26 24 21 24 23 17 15 18 18 15 18 17 26 19 20
24 23 22 19 17 16 12 8 9 12 14 18 21 24 24 28 29 29 30 29 30 30 32 31 35 37 37 36 35 31 25 26 25 23 26 26 21 25 16 18 20 18 20 20 24
23 22 22 18 17 13 12 6 6 9 12 12 16 20 27 30 29 30 32 32 30 30 31 32 37 36 35 32 35 30 36 31 30 32 31 30 22 20 14 16 20 16 14 17 19
22 20 17 17 13 11 10 4 5 8 13 15 17 19 23 27 30 31 32 34 36 35 31 32 37 36 32 34 38 40 37 34 35 33 36 28 27 12 10 12 15 16 24 24 24
20 19 14 12 10 9 7 5 7 17 16 18 18 21 21 21 28 29 28 33 36 35 31 31 34 34 34 35 39 43 41 37 35 34 29 24 22 25 17 16 16 13 22 29 27
18 15 13 9 9 7 7 8 9 13 18 16 15 16 20 22 23 27 27 30 36 34 33 32 30 30 32 34 38 40 44 41 41 28 18 23 23 19 22 22 18 12 13 30 30
15 11 10 9 7 5 5 11 10 12 10 11 15 17 19 23 20 25 27 30 36 38 35 34 31 33 32 34 38 40 43 39 38 35 30 27 21 20 25 21 16 12 13 23 36
11 11 10 9 5 3 8 9 9 14 14 15 14 15 15 19 19 21 25 26 31 36 38 37 33 32 33 34 40 42 41 38 43 37 31 31 23 27 22 16 15 15 12 13 36
11 9 11 9 6 7 12 11 8 7 12 19 15 14 13 13 22 22 21 22 21 28 34 39 36 34 31 36 40 45 45 45 36 36 35 30 27 23 25 23 21 20 17 12 18
11 11 12 9 9 12 12 10 12 14 13 17 19 17 18 21 21 20 20 23 22 22 29 35 36 36 40 38 38 49 49 47 43 38 38 35 28 24 23 22 24 21 22 13 16
14 13 13 11 9 10 7 2 5 10 12 13 7 10 23 28 28 25 25 27 30 27 29 33 33 32 41 40 37 40 47 52 49 45 43 38 35 32 29 24 22 18 17 17 24
15 15 17 14 14 12 7 3 6 2 7 7 2 6 7 18 28 23 23 25 34 33 29 32 33 36 38 45 40 39 42 46 48 49 50 43 37 37 36 34 31 31 25 22 21
15 16 15 15 14 8 8 5 3 4 2 5 7 7 5 6 18 16 17 22 26 23 28 36 34 38 37 43 42 40 41 40 40 46 47 52 42 34 35 31 33 34 32 27 21
14 14 15 15 14 12 9 6 2 3 3 2 4 8 8 3 7 8 14 15 13 19 20 37 34 36 37 38 43 44 44 41 42 45 48 51 53 48 35 39 39 35 30 22 21
13 17 18 13 13 10 10 11 10 15 11 9 8 6 6 9 10 12 14 11 13 17 11 12 34 34 36 34 37 44 45 44 37 44 43 44 41 40 48 38 35 30 28 29 29

GFSSW_500_spd_114.txt.gz
Wind_Speed
21 21 20 20 24 26 27 28 29 28 28 26 23 19 18 20 21 20 23 27 29 27 22 19 16 13 14 11 7 11 9 8 5 15 14 9 4 7 6 9 12 9 6 11 10
20 21 20 19 17 20 24 26 29 30 30 28 26 22 19 20 22 22 20 26 29 29 26 23 20 15 15 14 9 5 4 6 8 7 5 15 9 6 7 7 10 11 10 11 11
21 20 21 21 18 16 19 24 26 30 29 29 28 25 21 21 21 21 22 24 29 30 28 23 20 16 16 17 11 6 4 2 3 7 4 10 4 4 5 7 8 9 11 12 9
21 21 21 20 19 17 16 20 24 26 29 29 30 29 24 22 23 23 22 22 27 30 28 23 20 16 18 18 13 9 6 4 3 11 4 3 3 4 7 8 8 9 8 14 10
24 22 22 21 20 19 18 19 21 27 28 28 28 30 28 26 24 23 23 23 25 31 29 25 22 22 21 18 17 10 9 7 6 12 3 5 5 11 4 10 12 9 8 11 12
30 24 23 22 20 20 19 20 19 23 28 28 28 29 30 29 27 25 24 23 24 30 29 27 27 27 24 20 18 12 11 9 5 7 2 0 3 3 6 6 11 8 8 9 13
33 27 23 23 21 21 21 20 21 20 25 29 28 29 30 30 28 29 27 26 25 30 31 31 30 29 26 22 19 16 14 10 8 8 5 4 5 7 4 4 6 6 8 9 10
33 27 25 24 22 20 21 19 20 20 22 26 27 29 30 29 29 30 30 30 28 27 31 33 34 32 30 23 21 18 16 13 12 11 8 6 4 6 7 6 12 7 9 13 11
32 27 26 25 23 22 21 20 20 19 23 24 24 27 29 30 33 32 33 33 32 31 35 34 33 33 27 24 21 18 17 14 13 15 12 8 5 5 6 2 11 9 14 12 13
32 29 26 24 24 22 21 21 18 19 21 25 25 25 27 32 34 34 34 35 34 33 33 35 32 30 26 24 21 20 18 17 16 18 15 16 10 9 7 8 1 9 15 13 17
32 30 26 24 24 22 19 17 17 18 20 24 26 24 24 29 34 34 35 36 36 36 33 34 32 26 23 24 24 24 19 16 16 16 16 13 11 9 11 11 8 3 4 16 19
33 30 25 23 23 20 16 15 15 18 20 24 27 26 22 24 30 32 31 34 35 36 33 33 33 30 28 26 26 26 22 18 16 19 21 18 17 12 10 10 7 10 9 11 15
31 27 23 22 22 18 13 13 16 17 19 24 25 25 26 27 29 31 29 29 32 33 32 30 33 35 33 31 29 27 24 21 22 21 20 21 19 17 16 10 13 10 12 18 22
28 24 21 21 19 13 11 11 12 15 16 20 23 25 27 28 29 31 30 29 31 30 30 31 34 36 38 36 30 28 27 28 26 25 24 22 25 17 17 17 17 15 22 20 19
24 20 19 18 15 10 8 8 10 12 13 16 22 25 27 30 28 30 33 31 30 30 30 30 35 36 37 34 34 32 32 31 30 27 27 23 25 25 21 16 17 20 18 19 21
20 18 18 14 12 7 5 6 12 13 13 15 20 23 26 27 30 32 33 33 35 35 33 35 36 37 32 35 35 36 37 35 32 32 32 25 26 18 17 14 22 23 20 15 22
17 17 13 11 10 5 3 9 14 14 14 14 19 23 23 21 27 29 29 32 34 33 32 33 33 33 34 36 37 37 40 39 35 39 34 30 33 26 21 21 14 14 23 21 24
17 15 9 8 8 2 2 11 14 14 13 15 15 19 21 22 22 25 28 32 35 33 31 32 30 27 31 32 34 34 41 41 41 38 30 32 35 28 24 19 21 17 18 22 24
16 11 7 8 6 1 5 12 11 14 13 14 12 16 19 20 21 25 28 32 36 34 35 34 30 30 31 32 34 37 43 42 39 36 34 34 30 28 22 20 18 20 17 16 18
13 5 9 9 5 2 9 11 10 10 11 13 15 13 13 14 20 22 25 29 30 30 31 33 31 33 32 33 36 35 37 43 44 42 38 39 27 21 20 18 19 19 15 13 13
9 7 8 8 5 6 9 8 7 12 13 11 14 14 13 15 16 20 23 26 26 26 29 34 33 34 35 35 36 36 37 40 37 41 41 39 35 28 22 21 22 22 17 12 7
8 6 9 9 9 7 8 8 7 12 12 12 15 15 14 15 13 15 19 21 22 21 27 31 33 31 35 36 38 39 40 40 42 40 41 42 36 29 27 25 25 23 19 16 12
6 7 10 9 8 8 7 4 7 9 9 8 13 16 16 19 19 20 20 19 20 20 23 27 33 31 35 38 38 42 43 42 43 40 40 38 35 32 30 29 26 25 26 13 11
3 7 10 9 6 5 4 2 1 2 4 8 8 6 9 16 25 24 22 19 20 22 24 24 27 32 36 40 41 42 44 46 46 44 43 42 33 32 29 26 22 20 16 14 15
4 8 9 8 6 6 8 4 1 5 4 6 8 6 3 5 13 21 23 23 23 26 25 25 25 26 33 41 41 42 45 43 42 47 44 43 39 31 33 34 31 23 19 18 19
4 7 10 11 10 7 6 5 2 4 5 4 1 1 6 5 7 13 17 17 15 24 27 22 26 30 31 38 42 46 45 42 39 39 41 43 41 39 40 35 30 27 24 24 26
7 9 11 12 9 7 6 6 6 9 9 10 10 10 6 4 10 12 15 16 14 19 20 17 18 31 32 35 41 40 47 44 39 37 35 34 35 35 42 47 42 32 21 22 22

GFSSW_500_spd_117.txt.gz
Wind_Speed
21 21 19 18 19 18 18 21 22 23 25 26 25 22 17 16 17 18 18 20 24 25 22 18 16 13 13 6 6 4 11 15 16 16 12 8 7 10 10 10 15 11 9 7 11
24 22 21 21 18 18 17 18 21 23 25 27 27 25 22 18 16 19 18 19 21 25 25 22 19 16 15 7 5 1 8 6 15 19 11 9 7 12 11 8 14 14 12 8 12
30 26 23 20 20 19 17 16 19 23 25 27 27 27 25 22 18 17 20 19 19 24 28 22 18 16 17 12 8 4 6 3 11 12 10 11 8 13 13 10 10 13 15 11 10
36 33 26 22 20 20 18 16 17 21 25 26 27 27 27 24 22 20 20 20 19 22 27 25 19 18 18 15 8 7 3 7 10 13 6 4 10 6 14 11 13 10 14 14 11
37 34 28 23 22 20 20 19 17 19 22 27 27 28 27 28 23 21 20 20 20 21 27 27 22 21 18 18 11 8 7 6 3 6 4 5 10 13 11 11 13 12 13 15 11
39 37 32 25 23 23 20 21 20 19 20 24 28 28 29 29 27 24 23 22 23 22 27 30 27 25 21 19 14 11 8 5 6 3 4 4 11 6 10 17 12 16 14 13 12
42 42 34 28 25 24 21 21 22 22 21 22 26 28 30 30 30 29 27 25 25 24 29 32 30 28 24 20 18 14 11 8 6 2 4 6 9 9 13 14 14 15 13 13 13
43 40 34 29 27 24 23 21 22 23 23 23 25 28 29 28 32 32 31 28 27 25 28 31 33 31 26 22 20 16 14 11 8 7 7 7 9 10 9 8 7 10 12 13 14
42 38 32 29 27 24 22 22 22 22 23 25 27 28 28 29 31 34 33 33 30 29 28 30 34 32 28 23 22 18 16 15 12 12 12 7 8 5 7 6 10 7 7 12 14
43 37 32 29 26 22 21 20 21 21 23 24 29 29 28 30 30 34 35 36 33 30 30 31 33 31 27 23 21 19 18 15 14 13 13 9 6 6 3 11 9 7 12 15 17
38 35 32 27 24 20 19 19 20 20 23 24 25 26 27 27 28 31 35 36 36 33 31 30 31 27 24 25 24 24 19 17 17 15 15 14 13 11 10 11 6 4 5 15 16
35 32 28 25 21 18 16 17 19 19 21 23 24 25 27 26 28 29 33 34 36 36 32 31 30 29 29 27 26 24 21 20 18 17 17 18 15 13 15 13 10 8 8 8 16
34 30 26 22 19 16 14 15 16 17 17 20 22 24 28 28 28 28 29 31 32 35 33 30 32 33 29 27 27 25 23 22 20 19 20 21 19 18 16 15 14 13 14 6 17
32 29 23 18 16 10 11 12 13 14 14 17 20 24 28 28 28 30 30 30 29 31 33 36 36 36 34 30 28 28 26 25 24 23 22 21 23 21 20 20 14 16 13 15 12
30 26 19 15 11 7 8 7 10 10 11 15 20 25 27 29 28 29 31 31 28 27 33 35 36 37 36 34 30 28 29 29 29 28 27 25 21 21 21 14 9 17 12 14 17
28 21 14 10 8 6 6 7 9 9 10 14 19 24 26 28 28 30 29 31 30 29 31 36 37 38 37 36 35 34 33 33 32 32 31 28 24 19 14 16 13 9 14 16 15
22 14 11 8 5 4 4 7 8 10 9 12 18 22 25 26 29 28 30 31 31 30 31 33 39 38 36 38 38 37 36 36 35 36 33 28 28 19 19 13 10 10 9 18 14
16 15 11 5 2 4 7 10 12 8 6 8 13 19 21 24 24 26 28 31 33 31 30 32 34 34 34 34 32 33 35 38 38 36 30 31 33 26 25 22 19 16 14 14 18
14 14 5 5 3 5 5 12 9 9 10 8 6 10 13 18 19 21 25 29 31 32 32 31 32 33 33 34 32 34 37 37 38 35 33 35 31 25 26 22 20 17 18 15 15
12 11 6 4 3 2 7 9 9 10 9 8 7 9 12 15 17 18 21 23 27 28 28 29 29 31 32 32 33 34 33 37 40 38 35 35 32 24 19 18 15 19 19 17 18
11 6 3 2 3 2 5 9 9 8 11 10 11 9 8 12 16 19 18 18 18 20 26 27 30 31 32 33 33 34 35 37 38 37 36 34 29 21 19 15 16 21 21 18 19
9 2 1 4 2 2 5 6 4 5 12 14 14 14 12 9 8 16 19 17 16 17 22 26 29 30 32 34 34 34 33 33 36 38 38 38 32 25 26 26 21 19 22 19 18
4 3 4 4 2 3 4 3 1 2 6 10 13 18 15 15 14 13 13 15 14 17 19 24 29 30 33 36 36 36 35 36 35 35 37 34 33 27 25 23 21 21 23 21 19
4 5 5 4 5 5 4 4 6 5 3 6 6 8 11 16 17 19 18 16 12 14 15 19 23 29 34 35 38 38 37 38 37 37 34 34 33 27 27 27 25 25 24 25 25
6 6 6 6 5 4 4 4 3 5 5 4 5 5 6 9 13 22 24 22 19 17 17 18 19 24 30 37 38 40 40 39 41 40 36 32 33 28 26 28 25 23 23 21 34
5 7 8 7 6 2 4 5 2 1 2 3 3 9 10 8 8 12 17 18 20 20 21 22 23 21 27 33 39 41 41 39 40 42 42 39 36 32 30 31 29 29 27 24 18
4 8 9 10 8 6 5 5 5 7 8 7 8 9 7 7 10 11 16 18 19 21 19 19 19 25 28 32 32 41 45 43 40 42 40 36 34 34 33 33 35 34 31 30 24

GFSSW_500_spd_120.txt.gz
Wind_Speed
27 26 21 15 15 16 18 15 15 17 20 21 22 23 20 17 15 15 16 13 18 24 24 19 15 12 6 4 9 9 5 12 15 15 14 13 11 12 12 10 13 13 11 8 10
30 29 28 25 17 15 16 16 15 16 19 22 22 24 24 20 18 14 15 16 15 24 27 24 17 15 10 8 8 4 7 13 18 16 13 10 13 12 11 10 13 15 14 8 10
30 31 31 29 25 20 17 17 18 16 19 22 24 24 25 24 22 17 15 17 16 20 26 23 18 17 13 10 7 6 5 9 19 12 10 13 12 14 10 10 9 12 15 10 9
31 32 32 33 27 21 19 18 19 18 18 23 25 26 25 26 25 21 17 16 17 19 25 25 22 19 16 12 9 8 7 14 13 10 10 12 11 13 13 11 11 8 11 14 10
32 34 35 35 31 24 21 21 21 20 18 21 26 27 27 28 26 24 21 18 18 20 26 28 26 23 20 15 12 11 13 13 10 9 7 8 13 10 17 13 15 13 11 14 12
36 37 40 38 33 27 23 23 24 23 22 22 24 28 30 30 29 27 24 22 21 22 27 30 30 27 23 18 17 15 15 10 7 5 5 8 12 15 13 14 16 17 12 12 13
38 41 41 38 32 28 25 25 25 25 25 25 25 28 30 28 31 31 29 26 24 24 26 31 31 29 25 23 20 17 15 13 10 5 7 8 15 22 15 17 15 15 12 12 13
41 40 40 37 32 28 26 26 26 26 27 27 28 27 28 27 31 33 32 30 28 26 26 28 32 30 27 23 20 19 16 13 10 9 6 7 10 12 14 17 14 14 12 12 12
42 42 41 36 31 28 27 25 26 28 29 28 30 30 28 28 30 33 34 34 31 27 26 27 30 32 27 26 23 19 16 13 13 11 4 3 11 12 12 13 14 14 15 13 13
43 42 37 34 29 27 26 26 26 26 25 26 28 29 28 28 30 32 33 35 33 30 30 30 30 29 28 27 20 19 19 16 13 13 7 10 9 9 9 13 18 15 16 16 15
42 39 35 32 28 26 25 24 20 18 22 25 26 27 27 27 28 30 34 35 36 34 32 32 31 28 25 28 33 25 19 18 17 12 12 11 7 8 13 10 18 14 14 17 15
39 35 33 31 28 23 20 18 16 19 20 22 24 25 27 26 27 29 32 33 37 35 32 32 31 31 34 30 26 23 19 19 19 18 16 13 10 8 11 9 7 10 13 12 18
36 33 33 31 24 18 15 13 15 16 16 18 20 23 26 28 27 29 31 31 34 36 33 31 33 34 30 29 28 25 23 22 21 18 17 18 15 14 13 9 10 12 17 8 7
34 33 32 25 16 13 11 11 11 10 10 14 18 22 25 27 28 30 31 31 32 35 34 35 36 33 31 31 31 28 27 24 22 18 15 19 14 18 17 16 12 13 11 9 11
36 32 25 17 12 9 9 8 5 5 8 13 16 21 24 27 27 28 31 31 31 31 33 39 35 38 36 34 32 34 30 27 26 25 22 21 18 21 17 19 19 9 15 12 18
33 26 16 12 9 8 5 4 4 4 6 10 15 19 21 24 26 27 28 31 32 31 32 38 40 39 39 38 34 34 32 31 27 26 25 23 20 19 12 10 18 6 10 17 12
28 18 12 10 6 3 2 3 2 5 5 10 15 17 19 22 25 25 28 29 30 30 33 33 37 40 38 37 39 34 33 29 30 30 22 27 25 20 15 8 2 5 6 6 12
21 13 11 5 1 3 3 5 5 4 5 7 10 14 15 20 22 24 27 29 29 31 27 30 36 38 38 39 40 37 34 26 23 21 22 29 28 26 20 16 13 12 11 10 9
15 11 6 2 2 2 2 3 5 4 5 6 5 8 12 17 19 22 24 26 29 28 25 30 26 35 35 35 37 38 41 35 28 23 24 25 32 26 25 22 21 19 16 14 10
13 9 3 2 6 2 1 5 5 8 7 4 6 10 9 13 14 17 21 25 27 29 26 27 23 27 30 31 33 40 38 36 39 24 24 25 26 19 22 18 17 17 19 17 15
14 7 4 6 6 3 5 7 9 9 9 7 4 5 10 12 13 13 15 18 22 25 26 25 24 25 27 28 28 34 35 39 25 29 22 22 22 26 24 19 14 17 17 17 16
9 3 6 10 8 6 8 7 6 7 11 10 11 9 8 11 15 15 15 16 16 19 23 26 23 18 16 32 32 31 31 33 32 26 31 25 21 26 21 19 16 12 15 18 17
4 5 9 10 8 9 7 4 5 9 10 13 12 13 13 11 11 14 16 16 15 16 20 24 24 21 21 27 30 31 36 35 29 24 25 26 25 28 23 23 24 21 20 19 20
5 7 10 9 10 11 7 6 6 5 9 12 12 13 16 15 15 14 14 14 15 16 18 20 22 27 18 25 24 33 33 33 32 26 23 23 23 30 26 24 23 23 20 21 23
4 11 11 10 9 8 6 5 6 6 7 9 9 10 12 13 16 19 19 19 18 16 17 18 22 27 36 35 35 38 35 35 34 29 28 23 24 31 26 24 28 27 23 24 24
5 10 11 12 9 6 6 5 4 3 3 2 5 7 9 8 8 10 16 21 22 19 19 19 21 22 28 34 36 36 35 38 39 39 37 36 22 30 29 28 25 25 24 23 28
6 11 12 12 9 7 6 7 6 5 6 6 8 8 7 6 6 6 6 11 15 18 20 19 19 24 21 27 29 34 39 40 42 42 40 34 35 34 32 31 31 29 29 26 26